<?xml version="1.0" encoding="UTF-8" standalone="no" ?>
<gpx xmlns="http://www.topografix.com/GPX/1/1" xmlns:xsi="http://www.w3.org/2001/XMLSchema-instance" xsi:schemaLocation="http://www.topografix.com/GPX/1/1 http://www.topografix.com/GPX/1/1/gpx.xsd" version="1.1" creator="VisuGPX - https://www.visugpx.com">
  <metadata>
    <name>Neuvicoise 2024</name>
    <desc><![CDATA[Parcours créé sur Trace de Trail]]></desc>
  </metadata>
  <trk>
    <name><![CDATA[Boucle d'Areil Neuvicoise 2024 sur TraceDeTrail.fr]]></name>
    <extensions>
      <line xmlns="http://www.topografix.com/GPX/gpx_style/0/2">
        <color>00FF00</color>
        <width>4</width>
      </line>
    </extensions>
    <trkseg>
      <trkpt lat="45.44471" lon="2.24868">
        <ele>659</ele>
        <time>2024-09-13T05:05:16+00:00</time>
      </trkpt>
      <trkpt lat="45.4448" lon="2.24825">
        <ele>660</ele>
        <time>2024-09-13T05:05:19+00:00</time>
      </trkpt>
      <trkpt lat="45.44491" lon="2.24781">
        <ele>662</ele>
        <time>2024-09-13T05:05:22+00:00</time>
      </trkpt>
      <trkpt lat="45.44501" lon="2.24751">
        <ele>661</ele>
        <time>2024-09-13T05:05:25+00:00</time>
      </trkpt>
      <trkpt lat="45.4452" lon="2.24726">
        <ele>661</ele>
        <time>2024-09-13T05:05:28+00:00</time>
      </trkpt>
      <trkpt lat="45.44547" lon="2.24677">
        <ele>663</ele>
        <time>2024-09-13T05:05:31+00:00</time>
      </trkpt>
      <trkpt lat="45.44549" lon="2.24632">
        <ele>665</ele>
        <time>2024-09-13T05:05:34+00:00</time>
      </trkpt>
      <trkpt lat="45.44548" lon="2.24587">
        <ele>669</ele>
        <time>2024-09-13T05:05:37+00:00</time>
      </trkpt>
      <trkpt lat="45.44541" lon="2.24554">
        <ele>669</ele>
        <time>2024-09-13T05:05:40+00:00</time>
      </trkpt>
      <trkpt lat="45.44537" lon="2.24517">
        <ele>660</ele>
        <time>2024-09-13T05:05:43+00:00</time>
      </trkpt>
      <trkpt lat="45.4455" lon="2.24475">
        <ele>664</ele>
        <time>2024-09-13T05:05:46+00:00</time>
      </trkpt>
      <trkpt lat="45.44574" lon="2.24448">
        <ele>668</ele>
        <time>2024-09-13T05:05:49+00:00</time>
      </trkpt>
      <trkpt lat="45.44585" lon="2.24396">
        <ele>673</ele>
        <time>2024-09-13T05:05:52+00:00</time>
      </trkpt>
      <trkpt lat="45.44584" lon="2.24341">
        <ele>682</ele>
        <time>2024-09-13T05:05:55+00:00</time>
      </trkpt>
      <trkpt lat="45.44582" lon="2.24306">
        <ele>685</ele>
        <time>2024-09-13T05:05:58+00:00</time>
      </trkpt>
      <trkpt lat="45.44579" lon="2.24248">
        <ele>687.4</ele>
        <time>2024-09-13T05:06:01+00:00</time>
      </trkpt>
      <trkpt lat="45.44614" lon="2.24261">
        <ele>694</ele>
        <time>2024-09-13T05:06:04+00:00</time>
      </trkpt>
      <trkpt lat="45.44644" lon="2.2424">
        <ele>697</ele>
        <time>2024-09-13T05:06:07+00:00</time>
      </trkpt>
      <trkpt lat="45.44673" lon="2.24242">
        <ele>697</ele>
        <time>2024-09-13T05:06:10+00:00</time>
      </trkpt>
      <trkpt lat="45.44701" lon="2.24272">
        <ele>697</ele>
        <time>2024-09-13T05:06:13+00:00</time>
      </trkpt>
      <trkpt lat="45.44737" lon="2.24289">
        <ele>692.9</ele>
        <time>2024-09-13T05:06:16+00:00</time>
      </trkpt>
      <trkpt lat="45.4475" lon="2.24324">
        <ele>700</ele>
        <time>2024-09-13T05:06:19+00:00</time>
      </trkpt>
      <trkpt lat="45.44777" lon="2.24353">
        <ele>698</ele>
        <time>2024-09-13T05:06:22+00:00</time>
      </trkpt>
      <trkpt lat="45.4479" lon="2.24387">
        <ele>696</ele>
        <time>2024-09-13T05:06:25+00:00</time>
      </trkpt>
      <trkpt lat="45.44808" lon="2.24435">
        <ele>691</ele>
        <time>2024-09-13T05:06:28+00:00</time>
      </trkpt>
      <trkpt lat="45.44829" lon="2.24487">
        <ele>684.1</ele>
        <time>2024-09-13T05:06:31+00:00</time>
      </trkpt>
      <trkpt lat="45.44836" lon="2.24518">
        <ele>687</ele>
        <time>2024-09-13T05:06:34+00:00</time>
      </trkpt>
      <trkpt lat="45.44883" lon="2.24548">
        <ele>681.3</ele>
        <time>2024-09-13T05:06:37+00:00</time>
      </trkpt>
      <trkpt lat="45.44902" lon="2.24586">
        <ele>680.1</ele>
        <time>2024-09-13T05:06:40+00:00</time>
      </trkpt>
      <trkpt lat="45.44913" lon="2.24614">
        <ele>680.1</ele>
        <time>2024-09-13T05:06:43+00:00</time>
      </trkpt>
      <trkpt lat="45.44924" lon="2.24652">
        <ele>686</ele>
        <time>2024-09-13T05:06:46+00:00</time>
      </trkpt>
      <trkpt lat="45.44954" lon="2.24686">
        <ele>683</ele>
        <time>2024-09-13T05:06:49+00:00</time>
      </trkpt>
      <trkpt lat="45.44984" lon="2.2472">
        <ele>681</ele>
        <time>2024-09-13T05:06:52+00:00</time>
      </trkpt>
      <trkpt lat="45.45014" lon="2.24755">
        <ele>680</ele>
        <time>2024-09-13T05:06:55+00:00</time>
      </trkpt>
      <trkpt lat="45.45034" lon="2.24777">
        <ele>679</ele>
        <time>2024-09-13T05:06:58+00:00</time>
      </trkpt>
      <trkpt lat="45.45093" lon="2.24773">
        <ele>671.5</ele>
        <time>2024-09-13T05:07:01+00:00</time>
      </trkpt>
      <trkpt lat="45.45151" lon="2.24801">
        <ele>663.3</ele>
        <time>2024-09-13T05:07:04+00:00</time>
      </trkpt>
      <trkpt lat="45.45159" lon="2.24844">
        <ele>658.2</ele>
        <time>2024-09-13T05:07:07+00:00</time>
      </trkpt>
      <trkpt lat="45.45154" lon="2.24878">
        <ele>653.3</ele>
        <time>2024-09-13T05:07:10+00:00</time>
      </trkpt>
      <trkpt lat="45.45164" lon="2.24896">
        <ele>651</ele>
        <time>2024-09-13T05:07:13+00:00</time>
      </trkpt>
      <trkpt lat="45.45195" lon="2.24917">
        <ele>634</ele>
        <time>2024-09-13T05:07:16+00:00</time>
      </trkpt>
      <trkpt lat="45.45219" lon="2.24932">
        <ele>632</ele>
        <time>2024-09-13T05:07:19+00:00</time>
      </trkpt>
      <trkpt lat="45.45247" lon="2.24951">
        <ele>630</ele>
        <time>2024-09-13T05:07:22+00:00</time>
      </trkpt>
      <trkpt lat="45.45256" lon="2.2499">
        <ele>620</ele>
        <time>2024-09-13T05:07:25+00:00</time>
      </trkpt>
      <trkpt lat="45.45268" lon="2.25025">
        <ele>628.1</ele>
        <time>2024-09-13T05:07:28+00:00</time>
      </trkpt>
      <trkpt lat="45.45278" lon="2.25037">
        <ele>631.3</ele>
        <time>2024-09-13T05:07:31+00:00</time>
      </trkpt>
      <trkpt lat="45.45301" lon="2.25047">
        <ele>616</ele>
        <time>2024-09-13T05:07:34+00:00</time>
      </trkpt>
      <trkpt lat="45.45326" lon="2.25027">
        <ele>614</ele>
        <time>2024-09-13T05:07:37+00:00</time>
      </trkpt>
      <trkpt lat="45.45367" lon="2.24994">
        <ele>614</ele>
        <time>2024-09-13T05:07:40+00:00</time>
      </trkpt>
      <trkpt lat="45.45397" lon="2.24977">
        <ele>614</ele>
        <time>2024-09-13T05:07:43+00:00</time>
      </trkpt>
      <trkpt lat="45.45427" lon="2.24959">
        <ele>617</ele>
        <time>2024-09-13T05:07:46+00:00</time>
      </trkpt>
      <trkpt lat="45.45463" lon="2.24938">
        <ele>620</ele>
        <time>2024-09-13T05:07:49+00:00</time>
      </trkpt>
      <trkpt lat="45.45477" lon="2.2491">
        <ele>623</ele>
        <time>2024-09-13T05:07:52+00:00</time>
      </trkpt>
      <trkpt lat="45.45492" lon="2.24912">
        <ele>627.3</ele>
        <time>2024-09-13T05:07:55+00:00</time>
      </trkpt>
      <trkpt lat="45.45505" lon="2.24932">
        <ele>622</ele>
        <time>2024-09-13T05:07:58+00:00</time>
      </trkpt>
      <trkpt lat="45.45523" lon="2.2495">
        <ele>623</ele>
        <time>2024-09-13T05:08:01+00:00</time>
      </trkpt>
      <trkpt lat="45.45551" lon="2.24953">
        <ele>631</ele>
        <time>2024-09-13T05:08:04+00:00</time>
      </trkpt>
      <trkpt lat="45.45587" lon="2.24956">
        <ele>637</ele>
        <time>2024-09-13T05:08:07+00:00</time>
      </trkpt>
      <trkpt lat="45.45623" lon="2.24959">
        <ele>642</ele>
        <time>2024-09-13T05:08:10+00:00</time>
      </trkpt>
      <trkpt lat="45.457" lon="2.24982">
        <ele>625.6</ele>
        <time>2024-09-13T05:08:13+00:00</time>
      </trkpt>
      <trkpt lat="45.4575" lon="2.24962">
        <ele>621.9</ele>
        <time>2024-09-13T05:08:16+00:00</time>
      </trkpt>
      <trkpt lat="45.4578" lon="2.24988">
        <ele>615.3</ele>
        <time>2024-09-13T05:08:19+00:00</time>
      </trkpt>
      <trkpt lat="45.4581" lon="2.2494">
        <ele>616</ele>
        <time>2024-09-13T05:08:22+00:00</time>
      </trkpt>
      <trkpt lat="45.4581" lon="2.24908">
        <ele>619.1</ele>
        <time>2024-09-13T05:08:25+00:00</time>
      </trkpt>
      <trkpt lat="45.45809" lon="2.24856">
        <ele>635</ele>
        <time>2024-09-13T05:08:31+00:00</time>
      </trkpt>
      <trkpt lat="45.45834" lon="2.24825">
        <ele>630</ele>
        <time>2024-09-13T05:08:34+00:00</time>
      </trkpt>
      <trkpt lat="45.45881" lon="2.24834">
        <ele>621.8</ele>
        <time>2024-09-13T05:08:37+00:00</time>
      </trkpt>
      <trkpt lat="45.45906" lon="2.24783">
        <ele>627.1</ele>
        <time>2024-09-13T05:08:40+00:00</time>
      </trkpt>
      <trkpt lat="45.45915" lon="2.24753">
        <ele>631</ele>
        <time>2024-09-13T05:08:43+00:00</time>
      </trkpt>
      <trkpt lat="45.45938" lon="2.2473">
        <ele>629</ele>
        <time>2024-09-13T05:08:46+00:00</time>
      </trkpt>
      <trkpt lat="45.45974" lon="2.24696">
        <ele>628</ele>
        <time>2024-09-13T05:08:49+00:00</time>
      </trkpt>
      <trkpt lat="45.46003" lon="2.24684">
        <ele>625</ele>
        <time>2024-09-13T05:08:52+00:00</time>
      </trkpt>
      <trkpt lat="45.46037" lon="2.24674">
        <ele>623</ele>
        <time>2024-09-13T05:08:55+00:00</time>
      </trkpt>
      <trkpt lat="45.46066" lon="2.2467">
        <ele>622</ele>
        <time>2024-09-13T05:08:58+00:00</time>
      </trkpt>
      <trkpt lat="45.46112" lon="2.24664">
        <ele>619</ele>
        <time>2024-09-13T05:09:01+00:00</time>
      </trkpt>
      <trkpt lat="45.46125" lon="2.24632">
        <ele>618</ele>
        <time>2024-09-13T05:09:04+00:00</time>
      </trkpt>
      <trkpt lat="45.46141" lon="2.24592">
        <ele>618</ele>
        <time>2024-09-13T05:09:07+00:00</time>
      </trkpt>
      <trkpt lat="45.46152" lon="2.24555">
        <ele>621</ele>
        <time>2024-09-13T05:09:10+00:00</time>
      </trkpt>
      <trkpt lat="45.46166" lon="2.24503">
        <ele>634</ele>
        <time>2024-09-13T05:09:13+00:00</time>
      </trkpt>
      <trkpt lat="45.46177" lon="2.2444">
        <ele>645</ele>
        <time>2024-09-13T05:09:16+00:00</time>
      </trkpt>
      <trkpt lat="45.46186" lon="2.24383">
        <ele>646</ele>
        <time>2024-09-13T05:09:19+00:00</time>
      </trkpt>
      <trkpt lat="45.46189" lon="2.24343">
        <ele>652</ele>
        <time>2024-09-13T05:09:22+00:00</time>
      </trkpt>
      <trkpt lat="45.46194" lon="2.24282">
        <ele>663</ele>
        <time>2024-09-13T05:09:25+00:00</time>
      </trkpt>
      <trkpt lat="45.46192" lon="2.24225">
        <ele>665</ele>
        <time>2024-09-13T05:09:28+00:00</time>
      </trkpt>
      <trkpt lat="45.46169" lon="2.24204">
        <ele>670</ele>
        <time>2024-09-13T05:09:31+00:00</time>
      </trkpt>
      <trkpt lat="45.46138" lon="2.24175">
        <ele>669</ele>
        <time>2024-09-13T05:09:34+00:00</time>
      </trkpt>
      <trkpt lat="45.46115" lon="2.24155">
        <ele>669</ele>
        <time>2024-09-13T05:09:37+00:00</time>
      </trkpt>
      <trkpt lat="45.46087" lon="2.2413">
        <ele>673</ele>
        <time>2024-09-13T05:09:40+00:00</time>
      </trkpt>
      <trkpt lat="45.46065" lon="2.24111">
        <ele>676</ele>
        <time>2024-09-13T05:09:43+00:00</time>
      </trkpt>
      <trkpt lat="45.4604" lon="2.2409">
        <ele>677</ele>
        <time>2024-09-13T05:09:46+00:00</time>
      </trkpt>
      <trkpt lat="45.46023" lon="2.24064">
        <ele>678</ele>
        <time>2024-09-13T05:09:49+00:00</time>
      </trkpt>
      <trkpt lat="45.46002" lon="2.24033">
        <ele>680</ele>
        <time>2024-09-13T05:09:52+00:00</time>
      </trkpt>
      <trkpt lat="45.45986" lon="2.24">
        <ele>683</ele>
        <time>2024-09-13T05:09:55+00:00</time>
      </trkpt>
      <trkpt lat="45.45978" lon="2.23959">
        <ele>683</ele>
        <time>2024-09-13T05:09:58+00:00</time>
      </trkpt>
      <trkpt lat="45.45971" lon="2.23925">
        <ele>683</ele>
        <time>2024-09-13T05:10:01+00:00</time>
      </trkpt>
      <trkpt lat="45.45964" lon="2.23887">
        <ele>683</ele>
        <time>2024-09-13T05:10:04+00:00</time>
      </trkpt>
      <trkpt lat="45.45948" lon="2.23859">
        <ele>687</ele>
        <time>2024-09-13T05:10:07+00:00</time>
      </trkpt>
      <trkpt lat="45.4593" lon="2.23827">
        <ele>692</ele>
        <time>2024-09-13T05:10:10+00:00</time>
      </trkpt>
      <trkpt lat="45.45915" lon="2.23883">
        <ele>693</ele>
        <time>2024-09-13T05:10:13+00:00</time>
      </trkpt>
      <trkpt lat="45.45911" lon="2.23918">
        <ele>694</ele>
        <time>2024-09-13T05:10:16+00:00</time>
      </trkpt>
      <trkpt lat="45.45907" lon="2.23959">
        <ele>696</ele>
        <time>2024-09-13T05:10:19+00:00</time>
      </trkpt>
      <trkpt lat="45.45909" lon="2.24004">
        <ele>698</ele>
        <time>2024-09-13T05:10:22+00:00</time>
      </trkpt>
      <trkpt lat="45.4591" lon="2.24041">
        <ele>700</ele>
        <time>2024-09-13T05:10:25+00:00</time>
      </trkpt>
      <trkpt lat="45.45911" lon="2.2409">
        <ele>707</ele>
        <time>2024-09-13T05:10:28+00:00</time>
      </trkpt>
      <trkpt lat="45.45854" lon="2.24124">
        <ele>706</ele>
        <time>2024-09-13T05:10:31+00:00</time>
      </trkpt>
      <trkpt lat="45.45828" lon="2.24129">
        <ele>705</ele>
        <time>2024-09-13T05:10:34+00:00</time>
      </trkpt>
      <trkpt lat="45.45795" lon="2.24135">
        <ele>704</ele>
        <time>2024-09-13T05:10:37+00:00</time>
      </trkpt>
      <trkpt lat="45.45772" lon="2.24128">
        <ele>704</ele>
        <time>2024-09-13T05:10:40+00:00</time>
      </trkpt>
      <trkpt lat="45.45741" lon="2.24147">
        <ele>697.1</ele>
        <time>2024-09-13T05:10:43+00:00</time>
      </trkpt>
      <trkpt lat="45.4569" lon="2.24127">
        <ele>699.3</ele>
        <time>2024-09-13T05:10:46+00:00</time>
      </trkpt>
      <trkpt lat="45.45676" lon="2.24096">
        <ele>703</ele>
        <time>2024-09-13T05:10:49+00:00</time>
      </trkpt>
      <trkpt lat="45.45642" lon="2.2408">
        <ele>701</ele>
        <time>2024-09-13T05:10:52+00:00</time>
      </trkpt>
      <trkpt lat="45.45622" lon="2.24051">
        <ele>700</ele>
        <time>2024-09-13T05:10:55+00:00</time>
      </trkpt>
      <trkpt lat="45.4559" lon="2.24005">
        <ele>699</ele>
        <time>2024-09-13T05:10:58+00:00</time>
      </trkpt>
      <trkpt lat="45.45568" lon="2.23971">
        <ele>699</ele>
        <time>2024-09-13T05:11:01+00:00</time>
      </trkpt>
      <trkpt lat="45.45545" lon="2.23936">
        <ele>694</ele>
        <time>2024-09-13T05:11:04+00:00</time>
      </trkpt>
      <trkpt lat="45.45516" lon="2.23891">
        <ele>690</ele>
        <time>2024-09-13T05:11:07+00:00</time>
      </trkpt>
      <trkpt lat="45.45485" lon="2.23888">
        <ele>691</ele>
        <time>2024-09-13T05:11:10+00:00</time>
      </trkpt>
      <trkpt lat="45.45459" lon="2.23885">
        <ele>692</ele>
        <time>2024-09-13T05:11:13+00:00</time>
      </trkpt>
      <trkpt lat="45.45428" lon="2.23882">
        <ele>692</ele>
        <time>2024-09-13T05:11:16+00:00</time>
      </trkpt>
      <trkpt lat="45.45417" lon="2.23849">
        <ele>691</ele>
        <time>2024-09-13T05:11:19+00:00</time>
      </trkpt>
      <trkpt lat="45.45375" lon="2.23842">
        <ele>691</ele>
        <time>2024-09-13T05:11:22+00:00</time>
      </trkpt>
      <trkpt lat="45.45349" lon="2.23842">
        <ele>693</ele>
        <time>2024-09-13T05:11:25+00:00</time>
      </trkpt>
      <trkpt lat="45.45314" lon="2.23841">
        <ele>694</ele>
        <time>2024-09-13T05:11:28+00:00</time>
      </trkpt>
      <trkpt lat="45.45289" lon="2.2384">
        <ele>695</ele>
        <time>2024-09-13T05:11:31+00:00</time>
      </trkpt>
      <trkpt lat="45.45238" lon="2.23839">
        <ele>696.1</ele>
        <time>2024-09-13T05:11:34+00:00</time>
      </trkpt>
      <trkpt lat="45.45248" lon="2.23796">
        <ele>694.7</ele>
        <time>2024-09-13T05:11:37+00:00</time>
      </trkpt>
      <trkpt lat="45.4525" lon="2.23767">
        <ele>696</ele>
        <time>2024-09-13T05:11:40+00:00</time>
      </trkpt>
      <trkpt lat="45.45236" lon="2.23738">
        <ele>700</ele>
        <time>2024-09-13T05:11:43+00:00</time>
      </trkpt>
      <trkpt lat="45.45222" lon="2.23708">
        <ele>701</ele>
        <time>2024-09-13T05:11:46+00:00</time>
      </trkpt>
      <trkpt lat="45.45207" lon="2.23661">
        <ele>684.6</ele>
        <time>2024-09-13T05:11:49+00:00</time>
      </trkpt>
      <trkpt lat="45.45138" lon="2.23627">
        <ele>680.1</ele>
        <time>2024-09-13T05:11:52+00:00</time>
      </trkpt>
      <trkpt lat="45.45118" lon="2.23609">
        <ele>678.2</ele>
        <time>2024-09-13T05:11:55+00:00</time>
      </trkpt>
      <trkpt lat="45.45102" lon="2.23562">
        <ele>675.4</ele>
        <time>2024-09-13T05:11:58+00:00</time>
      </trkpt>
      <trkpt lat="45.45072" lon="2.2358">
        <ele>674.2</ele>
        <time>2024-09-13T05:12:01+00:00</time>
      </trkpt>
      <trkpt lat="45.45058" lon="2.2361">
        <ele>684</ele>
        <time>2024-09-13T05:12:04+00:00</time>
      </trkpt>
      <trkpt lat="45.45043" lon="2.23661">
        <ele>684</ele>
        <time>2024-09-13T05:12:07+00:00</time>
      </trkpt>
      <trkpt lat="45.45031" lon="2.23694">
        <ele>685</ele>
        <time>2024-09-13T05:12:10+00:00</time>
      </trkpt>
      <trkpt lat="45.45003" lon="2.23727">
        <ele>672.2</ele>
        <time>2024-09-13T05:12:13+00:00</time>
      </trkpt>
      <trkpt lat="45.44903" lon="2.23789">
        <ele>686</ele>
        <time>2024-09-13T05:12:25+00:00</time>
      </trkpt>
      <trkpt lat="45.44864" lon="2.23807">
        <ele>679</ele>
        <time>2024-09-13T05:12:28+00:00</time>
      </trkpt>
      <trkpt lat="45.44834" lon="2.2382">
        <ele>676</ele>
        <time>2024-09-13T05:12:31+00:00</time>
      </trkpt>
      <trkpt lat="45.44803" lon="2.23834">
        <ele>676</ele>
        <time>2024-09-13T05:12:34+00:00</time>
      </trkpt>
      <trkpt lat="45.4477" lon="2.23849">
        <ele>676</ele>
        <time>2024-09-13T05:12:37+00:00</time>
      </trkpt>
      <trkpt lat="45.44742" lon="2.23858">
        <ele>677</ele>
        <time>2024-09-13T05:12:40+00:00</time>
      </trkpt>
      <trkpt lat="45.44708" lon="2.23865">
        <ele>677</ele>
        <time>2024-09-13T05:12:43+00:00</time>
      </trkpt>
      <trkpt lat="45.44674" lon="2.23872">
        <ele>677</ele>
        <time>2024-09-13T05:12:46+00:00</time>
      </trkpt>
      <trkpt lat="45.44648" lon="2.23877">
        <ele>673</ele>
        <time>2024-09-13T05:12:49+00:00</time>
      </trkpt>
      <trkpt lat="45.44619" lon="2.23883">
        <ele>672</ele>
        <time>2024-09-13T05:12:52+00:00</time>
      </trkpt>
      <trkpt lat="45.44584" lon="2.23883">
        <ele>673</ele>
        <time>2024-09-13T05:12:55+00:00</time>
      </trkpt>
      <trkpt lat="45.44549" lon="2.23883">
        <ele>675</ele>
        <time>2024-09-13T05:12:58+00:00</time>
      </trkpt>
      <trkpt lat="45.44522" lon="2.23884">
        <ele>675</ele>
        <time>2024-09-13T05:13:01+00:00</time>
      </trkpt>
      <trkpt lat="45.44485" lon="2.23884">
        <ele>673</ele>
        <time>2024-09-13T05:13:04+00:00</time>
      </trkpt>
      <trkpt lat="45.44439" lon="2.23902">
        <ele>673.4</ele>
        <time>2024-09-13T05:13:07+00:00</time>
      </trkpt>
      <trkpt lat="45.44402" lon="2.23954">
        <ele>666.1</ele>
        <time>2024-09-13T05:13:10+00:00</time>
      </trkpt>
      <trkpt lat="45.44379" lon="2.23981">
        <ele>678</ele>
        <time>2024-09-13T05:13:13+00:00</time>
      </trkpt>
      <trkpt lat="45.4435" lon="2.24018">
        <ele>669.2</ele>
        <time>2024-09-13T05:13:16+00:00</time>
      </trkpt>
      <trkpt lat="45.44308" lon="2.2406">
        <ele>674.3</ele>
        <time>2024-09-13T05:13:19+00:00</time>
      </trkpt>
      <trkpt lat="45.44278" lon="2.24107">
        <ele>674.8</ele>
        <time>2024-09-13T05:13:22+00:00</time>
      </trkpt>
      <trkpt lat="45.44234" lon="2.24148">
        <ele>674.8</ele>
        <time>2024-09-13T05:13:25+00:00</time>
      </trkpt>
      <trkpt lat="45.44203" lon="2.24152">
        <ele>680</ele>
        <time>2024-09-13T05:13:28+00:00</time>
      </trkpt>
      <trkpt lat="45.44173" lon="2.24171">
        <ele>680</ele>
        <time>2024-09-13T05:13:31+00:00</time>
      </trkpt>
      <trkpt lat="45.44134" lon="2.24196">
        <ele>678</ele>
        <time>2024-09-13T05:13:34+00:00</time>
      </trkpt>
      <trkpt lat="45.44113" lon="2.24213">
        <ele>677</ele>
        <time>2024-09-13T05:13:37+00:00</time>
      </trkpt>
      <trkpt lat="45.44092" lon="2.2423">
        <ele>675</ele>
        <time>2024-09-13T05:13:40+00:00</time>
      </trkpt>
      <trkpt lat="45.44122" lon="2.24276">
        <ele>678</ele>
        <time>2024-09-13T05:13:43+00:00</time>
      </trkpt>
      <trkpt lat="45.44147" lon="2.243">
        <ele>681</ele>
        <time>2024-09-13T05:13:46+00:00</time>
      </trkpt>
      <trkpt lat="45.44192" lon="2.24343">
        <ele>689</ele>
        <time>2024-09-13T05:13:49+00:00</time>
      </trkpt>
      <trkpt lat="45.44206" lon="2.24369">
        <ele>689</ele>
        <time>2024-09-13T05:13:52+00:00</time>
      </trkpt>
      <trkpt lat="45.44233" lon="2.24406">
        <ele>689</ele>
        <time>2024-09-13T05:13:55+00:00</time>
      </trkpt>
      <trkpt lat="45.44251" lon="2.24428">
        <ele>682</ele>
        <time>2024-09-13T05:13:58+00:00</time>
      </trkpt>
      <trkpt lat="45.4427" lon="2.2445">
        <ele>682</ele>
        <time>2024-09-13T05:14:01+00:00</time>
      </trkpt>
      <trkpt lat="45.44302" lon="2.24494">
        <ele>678</ele>
        <time>2024-09-13T05:14:04+00:00</time>
      </trkpt>
      <trkpt lat="45.44326" lon="2.24505">
        <ele>673</ele>
        <time>2024-09-13T05:14:07+00:00</time>
      </trkpt>
      <trkpt lat="45.44356" lon="2.24519">
        <ele>674</ele>
        <time>2024-09-13T05:14:10+00:00</time>
      </trkpt>
      <trkpt lat="45.44372" lon="2.24572">
        <ele>671</ele>
        <time>2024-09-13T05:14:13+00:00</time>
      </trkpt>
      <trkpt lat="45.44385" lon="2.2463">
        <ele>669</ele>
        <time>2024-09-13T05:14:16+00:00</time>
      </trkpt>
      <trkpt lat="45.44396" lon="2.24667">
        <ele>669</ele>
        <time>2024-09-13T05:14:19+00:00</time>
      </trkpt>
      <trkpt lat="45.44413" lon="2.24722">
        <ele>666</ele>
        <time>2024-09-13T05:14:22+00:00</time>
      </trkpt>
      <trkpt lat="45.44427" lon="2.24753">
        <ele>663</ele>
        <time>2024-09-13T05:14:25+00:00</time>
      </trkpt>
      <trkpt lat="45.44446" lon="2.24794">
        <ele>662</ele>
        <time>2024-09-13T05:14:28+00:00</time>
      </trkpt>
      <trkpt lat="45.44452" lon="2.24826">
        <ele>658</ele>
        <time>2024-09-13T05:14:31+00:00</time>
      </trkpt>
      <trkpt lat="45.44452" lon="2.24826">
        <ele>658</ele>
        <time>2024-09-13T05:14:34+00:00</time>
      </trkpt>
    </trkseg>
  </trk>
  <trk>
    <name><![CDATA[Marche Neuvicoise 2024 sur TraceDeTrail.fr]]></name>
    <extensions>
      <line xmlns="http://www.topografix.com/GPX/gpx_style/0/2">
        <color>FF0000</color>
        <width>4</width>
      </line>
    </extensions>
    <trkseg>
      <trkpt lat="45.3899" lon="2.29238">
        <ele>592</ele>
        <time>2024-09-12T18:42:14+00:00</time>
      </trkpt>
      <trkpt lat="45.39017" lon="2.29204">
        <ele>597</ele>
        <time>2024-09-12T18:42:17+00:00</time>
      </trkpt>
      <trkpt lat="45.39067" lon="2.29174">
        <ele>596</ele>
        <time>2024-09-12T18:42:20+00:00</time>
      </trkpt>
      <trkpt lat="45.39089" lon="2.29165">
        <ele>597</ele>
        <time>2024-09-12T18:42:23+00:00</time>
      </trkpt>
      <trkpt lat="45.391" lon="2.2909">
        <ele>596</ele>
        <time>2024-09-12T18:42:26+00:00</time>
      </trkpt>
      <trkpt lat="45.39102" lon="2.29058">
        <ele>596</ele>
        <time>2024-09-12T18:42:29+00:00</time>
      </trkpt>
      <trkpt lat="45.39112" lon="2.29023">
        <ele>594</ele>
        <time>2024-09-12T18:42:32+00:00</time>
      </trkpt>
      <trkpt lat="45.39133" lon="2.2899">
        <ele>593</ele>
        <time>2024-09-12T18:42:35+00:00</time>
      </trkpt>
      <trkpt lat="45.39137" lon="2.28964">
        <ele>593</ele>
        <time>2024-09-12T18:42:38+00:00</time>
      </trkpt>
      <trkpt lat="45.39156" lon="2.28927">
        <ele>599</ele>
        <time>2024-09-12T18:42:41+00:00</time>
      </trkpt>
      <trkpt lat="45.39185" lon="2.28889">
        <ele>600</ele>
        <time>2024-09-12T18:42:44+00:00</time>
      </trkpt>
      <trkpt lat="45.39187" lon="2.28853">
        <ele>601</ele>
        <time>2024-09-12T18:42:47+00:00</time>
      </trkpt>
      <trkpt lat="45.39189" lon="2.28814">
        <ele>600</ele>
        <time>2024-09-12T18:42:50+00:00</time>
      </trkpt>
      <trkpt lat="45.39194" lon="2.2877">
        <ele>600</ele>
        <time>2024-09-12T18:42:53+00:00</time>
      </trkpt>
      <trkpt lat="45.39221" lon="2.28744">
        <ele>598</ele>
        <time>2024-09-12T18:42:56+00:00</time>
      </trkpt>
      <trkpt lat="45.39249" lon="2.28737">
        <ele>597</ele>
        <time>2024-09-12T18:42:59+00:00</time>
      </trkpt>
      <trkpt lat="45.39315" lon="2.28723">
        <ele>595</ele>
        <time>2024-09-12T18:43:02+00:00</time>
      </trkpt>
      <trkpt lat="45.39341" lon="2.28708">
        <ele>596</ele>
        <time>2024-09-12T18:43:05+00:00</time>
      </trkpt>
      <trkpt lat="45.39378" lon="2.28687">
        <ele>597</ele>
        <time>2024-09-12T18:43:08+00:00</time>
      </trkpt>
      <trkpt lat="45.39398" lon="2.28657">
        <ele>597</ele>
        <time>2024-09-12T18:43:11+00:00</time>
      </trkpt>
      <trkpt lat="45.39416" lon="2.2863">
        <ele>601</ele>
        <time>2024-09-12T18:43:14+00:00</time>
      </trkpt>
      <trkpt lat="45.39438" lon="2.28595">
        <ele>600</ele>
        <time>2024-09-12T18:43:17+00:00</time>
      </trkpt>
      <trkpt lat="45.39453" lon="2.28565">
        <ele>600</ele>
        <time>2024-09-12T18:43:20+00:00</time>
      </trkpt>
      <trkpt lat="45.39457" lon="2.28529">
        <ele>599</ele>
        <time>2024-09-12T18:43:23+00:00</time>
      </trkpt>
      <trkpt lat="45.39477" lon="2.2846">
        <ele>599</ele>
        <time>2024-09-12T18:43:26+00:00</time>
      </trkpt>
      <trkpt lat="45.39466" lon="2.28435">
        <ele>599</ele>
        <time>2024-09-12T18:43:29+00:00</time>
      </trkpt>
      <trkpt lat="45.39439" lon="2.28453">
        <ele>608</ele>
        <time>2024-09-12T18:43:32+00:00</time>
      </trkpt>
      <trkpt lat="45.39392" lon="2.28485">
        <ele>619</ele>
        <time>2024-09-12T18:43:35+00:00</time>
      </trkpt>
      <trkpt lat="45.39353" lon="2.2851">
        <ele>618</ele>
        <time>2024-09-12T18:43:38+00:00</time>
      </trkpt>
      <trkpt lat="45.39326" lon="2.28524">
        <ele>618</ele>
        <time>2024-09-12T18:43:41+00:00</time>
      </trkpt>
      <trkpt lat="45.39302" lon="2.28534">
        <ele>626</ele>
        <time>2024-09-12T18:43:44+00:00</time>
      </trkpt>
      <trkpt lat="45.39278" lon="2.28543">
        <ele>629</ele>
        <time>2024-09-12T18:43:47+00:00</time>
      </trkpt>
      <trkpt lat="45.39252" lon="2.28552">
        <ele>630</ele>
        <time>2024-09-12T18:43:50+00:00</time>
      </trkpt>
      <trkpt lat="45.39226" lon="2.2855">
        <ele>631</ele>
        <time>2024-09-12T18:43:53+00:00</time>
      </trkpt>
      <trkpt lat="45.39186" lon="2.28544">
        <ele>637</ele>
        <time>2024-09-12T18:43:56+00:00</time>
      </trkpt>
      <trkpt lat="45.39167" lon="2.28526">
        <ele>637</ele>
        <time>2024-09-12T18:43:59+00:00</time>
      </trkpt>
      <trkpt lat="45.39183" lon="2.28484">
        <ele>641</ele>
        <time>2024-09-12T18:44:02+00:00</time>
      </trkpt>
      <trkpt lat="45.39186" lon="2.28449">
        <ele>639</ele>
        <time>2024-09-12T18:44:05+00:00</time>
      </trkpt>
      <trkpt lat="45.39149" lon="2.28415">
        <ele>641</ele>
        <time>2024-09-12T18:44:08+00:00</time>
      </trkpt>
      <trkpt lat="45.39166" lon="2.28361">
        <ele>644</ele>
        <time>2024-09-12T18:44:11+00:00</time>
      </trkpt>
      <trkpt lat="45.39191" lon="2.28314">
        <ele>643</ele>
        <time>2024-09-12T18:44:14+00:00</time>
      </trkpt>
      <trkpt lat="45.39201" lon="2.28279">
        <ele>643</ele>
        <time>2024-09-12T18:44:17+00:00</time>
      </trkpt>
      <trkpt lat="45.39186" lon="2.28234">
        <ele>644</ele>
        <time>2024-09-12T18:44:20+00:00</time>
      </trkpt>
      <trkpt lat="45.39164" lon="2.28217">
        <ele>644</ele>
        <time>2024-09-12T18:44:23+00:00</time>
      </trkpt>
      <trkpt lat="45.39139" lon="2.28217">
        <ele>644</ele>
        <time>2024-09-12T18:44:26+00:00</time>
      </trkpt>
      <trkpt lat="45.39113" lon="2.28217">
        <ele>644</ele>
        <time>2024-09-12T18:44:29+00:00</time>
      </trkpt>
      <trkpt lat="45.39066" lon="2.28221">
        <ele>641</ele>
        <time>2024-09-12T18:44:32+00:00</time>
      </trkpt>
      <trkpt lat="45.39058" lon="2.28278">
        <ele>641</ele>
        <time>2024-09-12T18:44:35+00:00</time>
      </trkpt>
      <trkpt lat="45.39054" lon="2.28323">
        <ele>641</ele>
        <time>2024-09-12T18:44:38+00:00</time>
      </trkpt>
      <trkpt lat="45.39043" lon="2.28356">
        <ele>641</ele>
        <time>2024-09-12T18:44:41+00:00</time>
      </trkpt>
      <trkpt lat="45.39036" lon="2.28382">
        <ele>641</ele>
        <time>2024-09-12T18:44:44+00:00</time>
      </trkpt>
      <trkpt lat="45.39041" lon="2.28409">
        <ele>641</ele>
        <time>2024-09-12T18:44:47+00:00</time>
      </trkpt>
      <trkpt lat="45.39034" lon="2.28408">
        <ele>641</ele>
        <time>2024-09-12T18:44:50+00:00</time>
      </trkpt>
      <trkpt lat="45.39015" lon="2.28389">
        <ele>641</ele>
        <time>2024-09-12T18:44:53+00:00</time>
      </trkpt>
      <trkpt lat="45.38991" lon="2.28376">
        <ele>642</ele>
        <time>2024-09-12T18:44:56+00:00</time>
      </trkpt>
      <trkpt lat="45.38971" lon="2.28376">
        <ele>640</ele>
        <time>2024-09-12T18:44:59+00:00</time>
      </trkpt>
      <trkpt lat="45.38946" lon="2.28389">
        <ele>642</ele>
        <time>2024-09-12T18:45:02+00:00</time>
      </trkpt>
      <trkpt lat="45.38901" lon="2.28373">
        <ele>642</ele>
        <time>2024-09-12T18:45:05+00:00</time>
      </trkpt>
      <trkpt lat="45.38878" lon="2.28357">
        <ele>638</ele>
        <time>2024-09-12T18:45:08+00:00</time>
      </trkpt>
      <trkpt lat="45.38847" lon="2.28336">
        <ele>635</ele>
        <time>2024-09-12T18:45:11+00:00</time>
      </trkpt>
      <trkpt lat="45.38824" lon="2.2835">
        <ele>635</ele>
        <time>2024-09-12T18:45:14+00:00</time>
      </trkpt>
      <trkpt lat="45.38798" lon="2.28372">
        <ele>636</ele>
        <time>2024-09-12T18:45:17+00:00</time>
      </trkpt>
      <trkpt lat="45.38763" lon="2.2836">
        <ele>638</ele>
        <time>2024-09-12T18:45:20+00:00</time>
      </trkpt>
      <trkpt lat="45.38747" lon="2.28337">
        <ele>637</ele>
        <time>2024-09-12T18:45:23+00:00</time>
      </trkpt>
      <trkpt lat="45.38728" lon="2.28297">
        <ele>637</ele>
        <time>2024-09-12T18:45:26+00:00</time>
      </trkpt>
      <trkpt lat="45.38693" lon="2.28281">
        <ele>633</ele>
        <time>2024-09-12T18:45:29+00:00</time>
      </trkpt>
      <trkpt lat="45.38674" lon="2.28282">
        <ele>632</ele>
        <time>2024-09-12T18:45:32+00:00</time>
      </trkpt>
      <trkpt lat="45.38681" lon="2.2831">
        <ele>628</ele>
        <time>2024-09-12T18:45:35+00:00</time>
      </trkpt>
      <trkpt lat="45.38666" lon="2.2833">
        <ele>624</ele>
        <time>2024-09-12T18:45:38+00:00</time>
      </trkpt>
      <trkpt lat="45.38641" lon="2.28325">
        <ele>625</ele>
        <time>2024-09-12T18:45:41+00:00</time>
      </trkpt>
      <trkpt lat="45.38608" lon="2.2833">
        <ele>627</ele>
        <time>2024-09-12T18:45:44+00:00</time>
      </trkpt>
      <trkpt lat="45.38563" lon="2.28341">
        <ele>644</ele>
        <time>2024-09-12T18:45:47+00:00</time>
      </trkpt>
      <trkpt lat="45.38532" lon="2.28344">
        <ele>642</ele>
        <time>2024-09-12T18:45:50+00:00</time>
      </trkpt>
      <trkpt lat="45.385" lon="2.2836">
        <ele>640</ele>
        <time>2024-09-12T18:45:53+00:00</time>
      </trkpt>
      <trkpt lat="45.38472" lon="2.28372">
        <ele>636</ele>
        <time>2024-09-12T18:45:56+00:00</time>
      </trkpt>
      <trkpt lat="45.38446" lon="2.28377">
        <ele>634</ele>
        <time>2024-09-12T18:45:59+00:00</time>
      </trkpt>
      <trkpt lat="45.38425" lon="2.28384">
        <ele>629</ele>
        <time>2024-09-12T18:46:02+00:00</time>
      </trkpt>
      <trkpt lat="45.38403" lon="2.28418">
        <ele>629</ele>
        <time>2024-09-12T18:46:05+00:00</time>
      </trkpt>
      <trkpt lat="45.38383" lon="2.28461">
        <ele>637</ele>
        <time>2024-09-12T18:46:08+00:00</time>
      </trkpt>
      <trkpt lat="45.38382" lon="2.28498">
        <ele>640</ele>
        <time>2024-09-12T18:46:11+00:00</time>
      </trkpt>
      <trkpt lat="45.38383" lon="2.2855">
        <ele>646</ele>
        <time>2024-09-12T18:46:14+00:00</time>
      </trkpt>
      <trkpt lat="45.38385" lon="2.2859">
        <ele>650</ele>
        <time>2024-09-12T18:46:17+00:00</time>
      </trkpt>
      <trkpt lat="45.38395" lon="2.2865">
        <ele>659</ele>
        <time>2024-09-12T18:46:20+00:00</time>
      </trkpt>
      <trkpt lat="45.38385" lon="2.28691">
        <ele>660</ele>
        <time>2024-09-12T18:46:23+00:00</time>
      </trkpt>
      <trkpt lat="45.38371" lon="2.28738">
        <ele>662</ele>
        <time>2024-09-12T18:46:26+00:00</time>
      </trkpt>
      <trkpt lat="45.38359" lon="2.28767">
        <ele>662</ele>
        <time>2024-09-12T18:46:29+00:00</time>
      </trkpt>
      <trkpt lat="45.38304" lon="2.28748">
        <ele>655</ele>
        <time>2024-09-12T18:46:32+00:00</time>
      </trkpt>
      <trkpt lat="45.38285" lon="2.28749">
        <ele>649</ele>
        <time>2024-09-12T18:46:35+00:00</time>
      </trkpt>
      <trkpt lat="45.38251" lon="2.28774">
        <ele>647</ele>
        <time>2024-09-12T18:46:38+00:00</time>
      </trkpt>
      <trkpt lat="45.38227" lon="2.28808">
        <ele>647</ele>
        <time>2024-09-12T18:46:41+00:00</time>
      </trkpt>
      <trkpt lat="45.38212" lon="2.28836">
        <ele>644</ele>
        <time>2024-09-12T18:46:44+00:00</time>
      </trkpt>
      <trkpt lat="45.38196" lon="2.28865">
        <ele>641</ele>
        <time>2024-09-12T18:46:47+00:00</time>
      </trkpt>
      <trkpt lat="45.38166" lon="2.28829">
        <ele>640</ele>
        <time>2024-09-12T18:46:50+00:00</time>
      </trkpt>
      <trkpt lat="45.3818" lon="2.28791">
        <ele>640</ele>
        <time>2024-09-12T18:46:53+00:00</time>
      </trkpt>
      <trkpt lat="45.38203" lon="2.28727">
        <ele>639</ele>
        <time>2024-09-12T18:46:56+00:00</time>
      </trkpt>
      <trkpt lat="45.38179" lon="2.28705">
        <ele>641</ele>
        <time>2024-09-12T18:46:59+00:00</time>
      </trkpt>
      <trkpt lat="45.38141" lon="2.28669">
        <ele>643</ele>
        <time>2024-09-12T18:47:02+00:00</time>
      </trkpt>
      <trkpt lat="45.38114" lon="2.28702">
        <ele>647</ele>
        <time>2024-09-12T18:47:05+00:00</time>
      </trkpt>
      <trkpt lat="45.38093" lon="2.28719">
        <ele>647</ele>
        <time>2024-09-12T18:47:08+00:00</time>
      </trkpt>
      <trkpt lat="45.38072" lon="2.28737">
        <ele>647</ele>
        <time>2024-09-12T18:47:11+00:00</time>
      </trkpt>
      <trkpt lat="45.38043" lon="2.28755">
        <ele>640</ele>
        <time>2024-09-12T18:47:14+00:00</time>
      </trkpt>
      <trkpt lat="45.38013" lon="2.28774">
        <ele>640</ele>
        <time>2024-09-12T18:47:17+00:00</time>
      </trkpt>
      <trkpt lat="45.3798" lon="2.28796">
        <ele>641</ele>
        <time>2024-09-12T18:47:20+00:00</time>
      </trkpt>
      <trkpt lat="45.37947" lon="2.28811">
        <ele>641</ele>
        <time>2024-09-12T18:47:23+00:00</time>
      </trkpt>
      <trkpt lat="45.37914" lon="2.28826">
        <ele>641</ele>
        <time>2024-09-12T18:47:26+00:00</time>
      </trkpt>
      <trkpt lat="45.37856" lon="2.28854">
        <ele>638</ele>
        <time>2024-09-12T18:47:29+00:00</time>
      </trkpt>
      <trkpt lat="45.37825" lon="2.28889">
        <ele>636</ele>
        <time>2024-09-12T18:47:32+00:00</time>
      </trkpt>
      <trkpt lat="45.37803" lon="2.28904">
        <ele>635</ele>
        <time>2024-09-12T18:47:35+00:00</time>
      </trkpt>
      <trkpt lat="45.3778" lon="2.28901">
        <ele>635</ele>
        <time>2024-09-12T18:47:38+00:00</time>
      </trkpt>
      <trkpt lat="45.37755" lon="2.28884">
        <ele>635</ele>
        <time>2024-09-12T18:47:41+00:00</time>
      </trkpt>
      <trkpt lat="45.37715" lon="2.28858">
        <ele>629</ele>
        <time>2024-09-12T18:47:44+00:00</time>
      </trkpt>
      <trkpt lat="45.37673" lon="2.28847">
        <ele>624</ele>
        <time>2024-09-12T18:47:47+00:00</time>
      </trkpt>
      <trkpt lat="45.37654" lon="2.28812">
        <ele>620</ele>
        <time>2024-09-12T18:47:50+00:00</time>
      </trkpt>
      <trkpt lat="45.3763" lon="2.28857">
        <ele>618</ele>
        <time>2024-09-12T18:47:53+00:00</time>
      </trkpt>
      <trkpt lat="45.37603" lon="2.28887">
        <ele>614</ele>
        <time>2024-09-12T18:47:56+00:00</time>
      </trkpt>
      <trkpt lat="45.37574" lon="2.28907">
        <ele>611</ele>
        <time>2024-09-12T18:47:59+00:00</time>
      </trkpt>
      <trkpt lat="45.37549" lon="2.28915">
        <ele>611</ele>
        <time>2024-09-12T18:48:02+00:00</time>
      </trkpt>
      <trkpt lat="45.37516" lon="2.28914">
        <ele>612</ele>
        <time>2024-09-12T18:48:05+00:00</time>
      </trkpt>
      <trkpt lat="45.37494" lon="2.28914">
        <ele>612</ele>
        <time>2024-09-12T18:48:08+00:00</time>
      </trkpt>
      <trkpt lat="45.37462" lon="2.28917">
        <ele>613</ele>
        <time>2024-09-12T18:48:11+00:00</time>
      </trkpt>
      <trkpt lat="45.37431" lon="2.2892">
        <ele>612</ele>
        <time>2024-09-12T18:48:14+00:00</time>
      </trkpt>
      <trkpt lat="45.37397" lon="2.28923">
        <ele>613</ele>
        <time>2024-09-12T18:48:17+00:00</time>
      </trkpt>
      <trkpt lat="45.37366" lon="2.28941">
        <ele>614</ele>
        <time>2024-09-12T18:48:20+00:00</time>
      </trkpt>
      <trkpt lat="45.3733" lon="2.28957">
        <ele>614</ele>
        <time>2024-09-12T18:48:23+00:00</time>
      </trkpt>
      <trkpt lat="45.37309" lon="2.28971">
        <ele>614</ele>
        <time>2024-09-12T18:48:26+00:00</time>
      </trkpt>
      <trkpt lat="45.37293" lon="2.28995">
        <ele>614</ele>
        <time>2024-09-12T18:48:29+00:00</time>
      </trkpt>
      <trkpt lat="45.37273" lon="2.29013">
        <ele>614</ele>
        <time>2024-09-12T18:48:32+00:00</time>
      </trkpt>
      <trkpt lat="45.37253" lon="2.29031">
        <ele>617</ele>
        <time>2024-09-12T18:48:35+00:00</time>
      </trkpt>
      <trkpt lat="45.37228" lon="2.29082">
        <ele>622</ele>
        <time>2024-09-12T18:48:38+00:00</time>
      </trkpt>
      <trkpt lat="45.37217" lon="2.29107">
        <ele>619</ele>
        <time>2024-09-12T18:48:41+00:00</time>
      </trkpt>
      <trkpt lat="45.37199" lon="2.29132">
        <ele>617</ele>
        <time>2024-09-12T18:48:44+00:00</time>
      </trkpt>
      <trkpt lat="45.37165" lon="2.29159">
        <ele>617</ele>
        <time>2024-09-12T18:48:47+00:00</time>
      </trkpt>
      <trkpt lat="45.3713" lon="2.29183">
        <ele>618</ele>
        <time>2024-09-12T18:48:50+00:00</time>
      </trkpt>
      <trkpt lat="45.37095" lon="2.29194">
        <ele>619</ele>
        <time>2024-09-12T18:48:53+00:00</time>
      </trkpt>
      <trkpt lat="45.37062" lon="2.29191">
        <ele>620</ele>
        <time>2024-09-12T18:48:56+00:00</time>
      </trkpt>
      <trkpt lat="45.37036" lon="2.29184">
        <ele>622</ele>
        <time>2024-09-12T18:48:59+00:00</time>
      </trkpt>
      <trkpt lat="45.37003" lon="2.29176">
        <ele>622</ele>
        <time>2024-09-12T18:49:02+00:00</time>
      </trkpt>
      <trkpt lat="45.36961" lon="2.29167">
        <ele>620</ele>
        <time>2024-09-12T18:49:05+00:00</time>
      </trkpt>
      <trkpt lat="45.36936" lon="2.29166">
        <ele>619</ele>
        <time>2024-09-12T18:49:08+00:00</time>
      </trkpt>
      <trkpt lat="45.36905" lon="2.2917">
        <ele>619</ele>
        <time>2024-09-12T18:49:11+00:00</time>
      </trkpt>
      <trkpt lat="45.36875" lon="2.29177">
        <ele>618</ele>
        <time>2024-09-12T18:49:14+00:00</time>
      </trkpt>
      <trkpt lat="45.36848" lon="2.29193">
        <ele>618</ele>
        <time>2024-09-12T18:49:17+00:00</time>
      </trkpt>
      <trkpt lat="45.36832" lon="2.2921">
        <ele>618</ele>
        <time>2024-09-12T18:49:20+00:00</time>
      </trkpt>
      <trkpt lat="45.36769" lon="2.29241">
        <ele>596</ele>
        <time>2024-09-12T18:49:23+00:00</time>
      </trkpt>
      <trkpt lat="45.36744" lon="2.29245">
        <ele>596</ele>
        <time>2024-09-12T18:49:26+00:00</time>
      </trkpt>
      <trkpt lat="45.36716" lon="2.2925">
        <ele>595</ele>
        <time>2024-09-12T18:49:29+00:00</time>
      </trkpt>
      <trkpt lat="45.36691" lon="2.29264">
        <ele>594</ele>
        <time>2024-09-12T18:49:32+00:00</time>
      </trkpt>
      <trkpt lat="45.36654" lon="2.29285">
        <ele>590</ele>
        <time>2024-09-12T18:49:35+00:00</time>
      </trkpt>
      <trkpt lat="45.36614" lon="2.29261">
        <ele>586</ele>
        <time>2024-09-12T18:49:38+00:00</time>
      </trkpt>
      <trkpt lat="45.36576" lon="2.29246">
        <ele>582</ele>
        <time>2024-09-12T18:49:41+00:00</time>
      </trkpt>
      <trkpt lat="45.36529" lon="2.29251">
        <ele>567</ele>
        <time>2024-09-12T18:49:44+00:00</time>
      </trkpt>
      <trkpt lat="45.36495" lon="2.29243">
        <ele>554</ele>
        <time>2024-09-12T18:49:47+00:00</time>
      </trkpt>
      <trkpt lat="45.36476" lon="2.29234">
        <ele>545</ele>
        <time>2024-09-12T18:49:50+00:00</time>
      </trkpt>
      <trkpt lat="45.36472" lon="2.29198">
        <ele>542</ele>
        <time>2024-09-12T18:49:53+00:00</time>
      </trkpt>
      <trkpt lat="45.36486" lon="2.29175">
        <ele>538</ele>
        <time>2024-09-12T18:49:56+00:00</time>
      </trkpt>
      <trkpt lat="45.36518" lon="2.29131">
        <ele>541</ele>
        <time>2024-09-12T18:49:59+00:00</time>
      </trkpt>
      <trkpt lat="45.36563" lon="2.29105">
        <ele>545</ele>
        <time>2024-09-12T18:50:02+00:00</time>
      </trkpt>
      <trkpt lat="45.3654" lon="2.29094">
        <ele>545</ele>
        <time>2024-09-12T18:50:05+00:00</time>
      </trkpt>
      <trkpt lat="45.36515" lon="2.291">
        <ele>536</ele>
        <time>2024-09-12T18:50:08+00:00</time>
      </trkpt>
      <trkpt lat="45.36474" lon="2.29104">
        <ele>534</ele>
        <time>2024-09-12T18:50:11+00:00</time>
      </trkpt>
      <trkpt lat="45.3645" lon="2.29098">
        <ele>533</ele>
        <time>2024-09-12T18:50:14+00:00</time>
      </trkpt>
      <trkpt lat="45.3643" lon="2.29093">
        <ele>532</ele>
        <time>2024-09-12T18:50:17+00:00</time>
      </trkpt>
      <trkpt lat="45.36408" lon="2.29092">
        <ele>529</ele>
        <time>2024-09-12T18:50:20+00:00</time>
      </trkpt>
      <trkpt lat="45.3639" lon="2.29085">
        <ele>529</ele>
        <time>2024-09-12T18:50:23+00:00</time>
      </trkpt>
      <trkpt lat="45.36372" lon="2.29077">
        <ele>531</ele>
        <time>2024-09-12T18:50:26+00:00</time>
      </trkpt>
      <trkpt lat="45.36355" lon="2.29049">
        <ele>533</ele>
        <time>2024-09-12T18:50:29+00:00</time>
      </trkpt>
      <trkpt lat="45.36297" lon="2.29003">
        <ele>537</ele>
        <time>2024-09-12T18:50:32+00:00</time>
      </trkpt>
      <trkpt lat="45.36254" lon="2.28978">
        <ele>539</ele>
        <time>2024-09-12T18:50:35+00:00</time>
      </trkpt>
      <trkpt lat="45.36229" lon="2.2897">
        <ele>538</ele>
        <time>2024-09-12T18:50:38+00:00</time>
      </trkpt>
      <trkpt lat="45.36211" lon="2.2896">
        <ele>538</ele>
        <time>2024-09-12T18:50:41+00:00</time>
      </trkpt>
      <trkpt lat="45.36196" lon="2.29">
        <ele>532</ele>
        <time>2024-09-12T18:50:44+00:00</time>
      </trkpt>
      <trkpt lat="45.36172" lon="2.29052">
        <ele>527</ele>
        <time>2024-09-12T18:50:47+00:00</time>
      </trkpt>
      <trkpt lat="45.36143" lon="2.29083">
        <ele>527</ele>
        <time>2024-09-12T18:50:50+00:00</time>
      </trkpt>
      <trkpt lat="45.36111" lon="2.29109">
        <ele>519</ele>
        <time>2024-09-12T18:50:53+00:00</time>
      </trkpt>
      <trkpt lat="45.36079" lon="2.29128">
        <ele>509</ele>
        <time>2024-09-12T18:50:56+00:00</time>
      </trkpt>
      <trkpt lat="45.36049" lon="2.29142">
        <ele>506</ele>
        <time>2024-09-12T18:50:59+00:00</time>
      </trkpt>
      <trkpt lat="45.36034" lon="2.29169">
        <ele>508</ele>
        <time>2024-09-12T18:51:02+00:00</time>
      </trkpt>
      <trkpt lat="45.36011" lon="2.29116">
        <ele>510</ele>
        <time>2024-09-12T18:51:05+00:00</time>
      </trkpt>
      <trkpt lat="45.35992" lon="2.29088">
        <ele>518</ele>
        <time>2024-09-12T18:51:08+00:00</time>
      </trkpt>
      <trkpt lat="45.35955" lon="2.2904">
        <ele>518</ele>
        <time>2024-09-12T18:51:11+00:00</time>
      </trkpt>
      <trkpt lat="45.35987" lon="2.28969">
        <ele>518</ele>
        <time>2024-09-12T18:51:14+00:00</time>
      </trkpt>
      <trkpt lat="45.35997" lon="2.28927">
        <ele>515</ele>
        <time>2024-09-12T18:51:17+00:00</time>
      </trkpt>
      <trkpt lat="45.35993" lon="2.2888">
        <ele>515</ele>
        <time>2024-09-12T18:51:20+00:00</time>
      </trkpt>
      <trkpt lat="45.36003" lon="2.28854">
        <ele>518</ele>
        <time>2024-09-12T18:51:23+00:00</time>
      </trkpt>
      <trkpt lat="45.36031" lon="2.2882">
        <ele>519</ele>
        <time>2024-09-12T18:51:26+00:00</time>
      </trkpt>
      <trkpt lat="45.36012" lon="2.28806">
        <ele>520</ele>
        <time>2024-09-12T18:51:29+00:00</time>
      </trkpt>
      <trkpt lat="45.3599" lon="2.28797">
        <ele>526</ele>
        <time>2024-09-12T18:51:32+00:00</time>
      </trkpt>
      <trkpt lat="45.35971" lon="2.28799">
        <ele>537</ele>
        <time>2024-09-12T18:51:35+00:00</time>
      </trkpt>
      <trkpt lat="45.35954" lon="2.28826">
        <ele>538</ele>
        <time>2024-09-12T18:51:38+00:00</time>
      </trkpt>
      <trkpt lat="45.35935" lon="2.28856">
        <ele>538</ele>
        <time>2024-09-12T18:51:41+00:00</time>
      </trkpt>
      <trkpt lat="45.35933" lon="2.28822">
        <ele>546</ele>
        <time>2024-09-12T18:51:44+00:00</time>
      </trkpt>
      <trkpt lat="45.35921" lon="2.28774">
        <ele>552</ele>
        <time>2024-09-12T18:51:47+00:00</time>
      </trkpt>
      <trkpt lat="45.35902" lon="2.28741">
        <ele>559</ele>
        <time>2024-09-12T18:51:50+00:00</time>
      </trkpt>
      <trkpt lat="45.35871" lon="2.28706">
        <ele>566</ele>
        <time>2024-09-12T18:51:53+00:00</time>
      </trkpt>
      <trkpt lat="45.35849" lon="2.28683">
        <ele>568</ele>
        <time>2024-09-12T18:51:56+00:00</time>
      </trkpt>
      <trkpt lat="45.35844" lon="2.2864">
        <ele>569</ele>
        <time>2024-09-12T18:51:59+00:00</time>
      </trkpt>
      <trkpt lat="45.35858" lon="2.28611">
        <ele>566</ele>
        <time>2024-09-12T18:52:02+00:00</time>
      </trkpt>
      <trkpt lat="45.35881" lon="2.28623">
        <ele>563</ele>
        <time>2024-09-12T18:52:05+00:00</time>
      </trkpt>
      <trkpt lat="45.35913" lon="2.28663">
        <ele>558</ele>
        <time>2024-09-12T18:52:08+00:00</time>
      </trkpt>
      <trkpt lat="45.35943" lon="2.28686">
        <ele>555</ele>
        <time>2024-09-12T18:52:11+00:00</time>
      </trkpt>
      <trkpt lat="45.35979" lon="2.28681">
        <ele>549</ele>
        <time>2024-09-12T18:52:14+00:00</time>
      </trkpt>
      <trkpt lat="45.35998" lon="2.28662">
        <ele>555</ele>
        <time>2024-09-12T18:52:17+00:00</time>
      </trkpt>
      <trkpt lat="45.36" lon="2.28619">
        <ele>555</ele>
        <time>2024-09-12T18:52:20+00:00</time>
      </trkpt>
      <trkpt lat="45.36038" lon="2.28593">
        <ele>556</ele>
        <time>2024-09-12T18:52:23+00:00</time>
      </trkpt>
      <trkpt lat="45.36014" lon="2.28535">
        <ele>563</ele>
        <time>2024-09-12T18:52:26+00:00</time>
      </trkpt>
      <trkpt lat="45.36023" lon="2.2849">
        <ele>570</ele>
        <time>2024-09-12T18:52:29+00:00</time>
      </trkpt>
      <trkpt lat="45.36027" lon="2.28438">
        <ele>587</ele>
        <time>2024-09-12T18:52:32+00:00</time>
      </trkpt>
      <trkpt lat="45.36027" lon="2.28401">
        <ele>589</ele>
        <time>2024-09-12T18:52:35+00:00</time>
      </trkpt>
      <trkpt lat="45.36024" lon="2.28365">
        <ele>589</ele>
        <time>2024-09-12T18:52:38+00:00</time>
      </trkpt>
      <trkpt lat="45.36055" lon="2.2834">
        <ele>587</ele>
        <time>2024-09-12T18:52:41+00:00</time>
      </trkpt>
      <trkpt lat="45.36071" lon="2.28304">
        <ele>587</ele>
        <time>2024-09-12T18:52:44+00:00</time>
      </trkpt>
      <trkpt lat="45.36071" lon="2.2827">
        <ele>587</ele>
        <time>2024-09-12T18:52:47+00:00</time>
      </trkpt>
      <trkpt lat="45.36049" lon="2.28231">
        <ele>591</ele>
        <time>2024-09-12T18:52:50+00:00</time>
      </trkpt>
      <trkpt lat="45.36021" lon="2.28184">
        <ele>595</ele>
        <time>2024-09-12T18:52:53+00:00</time>
      </trkpt>
      <trkpt lat="45.36006" lon="2.28157">
        <ele>595</ele>
        <time>2024-09-12T18:52:56+00:00</time>
      </trkpt>
      <trkpt lat="45.35991" lon="2.28128">
        <ele>594</ele>
        <time>2024-09-12T18:52:59+00:00</time>
      </trkpt>
      <trkpt lat="45.35975" lon="2.28074">
        <ele>594</ele>
        <time>2024-09-12T18:53:02+00:00</time>
      </trkpt>
      <trkpt lat="45.35963" lon="2.28053">
        <ele>597</ele>
        <time>2024-09-12T18:53:05+00:00</time>
      </trkpt>
      <trkpt lat="45.35912" lon="2.28033">
        <ele>600</ele>
        <time>2024-09-12T18:53:08+00:00</time>
      </trkpt>
      <trkpt lat="45.35892" lon="2.28017">
        <ele>602</ele>
        <time>2024-09-12T18:53:11+00:00</time>
      </trkpt>
      <trkpt lat="45.35875" lon="2.27993">
        <ele>605</ele>
        <time>2024-09-12T18:53:14+00:00</time>
      </trkpt>
      <trkpt lat="45.35859" lon="2.27968">
        <ele>602</ele>
        <time>2024-09-12T18:53:17+00:00</time>
      </trkpt>
      <trkpt lat="45.35834" lon="2.27935">
        <ele>600</ele>
        <time>2024-09-12T18:53:20+00:00</time>
      </trkpt>
      <trkpt lat="45.35814" lon="2.27917">
        <ele>595</ele>
        <time>2024-09-12T18:53:23+00:00</time>
      </trkpt>
      <trkpt lat="45.35794" lon="2.2791">
        <ele>591</ele>
        <time>2024-09-12T18:53:26+00:00</time>
      </trkpt>
      <trkpt lat="45.3577" lon="2.27908">
        <ele>591</ele>
        <time>2024-09-12T18:53:29+00:00</time>
      </trkpt>
      <trkpt lat="45.35764" lon="2.2793">
        <ele>594</ele>
        <time>2024-09-12T18:53:32+00:00</time>
      </trkpt>
      <trkpt lat="45.35751" lon="2.27966">
        <ele>596</ele>
        <time>2024-09-12T18:53:35+00:00</time>
      </trkpt>
      <trkpt lat="45.3574" lon="2.28001">
        <ele>598</ele>
        <time>2024-09-12T18:53:38+00:00</time>
      </trkpt>
      <trkpt lat="45.3574" lon="2.28047">
        <ele>598</ele>
        <time>2024-09-12T18:53:41+00:00</time>
      </trkpt>
      <trkpt lat="45.35728" lon="2.28084">
        <ele>598</ele>
        <time>2024-09-12T18:53:44+00:00</time>
      </trkpt>
      <trkpt lat="45.35694" lon="2.28125">
        <ele>598</ele>
        <time>2024-09-12T18:53:47+00:00</time>
      </trkpt>
      <trkpt lat="45.35672" lon="2.28155">
        <ele>595</ele>
        <time>2024-09-12T18:53:50+00:00</time>
      </trkpt>
      <trkpt lat="45.35634" lon="2.28208">
        <ele>593</ele>
        <time>2024-09-12T18:53:53+00:00</time>
      </trkpt>
      <trkpt lat="45.35615" lon="2.28238">
        <ele>583</ele>
        <time>2024-09-12T18:53:56+00:00</time>
      </trkpt>
      <trkpt lat="45.35587" lon="2.28283">
        <ele>572</ele>
        <time>2024-09-12T18:53:59+00:00</time>
      </trkpt>
      <trkpt lat="45.3557" lon="2.28312">
        <ele>569</ele>
        <time>2024-09-12T18:54:02+00:00</time>
      </trkpt>
      <trkpt lat="45.35546" lon="2.28352">
        <ele>567</ele>
        <time>2024-09-12T18:54:05+00:00</time>
      </trkpt>
      <trkpt lat="45.35517" lon="2.28396">
        <ele>567</ele>
        <time>2024-09-12T18:54:08+00:00</time>
      </trkpt>
      <trkpt lat="45.35545" lon="2.28405">
        <ele>567</ele>
        <time>2024-09-12T18:54:11+00:00</time>
      </trkpt>
      <trkpt lat="45.35573" lon="2.28409">
        <ele>570</ele>
        <time>2024-09-12T18:54:14+00:00</time>
      </trkpt>
      <trkpt lat="45.35599" lon="2.28439">
        <ele>570</ele>
        <time>2024-09-12T18:54:17+00:00</time>
      </trkpt>
      <trkpt lat="45.35612" lon="2.28469">
        <ele>573</ele>
        <time>2024-09-12T18:54:20+00:00</time>
      </trkpt>
      <trkpt lat="45.35625" lon="2.285">
        <ele>573</ele>
        <time>2024-09-12T18:54:23+00:00</time>
      </trkpt>
      <trkpt lat="45.35641" lon="2.28534">
        <ele>575</ele>
        <time>2024-09-12T18:54:26+00:00</time>
      </trkpt>
      <trkpt lat="45.35663" lon="2.28582">
        <ele>574</ele>
        <time>2024-09-12T18:54:29+00:00</time>
      </trkpt>
      <trkpt lat="45.35678" lon="2.28612">
        <ele>573</ele>
        <time>2024-09-12T18:54:32+00:00</time>
      </trkpt>
      <trkpt lat="45.35699" lon="2.28635">
        <ele>573</ele>
        <time>2024-09-12T18:54:35+00:00</time>
      </trkpt>
      <trkpt lat="45.35724" lon="2.28662">
        <ele>572</ele>
        <time>2024-09-12T18:54:38+00:00</time>
      </trkpt>
      <trkpt lat="45.35749" lon="2.28683">
        <ele>569</ele>
        <time>2024-09-12T18:54:41+00:00</time>
      </trkpt>
      <trkpt lat="45.35786" lon="2.28716">
        <ele>570</ele>
        <time>2024-09-12T18:54:44+00:00</time>
      </trkpt>
      <trkpt lat="45.35803" lon="2.28754">
        <ele>563</ele>
        <time>2024-09-12T18:54:47+00:00</time>
      </trkpt>
      <trkpt lat="45.35837" lon="2.28828">
        <ele>557</ele>
        <time>2024-09-12T18:54:50+00:00</time>
      </trkpt>
      <trkpt lat="45.35764" lon="2.2883">
        <ele>552</ele>
        <time>2024-09-12T18:54:53+00:00</time>
      </trkpt>
      <trkpt lat="45.35782" lon="2.28859">
        <ele>548</ele>
        <time>2024-09-12T18:54:56+00:00</time>
      </trkpt>
      <trkpt lat="45.35806" lon="2.28897">
        <ele>545</ele>
        <time>2024-09-12T18:54:59+00:00</time>
      </trkpt>
      <trkpt lat="45.35777" lon="2.28891">
        <ele>542</ele>
        <time>2024-09-12T18:55:02+00:00</time>
      </trkpt>
      <trkpt lat="45.35726" lon="2.2888">
        <ele>540</ele>
        <time>2024-09-12T18:55:05+00:00</time>
      </trkpt>
      <trkpt lat="45.35751" lon="2.28909">
        <ele>538</ele>
        <time>2024-09-12T18:55:08+00:00</time>
      </trkpt>
      <trkpt lat="45.35777" lon="2.28938">
        <ele>533</ele>
        <time>2024-09-12T18:55:11+00:00</time>
      </trkpt>
      <trkpt lat="45.35806" lon="2.28972">
        <ele>523</ele>
        <time>2024-09-12T18:55:14+00:00</time>
      </trkpt>
      <trkpt lat="45.35772" lon="2.28969">
        <ele>514</ele>
        <time>2024-09-12T18:55:17+00:00</time>
      </trkpt>
      <trkpt lat="45.35787" lon="2.28996">
        <ele>510</ele>
        <time>2024-09-12T18:55:20+00:00</time>
      </trkpt>
      <trkpt lat="45.35803" lon="2.29026">
        <ele>510</ele>
        <time>2024-09-12T18:55:23+00:00</time>
      </trkpt>
      <trkpt lat="45.35828" lon="2.29046">
        <ele>507</ele>
        <time>2024-09-12T18:55:26+00:00</time>
      </trkpt>
      <trkpt lat="45.35865" lon="2.29077">
        <ele>507</ele>
        <time>2024-09-12T18:55:29+00:00</time>
      </trkpt>
      <trkpt lat="45.35892" lon="2.29089">
        <ele>505</ele>
        <time>2024-09-12T18:55:32+00:00</time>
      </trkpt>
      <trkpt lat="45.35914" lon="2.29116">
        <ele>506</ele>
        <time>2024-09-12T18:55:35+00:00</time>
      </trkpt>
      <trkpt lat="45.35946" lon="2.29158">
        <ele>504</ele>
        <time>2024-09-12T18:55:38+00:00</time>
      </trkpt>
      <trkpt lat="45.35962" lon="2.29186">
        <ele>505</ele>
        <time>2024-09-12T18:55:41+00:00</time>
      </trkpt>
      <trkpt lat="45.3598" lon="2.29218">
        <ele>507</ele>
        <time>2024-09-12T18:55:44+00:00</time>
      </trkpt>
      <trkpt lat="45.36" lon="2.29257">
        <ele>508</ele>
        <time>2024-09-12T18:55:47+00:00</time>
      </trkpt>
      <trkpt lat="45.36036" lon="2.29285">
        <ele>508</ele>
        <time>2024-09-12T18:55:50+00:00</time>
      </trkpt>
      <trkpt lat="45.36072" lon="2.29283">
        <ele>505</ele>
        <time>2024-09-12T18:55:53+00:00</time>
      </trkpt>
      <trkpt lat="45.36114" lon="2.29263">
        <ele>506</ele>
        <time>2024-09-12T18:55:56+00:00</time>
      </trkpt>
      <trkpt lat="45.36146" lon="2.29238">
        <ele>507</ele>
        <time>2024-09-12T18:55:59+00:00</time>
      </trkpt>
      <trkpt lat="45.36178" lon="2.29214">
        <ele>514</ele>
        <time>2024-09-12T18:56:02+00:00</time>
      </trkpt>
      <trkpt lat="45.3621" lon="2.29189">
        <ele>514</ele>
        <time>2024-09-12T18:56:05+00:00</time>
      </trkpt>
      <trkpt lat="45.36249" lon="2.29159">
        <ele>515</ele>
        <time>2024-09-12T18:56:08+00:00</time>
      </trkpt>
      <trkpt lat="45.36273" lon="2.29163">
        <ele>516</ele>
        <time>2024-09-12T18:56:11+00:00</time>
      </trkpt>
      <trkpt lat="45.363" lon="2.29168">
        <ele>516</ele>
        <time>2024-09-12T18:56:14+00:00</time>
      </trkpt>
      <trkpt lat="45.36326" lon="2.29192">
        <ele>515</ele>
        <time>2024-09-12T18:56:17+00:00</time>
      </trkpt>
      <trkpt lat="45.36337" lon="2.29182">
        <ele>515</ele>
        <time>2024-09-12T18:56:20+00:00</time>
      </trkpt>
      <trkpt lat="45.36365" lon="2.29223">
        <ele>519</ele>
        <time>2024-09-12T18:56:23+00:00</time>
      </trkpt>
      <trkpt lat="45.36385" lon="2.29258">
        <ele>522</ele>
        <time>2024-09-12T18:56:26+00:00</time>
      </trkpt>
      <trkpt lat="45.3641" lon="2.29296">
        <ele>525</ele>
        <time>2024-09-12T18:56:29+00:00</time>
      </trkpt>
      <trkpt lat="45.36437" lon="2.29329">
        <ele>525</ele>
        <time>2024-09-12T18:56:32+00:00</time>
      </trkpt>
      <trkpt lat="45.36463" lon="2.29356">
        <ele>529</ele>
        <time>2024-09-12T18:56:35+00:00</time>
      </trkpt>
      <trkpt lat="45.36486" lon="2.29387">
        <ele>529</ele>
        <time>2024-09-12T18:56:38+00:00</time>
      </trkpt>
      <trkpt lat="45.36502" lon="2.29426">
        <ele>532</ele>
        <time>2024-09-12T18:56:41+00:00</time>
      </trkpt>
      <trkpt lat="45.36517" lon="2.29466">
        <ele>534</ele>
        <time>2024-09-12T18:56:44+00:00</time>
      </trkpt>
      <trkpt lat="45.36533" lon="2.29507">
        <ele>533</ele>
        <time>2024-09-12T18:56:47+00:00</time>
      </trkpt>
      <trkpt lat="45.36566" lon="2.29506">
        <ele>534</ele>
        <time>2024-09-12T18:56:50+00:00</time>
      </trkpt>
      <trkpt lat="45.36598" lon="2.29504">
        <ele>536</ele>
        <time>2024-09-12T18:56:53+00:00</time>
      </trkpt>
      <trkpt lat="45.36641" lon="2.29502">
        <ele>553</ele>
        <time>2024-09-12T18:56:56+00:00</time>
      </trkpt>
      <trkpt lat="45.36639" lon="2.29466">
        <ele>560</ele>
        <time>2024-09-12T18:56:59+00:00</time>
      </trkpt>
      <trkpt lat="45.36636" lon="2.29423">
        <ele>570</ele>
        <time>2024-09-12T18:57:02+00:00</time>
      </trkpt>
      <trkpt lat="45.36676" lon="2.29447">
        <ele>580</ele>
        <time>2024-09-12T18:57:05+00:00</time>
      </trkpt>
      <trkpt lat="45.36697" lon="2.29474">
        <ele>583</ele>
        <time>2024-09-12T18:57:08+00:00</time>
      </trkpt>
      <trkpt lat="45.36729" lon="2.29513">
        <ele>583</ele>
        <time>2024-09-12T18:57:11+00:00</time>
      </trkpt>
      <trkpt lat="45.36758" lon="2.29533">
        <ele>584</ele>
        <time>2024-09-12T18:57:14+00:00</time>
      </trkpt>
      <trkpt lat="45.36781" lon="2.29546">
        <ele>583</ele>
        <time>2024-09-12T18:57:17+00:00</time>
      </trkpt>
      <trkpt lat="45.36806" lon="2.2956">
        <ele>582</ele>
        <time>2024-09-12T18:57:20+00:00</time>
      </trkpt>
      <trkpt lat="45.36836" lon="2.29591">
        <ele>579</ele>
        <time>2024-09-12T18:57:23+00:00</time>
      </trkpt>
      <trkpt lat="45.36864" lon="2.2958">
        <ele>583</ele>
        <time>2024-09-12T18:57:26+00:00</time>
      </trkpt>
      <trkpt lat="45.369" lon="2.29559">
        <ele>587</ele>
        <time>2024-09-12T18:57:29+00:00</time>
      </trkpt>
      <trkpt lat="45.36937" lon="2.29545">
        <ele>586</ele>
        <time>2024-09-12T18:57:32+00:00</time>
      </trkpt>
      <trkpt lat="45.36963" lon="2.29522">
        <ele>586</ele>
        <time>2024-09-12T18:57:35+00:00</time>
      </trkpt>
      <trkpt lat="45.37001" lon="2.29506">
        <ele>586</ele>
        <time>2024-09-12T18:57:38+00:00</time>
      </trkpt>
      <trkpt lat="45.3703" lon="2.29501">
        <ele>584</ele>
        <time>2024-09-12T18:57:41+00:00</time>
      </trkpt>
      <trkpt lat="45.3708" lon="2.29492">
        <ele>583</ele>
        <time>2024-09-12T18:57:44+00:00</time>
      </trkpt>
      <trkpt lat="45.37104" lon="2.29493">
        <ele>583</ele>
        <time>2024-09-12T18:57:47+00:00</time>
      </trkpt>
      <trkpt lat="45.37128" lon="2.29494">
        <ele>583</ele>
        <time>2024-09-12T18:57:50+00:00</time>
      </trkpt>
      <trkpt lat="45.37154" lon="2.29497">
        <ele>584</ele>
        <time>2024-09-12T18:57:53+00:00</time>
      </trkpt>
      <trkpt lat="45.37184" lon="2.29501">
        <ele>589</ele>
        <time>2024-09-12T18:57:56+00:00</time>
      </trkpt>
      <trkpt lat="45.37207" lon="2.2951">
        <ele>589</ele>
        <time>2024-09-12T18:57:59+00:00</time>
      </trkpt>
      <trkpt lat="45.37232" lon="2.29521">
        <ele>587</ele>
        <time>2024-09-12T18:58:02+00:00</time>
      </trkpt>
      <trkpt lat="45.37254" lon="2.29553">
        <ele>585</ele>
        <time>2024-09-12T18:58:05+00:00</time>
      </trkpt>
      <trkpt lat="45.37252" lon="2.29589">
        <ele>584</ele>
        <time>2024-09-12T18:58:08+00:00</time>
      </trkpt>
      <trkpt lat="45.37239" lon="2.29654">
        <ele>583</ele>
        <time>2024-09-12T18:58:11+00:00</time>
      </trkpt>
      <trkpt lat="45.37257" lon="2.29687">
        <ele>584</ele>
        <time>2024-09-12T18:58:14+00:00</time>
      </trkpt>
      <trkpt lat="45.37284" lon="2.29739">
        <ele>585</ele>
        <time>2024-09-12T18:58:17+00:00</time>
      </trkpt>
      <trkpt lat="45.37301" lon="2.2977">
        <ele>590</ele>
        <time>2024-09-12T18:58:20+00:00</time>
      </trkpt>
      <trkpt lat="45.37324" lon="2.29813">
        <ele>598</ele>
        <time>2024-09-12T18:58:23+00:00</time>
      </trkpt>
      <trkpt lat="45.37362" lon="2.29838">
        <ele>595</ele>
        <time>2024-09-12T18:58:26+00:00</time>
      </trkpt>
      <trkpt lat="45.37383" lon="2.29859">
        <ele>593</ele>
        <time>2024-09-12T18:58:29+00:00</time>
      </trkpt>
      <trkpt lat="45.37409" lon="2.29884">
        <ele>583</ele>
        <time>2024-09-12T18:58:32+00:00</time>
      </trkpt>
      <trkpt lat="45.37437" lon="2.29888">
        <ele>582</ele>
        <time>2024-09-12T18:58:35+00:00</time>
      </trkpt>
      <trkpt lat="45.37477" lon="2.29894">
        <ele>584</ele>
        <time>2024-09-12T18:58:38+00:00</time>
      </trkpt>
      <trkpt lat="45.37489" lon="2.29864">
        <ele>587</ele>
        <time>2024-09-12T18:58:41+00:00</time>
      </trkpt>
      <trkpt lat="45.37521" lon="2.29832">
        <ele>589</ele>
        <time>2024-09-12T18:58:44+00:00</time>
      </trkpt>
      <trkpt lat="45.37477" lon="2.29826">
        <ele>591</ele>
        <time>2024-09-12T18:58:47+00:00</time>
      </trkpt>
      <trkpt lat="45.37433" lon="2.29817">
        <ele>599</ele>
        <time>2024-09-12T18:58:50+00:00</time>
      </trkpt>
      <trkpt lat="45.37409" lon="2.29791">
        <ele>598</ele>
        <time>2024-09-12T18:58:53+00:00</time>
      </trkpt>
      <trkpt lat="45.37439" lon="2.29696">
        <ele>599</ele>
        <time>2024-09-12T18:58:56+00:00</time>
      </trkpt>
      <trkpt lat="45.37456" lon="2.29665">
        <ele>598</ele>
        <time>2024-09-12T18:58:59+00:00</time>
      </trkpt>
      <trkpt lat="45.37479" lon="2.29624">
        <ele>598</ele>
        <time>2024-09-12T18:59:02+00:00</time>
      </trkpt>
      <trkpt lat="45.37503" lon="2.29583">
        <ele>599</ele>
        <time>2024-09-12T18:59:05+00:00</time>
      </trkpt>
      <trkpt lat="45.37526" lon="2.29543">
        <ele>608</ele>
        <time>2024-09-12T18:59:08+00:00</time>
      </trkpt>
      <trkpt lat="45.3755" lon="2.29502">
        <ele>604</ele>
        <time>2024-09-12T18:59:11+00:00</time>
      </trkpt>
      <trkpt lat="45.37589" lon="2.29437">
        <ele>603</ele>
        <time>2024-09-12T18:59:14+00:00</time>
      </trkpt>
      <trkpt lat="45.37622" lon="2.29441">
        <ele>604</ele>
        <time>2024-09-12T18:59:17+00:00</time>
      </trkpt>
      <trkpt lat="45.37649" lon="2.29427">
        <ele>605</ele>
        <time>2024-09-12T18:59:20+00:00</time>
      </trkpt>
      <trkpt lat="45.37657" lon="2.29397">
        <ele>604</ele>
        <time>2024-09-12T18:59:23+00:00</time>
      </trkpt>
      <trkpt lat="45.37674" lon="2.29383">
        <ele>604</ele>
        <time>2024-09-12T18:59:26+00:00</time>
      </trkpt>
      <trkpt lat="45.37698" lon="2.29382">
        <ele>604</ele>
        <time>2024-09-12T18:59:29+00:00</time>
      </trkpt>
      <trkpt lat="45.37717" lon="2.29416">
        <ele>604</ele>
        <time>2024-09-12T18:59:32+00:00</time>
      </trkpt>
      <trkpt lat="45.37727" lon="2.29446">
        <ele>607</ele>
        <time>2024-09-12T18:59:35+00:00</time>
      </trkpt>
      <trkpt lat="45.3774" lon="2.29473">
        <ele>607</ele>
        <time>2024-09-12T18:59:38+00:00</time>
      </trkpt>
      <trkpt lat="45.3776" lon="2.29503">
        <ele>603</ele>
        <time>2024-09-12T18:59:41+00:00</time>
      </trkpt>
      <trkpt lat="45.37781" lon="2.29528">
        <ele>600</ele>
        <time>2024-09-12T18:59:44+00:00</time>
      </trkpt>
      <trkpt lat="45.37813" lon="2.2952">
        <ele>598</ele>
        <time>2024-09-12T18:59:47+00:00</time>
      </trkpt>
      <trkpt lat="45.37835" lon="2.29503">
        <ele>598</ele>
        <time>2024-09-12T18:59:50+00:00</time>
      </trkpt>
      <trkpt lat="45.37862" lon="2.295">
        <ele>598</ele>
        <time>2024-09-12T18:59:53+00:00</time>
      </trkpt>
      <trkpt lat="45.37882" lon="2.29516">
        <ele>597</ele>
        <time>2024-09-12T18:59:56+00:00</time>
      </trkpt>
      <trkpt lat="45.37892" lon="2.29543">
        <ele>597</ele>
        <time>2024-09-12T18:59:59+00:00</time>
      </trkpt>
      <trkpt lat="45.37898" lon="2.2957">
        <ele>597</ele>
        <time>2024-09-12T19:00:02+00:00</time>
      </trkpt>
      <trkpt lat="45.37914" lon="2.29597">
        <ele>597</ele>
        <time>2024-09-12T19:00:05+00:00</time>
      </trkpt>
      <trkpt lat="45.37935" lon="2.29604">
        <ele>596</ele>
        <time>2024-09-12T19:00:08+00:00</time>
      </trkpt>
      <trkpt lat="45.37973" lon="2.29607">
        <ele>593</ele>
        <time>2024-09-12T19:00:11+00:00</time>
      </trkpt>
      <trkpt lat="45.38009" lon="2.29603">
        <ele>593</ele>
        <time>2024-09-12T19:00:14+00:00</time>
      </trkpt>
      <trkpt lat="45.38033" lon="2.29586">
        <ele>594</ele>
        <time>2024-09-12T19:00:17+00:00</time>
      </trkpt>
      <trkpt lat="45.38046" lon="2.29563">
        <ele>597</ele>
        <time>2024-09-12T19:00:20+00:00</time>
      </trkpt>
      <trkpt lat="45.38047" lon="2.29524">
        <ele>598</ele>
        <time>2024-09-12T19:00:23+00:00</time>
      </trkpt>
      <trkpt lat="45.38051" lon="2.29496">
        <ele>599</ele>
        <time>2024-09-12T19:00:26+00:00</time>
      </trkpt>
      <trkpt lat="45.38065" lon="2.29474">
        <ele>600</ele>
        <time>2024-09-12T19:00:29+00:00</time>
      </trkpt>
      <trkpt lat="45.38102" lon="2.29452">
        <ele>606</ele>
        <time>2024-09-12T19:00:32+00:00</time>
      </trkpt>
      <trkpt lat="45.38122" lon="2.29455">
        <ele>606</ele>
        <time>2024-09-12T19:00:35+00:00</time>
      </trkpt>
      <trkpt lat="45.38155" lon="2.29478">
        <ele>603</ele>
        <time>2024-09-12T19:00:38+00:00</time>
      </trkpt>
      <trkpt lat="45.38174" lon="2.29495">
        <ele>601</ele>
        <time>2024-09-12T19:00:41+00:00</time>
      </trkpt>
      <trkpt lat="45.38187" lon="2.29533">
        <ele>597</ele>
        <time>2024-09-12T19:00:44+00:00</time>
      </trkpt>
      <trkpt lat="45.38201" lon="2.29559">
        <ele>600</ele>
        <time>2024-09-12T19:00:47+00:00</time>
      </trkpt>
      <trkpt lat="45.38252" lon="2.29572">
        <ele>604</ele>
        <time>2024-09-12T19:00:50+00:00</time>
      </trkpt>
      <trkpt lat="45.38274" lon="2.29596">
        <ele>604</ele>
        <time>2024-09-12T19:00:53+00:00</time>
      </trkpt>
      <trkpt lat="45.38291" lon="2.29618">
        <ele>604</ele>
        <time>2024-09-12T19:00:56+00:00</time>
      </trkpt>
      <trkpt lat="45.38315" lon="2.29642">
        <ele>598</ele>
        <time>2024-09-12T19:00:59+00:00</time>
      </trkpt>
      <trkpt lat="45.38353" lon="2.29624">
        <ele>598</ele>
        <time>2024-09-12T19:01:02+00:00</time>
      </trkpt>
      <trkpt lat="45.3837" lon="2.29601">
        <ele>598</ele>
        <time>2024-09-12T19:01:05+00:00</time>
      </trkpt>
      <trkpt lat="45.38399" lon="2.29585">
        <ele>598</ele>
        <time>2024-09-12T19:01:08+00:00</time>
      </trkpt>
      <trkpt lat="45.38432" lon="2.29568">
        <ele>595</ele>
        <time>2024-09-12T19:01:11+00:00</time>
      </trkpt>
      <trkpt lat="45.38465" lon="2.29547">
        <ele>593</ele>
        <time>2024-09-12T19:01:14+00:00</time>
      </trkpt>
      <trkpt lat="45.38499" lon="2.29522">
        <ele>593</ele>
        <time>2024-09-12T19:01:17+00:00</time>
      </trkpt>
      <trkpt lat="45.38523" lon="2.29499">
        <ele>598</ele>
        <time>2024-09-12T19:01:20+00:00</time>
      </trkpt>
      <trkpt lat="45.38543" lon="2.29453">
        <ele>603</ele>
        <time>2024-09-12T19:01:23+00:00</time>
      </trkpt>
      <trkpt lat="45.38547" lon="2.29393">
        <ele>607</ele>
        <time>2024-09-12T19:01:26+00:00</time>
      </trkpt>
      <trkpt lat="45.38533" lon="2.29363">
        <ele>608</ele>
        <time>2024-09-12T19:01:29+00:00</time>
      </trkpt>
      <trkpt lat="45.38517" lon="2.29327">
        <ele>611</ele>
        <time>2024-09-12T19:01:32+00:00</time>
      </trkpt>
      <trkpt lat="45.38494" lon="2.29305">
        <ele>609</ele>
        <time>2024-09-12T19:01:35+00:00</time>
      </trkpt>
      <trkpt lat="45.38463" lon="2.29273">
        <ele>607</ele>
        <time>2024-09-12T19:01:38+00:00</time>
      </trkpt>
      <trkpt lat="45.38461" lon="2.29239">
        <ele>608</ele>
        <time>2024-09-12T19:01:41+00:00</time>
      </trkpt>
      <trkpt lat="45.38472" lon="2.29208">
        <ele>609</ele>
        <time>2024-09-12T19:01:44+00:00</time>
      </trkpt>
      <trkpt lat="45.385" lon="2.29205">
        <ele>608</ele>
        <time>2024-09-12T19:01:47+00:00</time>
      </trkpt>
      <trkpt lat="45.38541" lon="2.29225">
        <ele>607</ele>
        <time>2024-09-12T19:01:50+00:00</time>
      </trkpt>
      <trkpt lat="45.3857" lon="2.29231">
        <ele>599</ele>
        <time>2024-09-12T19:01:53+00:00</time>
      </trkpt>
      <trkpt lat="45.38618" lon="2.29241">
        <ele>596</ele>
        <time>2024-09-12T19:01:56+00:00</time>
      </trkpt>
      <trkpt lat="45.3863" lon="2.29216">
        <ele>594</ele>
        <time>2024-09-12T19:01:59+00:00</time>
      </trkpt>
      <trkpt lat="45.38624" lon="2.29191">
        <ele>596</ele>
        <time>2024-09-12T19:02:02+00:00</time>
      </trkpt>
      <trkpt lat="45.38638" lon="2.29169">
        <ele>595</ele>
        <time>2024-09-12T19:02:05+00:00</time>
      </trkpt>
      <trkpt lat="45.3866" lon="2.29142">
        <ele>595</ele>
        <time>2024-09-12T19:02:08+00:00</time>
      </trkpt>
      <trkpt lat="45.38685" lon="2.29116">
        <ele>594</ele>
        <time>2024-09-12T19:02:11+00:00</time>
      </trkpt>
      <trkpt lat="45.38707" lon="2.29101">
        <ele>597</ele>
        <time>2024-09-12T19:02:14+00:00</time>
      </trkpt>
      <trkpt lat="45.38739" lon="2.29062">
        <ele>601</ele>
        <time>2024-09-12T19:02:17+00:00</time>
      </trkpt>
      <trkpt lat="45.38744" lon="2.29074">
        <ele>602</ele>
        <time>2024-09-12T19:02:20+00:00</time>
      </trkpt>
      <trkpt lat="45.38769" lon="2.29079">
        <ele>602</ele>
        <time>2024-09-12T19:02:23+00:00</time>
      </trkpt>
      <trkpt lat="45.38797" lon="2.29085">
        <ele>602</ele>
        <time>2024-09-12T19:02:26+00:00</time>
      </trkpt>
      <trkpt lat="45.38822" lon="2.2911">
        <ele>602</ele>
        <time>2024-09-12T19:02:29+00:00</time>
      </trkpt>
      <trkpt lat="45.38839" lon="2.29155">
        <ele>602</ele>
        <time>2024-09-12T19:02:32+00:00</time>
      </trkpt>
      <trkpt lat="45.38914" lon="2.29202">
        <ele>589</ele>
        <time>2024-09-12T19:02:35+00:00</time>
      </trkpt>
      <trkpt lat="45.38925" lon="2.29224">
        <ele>588</ele>
        <time>2024-09-12T19:02:38+00:00</time>
      </trkpt>
      <trkpt lat="45.38925" lon="2.29262">
        <ele>589</ele>
        <time>2024-09-12T19:02:41+00:00</time>
      </trkpt>
      <trkpt lat="45.38925" lon="2.2931">
        <ele>589</ele>
        <time>2024-09-12T19:02:44+00:00</time>
      </trkpt>
      <trkpt lat="45.38966" lon="2.29285">
        <ele>590</ele>
        <time>2024-09-12T19:02:47+00:00</time>
      </trkpt>
      <trkpt lat="45.38984" lon="2.29245">
        <ele>590</ele>
        <time>2024-09-12T19:02:50+00:00</time>
      </trkpt>
      <trkpt lat="45.39011" lon="2.29212">
        <ele>592</ele>
        <time>2024-09-12T19:02:53+00:00</time>
      </trkpt>
      <trkpt lat="45.3899" lon="2.29238">
        <ele>592</ele>
        <time>2024-09-12T19:02:56+00:00</time>
      </trkpt>
    </trkseg>
  </trk>
  <trk>
    <name><![CDATA[Marche La Neuvicoise 2024 sur TraceDeTrail.fr]]></name>
    <extensions>
      <line xmlns="http://www.topografix.com/GPX/gpx_style/0/2">
        <color>00FFFF</color>
        <width>4</width>
      </line>
    </extensions>
    <trkseg>
      <trkpt lat="45.38961" lon="2.29289">
        <ele>590</ele>
        <time>2024-09-13T04:56:23+00:00</time>
      </trkpt>
      <trkpt lat="45.38972" lon="2.29266">
        <ele>590</ele>
        <time>2024-09-13T04:56:26+00:00</time>
      </trkpt>
      <trkpt lat="45.38984" lon="2.29245">
        <ele>590</ele>
        <time>2024-09-13T04:56:29+00:00</time>
      </trkpt>
      <trkpt lat="45.39017" lon="2.29204">
        <ele>597</ele>
        <time>2024-09-13T04:56:32+00:00</time>
      </trkpt>
      <trkpt lat="45.39067" lon="2.29174">
        <ele>596</ele>
        <time>2024-09-13T04:56:35+00:00</time>
      </trkpt>
      <trkpt lat="45.39089" lon="2.29165">
        <ele>597</ele>
        <time>2024-09-13T04:56:38+00:00</time>
      </trkpt>
      <trkpt lat="45.391" lon="2.2909">
        <ele>596</ele>
        <time>2024-09-13T04:56:41+00:00</time>
      </trkpt>
      <trkpt lat="45.39102" lon="2.29058">
        <ele>596</ele>
        <time>2024-09-13T04:56:44+00:00</time>
      </trkpt>
      <trkpt lat="45.39112" lon="2.29023">
        <ele>594</ele>
        <time>2024-09-13T04:56:47+00:00</time>
      </trkpt>
      <trkpt lat="45.39133" lon="2.2899">
        <ele>593</ele>
        <time>2024-09-13T04:56:50+00:00</time>
      </trkpt>
      <trkpt lat="45.39137" lon="2.28964">
        <ele>593</ele>
        <time>2024-09-13T04:56:53+00:00</time>
      </trkpt>
      <trkpt lat="45.39156" lon="2.28927">
        <ele>599</ele>
        <time>2024-09-13T04:56:56+00:00</time>
      </trkpt>
      <trkpt lat="45.39185" lon="2.28889">
        <ele>600</ele>
        <time>2024-09-13T04:56:59+00:00</time>
      </trkpt>
      <trkpt lat="45.39187" lon="2.28853">
        <ele>601</ele>
        <time>2024-09-13T04:57:02+00:00</time>
      </trkpt>
      <trkpt lat="45.39189" lon="2.28814">
        <ele>600</ele>
        <time>2024-09-13T04:57:05+00:00</time>
      </trkpt>
      <trkpt lat="45.39194" lon="2.2877">
        <ele>600</ele>
        <time>2024-09-13T04:57:08+00:00</time>
      </trkpt>
      <trkpt lat="45.39221" lon="2.28744">
        <ele>598</ele>
        <time>2024-09-13T04:57:11+00:00</time>
      </trkpt>
      <trkpt lat="45.39249" lon="2.28737">
        <ele>597</ele>
        <time>2024-09-13T04:57:14+00:00</time>
      </trkpt>
      <trkpt lat="45.39315" lon="2.28723">
        <ele>595</ele>
        <time>2024-09-13T04:57:17+00:00</time>
      </trkpt>
      <trkpt lat="45.39341" lon="2.28708">
        <ele>596</ele>
        <time>2024-09-13T04:57:20+00:00</time>
      </trkpt>
      <trkpt lat="45.39378" lon="2.28687">
        <ele>597</ele>
        <time>2024-09-13T04:57:23+00:00</time>
      </trkpt>
      <trkpt lat="45.39398" lon="2.28657">
        <ele>597</ele>
        <time>2024-09-13T04:57:26+00:00</time>
      </trkpt>
      <trkpt lat="45.39416" lon="2.2863">
        <ele>601</ele>
        <time>2024-09-13T04:57:29+00:00</time>
      </trkpt>
      <trkpt lat="45.39438" lon="2.28595">
        <ele>600</ele>
        <time>2024-09-13T04:57:32+00:00</time>
      </trkpt>
      <trkpt lat="45.39453" lon="2.28565">
        <ele>600</ele>
        <time>2024-09-13T04:57:35+00:00</time>
      </trkpt>
      <trkpt lat="45.39457" lon="2.28529">
        <ele>599</ele>
        <time>2024-09-13T04:57:38+00:00</time>
      </trkpt>
      <trkpt lat="45.39477" lon="2.2846">
        <ele>599</ele>
        <time>2024-09-13T04:57:41+00:00</time>
      </trkpt>
      <trkpt lat="45.39466" lon="2.28435">
        <ele>599</ele>
        <time>2024-09-13T04:57:44+00:00</time>
      </trkpt>
    </trkseg>
  </trk>
  <trk>
    <name><![CDATA[45 km Fournol Neuvicoise 2024 sur TraceDeTrail.fr]]></name>
    <extensions>
      <line xmlns="http://www.topografix.com/GPX/gpx_style/0/2">
        <color>ff7b00</color>
        <width>4</width>
      </line>
    </extensions>
    <trkseg>
      <trkpt lat="45.4212" lon="2.26271">
        <ele>609</ele>
        <time>2024-09-13T05:21:59+00:00</time>
      </trkpt>
      <trkpt lat="45.42096" lon="2.26237">
        <ele>610</ele>
        <time>2024-09-13T05:22:02+00:00</time>
      </trkpt>
      <trkpt lat="45.42079" lon="2.26195">
        <ele>610</ele>
        <time>2024-09-13T05:22:05+00:00</time>
      </trkpt>
      <trkpt lat="45.42053" lon="2.26162">
        <ele>613</ele>
        <time>2024-09-13T05:22:08+00:00</time>
      </trkpt>
      <trkpt lat="45.42029" lon="2.26136">
        <ele>617</ele>
        <time>2024-09-13T05:22:11+00:00</time>
      </trkpt>
      <trkpt lat="45.42005" lon="2.26104">
        <ele>624</ele>
        <time>2024-09-13T05:22:14+00:00</time>
      </trkpt>
      <trkpt lat="45.41985" lon="2.26087">
        <ele>625</ele>
        <time>2024-09-13T05:22:17+00:00</time>
      </trkpt>
      <trkpt lat="45.41961" lon="2.2605">
        <ele>624</ele>
        <time>2024-09-13T05:22:20+00:00</time>
      </trkpt>
      <trkpt lat="45.41941" lon="2.26034">
        <ele>624</ele>
        <time>2024-09-13T05:22:23+00:00</time>
      </trkpt>
      <trkpt lat="45.41921" lon="2.26003">
        <ele>624</ele>
        <time>2024-09-13T05:22:26+00:00</time>
      </trkpt>
      <trkpt lat="45.41872" lon="2.25972">
        <ele>626</ele>
        <time>2024-09-13T05:22:29+00:00</time>
      </trkpt>
      <trkpt lat="45.41849" lon="2.25965">
        <ele>626</ele>
        <time>2024-09-13T05:22:32+00:00</time>
      </trkpt>
      <trkpt lat="45.41825" lon="2.25955">
        <ele>626</ele>
        <time>2024-09-13T05:22:35+00:00</time>
      </trkpt>
      <trkpt lat="45.41792" lon="2.25937">
        <ele>627</ele>
        <time>2024-09-13T05:22:38+00:00</time>
      </trkpt>
      <trkpt lat="45.41777" lon="2.25916">
        <ele>627</ele>
        <time>2024-09-13T05:22:41+00:00</time>
      </trkpt>
      <trkpt lat="45.41769" lon="2.25887">
        <ele>625</ele>
        <time>2024-09-13T05:22:44+00:00</time>
      </trkpt>
      <trkpt lat="45.41752" lon="2.25843">
        <ele>624</ele>
        <time>2024-09-13T05:22:47+00:00</time>
      </trkpt>
      <trkpt lat="45.41745" lon="2.25817">
        <ele>623</ele>
        <time>2024-09-13T05:22:50+00:00</time>
      </trkpt>
      <trkpt lat="45.41746" lon="2.2575">
        <ele>622</ele>
        <time>2024-09-13T05:22:53+00:00</time>
      </trkpt>
      <trkpt lat="45.41749" lon="2.25721">
        <ele>622</ele>
        <time>2024-09-13T05:22:56+00:00</time>
      </trkpt>
      <trkpt lat="45.4174" lon="2.25682">
        <ele>623</ele>
        <time>2024-09-13T05:22:59+00:00</time>
      </trkpt>
      <trkpt lat="45.41746" lon="2.25621">
        <ele>631</ele>
        <time>2024-09-13T05:23:02+00:00</time>
      </trkpt>
      <trkpt lat="45.41744" lon="2.25565">
        <ele>632</ele>
        <time>2024-09-13T05:23:05+00:00</time>
      </trkpt>
      <trkpt lat="45.41741" lon="2.25534">
        <ele>632</ele>
        <time>2024-09-13T05:23:08+00:00</time>
      </trkpt>
      <trkpt lat="45.4175" lon="2.25501">
        <ele>632</ele>
        <time>2024-09-13T05:23:11+00:00</time>
      </trkpt>
      <trkpt lat="45.41772" lon="2.25479">
        <ele>633</ele>
        <time>2024-09-13T05:23:14+00:00</time>
      </trkpt>
      <trkpt lat="45.41782" lon="2.25451">
        <ele>633</ele>
        <time>2024-09-13T05:23:17+00:00</time>
      </trkpt>
      <trkpt lat="45.41782" lon="2.2541">
        <ele>633</ele>
        <time>2024-09-13T05:23:20+00:00</time>
      </trkpt>
      <trkpt lat="45.41771" lon="2.25361">
        <ele>633</ele>
        <time>2024-09-13T05:23:23+00:00</time>
      </trkpt>
      <trkpt lat="45.41757" lon="2.25311">
        <ele>633</ele>
        <time>2024-09-13T05:23:26+00:00</time>
      </trkpt>
      <trkpt lat="45.41752" lon="2.25268">
        <ele>625.3</ele>
        <time>2024-09-13T05:23:29+00:00</time>
      </trkpt>
      <trkpt lat="45.41747" lon="2.25209">
        <ele>624</ele>
        <time>2024-09-13T05:23:35+00:00</time>
      </trkpt>
      <trkpt lat="45.41759" lon="2.25182">
        <ele>630</ele>
        <time>2024-09-13T05:23:38+00:00</time>
      </trkpt>
      <trkpt lat="45.41783" lon="2.25171">
        <ele>630</ele>
        <time>2024-09-13T05:23:41+00:00</time>
      </trkpt>
      <trkpt lat="45.41778" lon="2.25108">
        <ele>627.2</ele>
        <time>2024-09-13T05:23:47+00:00</time>
      </trkpt>
      <trkpt lat="45.41782" lon="2.25031">
        <ele>631.4</ele>
        <time>2024-09-13T05:23:50+00:00</time>
      </trkpt>
      <trkpt lat="45.41794" lon="2.24976">
        <ele>628.6</ele>
        <time>2024-09-13T05:23:56+00:00</time>
      </trkpt>
      <trkpt lat="45.41884" lon="2.24979">
        <ele>636.5</ele>
        <time>2024-09-13T05:23:59+00:00</time>
      </trkpt>
      <trkpt lat="45.41902" lon="2.24972">
        <ele>637</ele>
        <time>2024-09-13T05:24:02+00:00</time>
      </trkpt>
      <trkpt lat="45.41913" lon="2.24927">
        <ele>637</ele>
        <time>2024-09-13T05:24:05+00:00</time>
      </trkpt>
      <trkpt lat="45.41923" lon="2.2488">
        <ele>638</ele>
        <time>2024-09-13T05:24:08+00:00</time>
      </trkpt>
      <trkpt lat="45.41918" lon="2.24829">
        <ele>639</ele>
        <time>2024-09-13T05:24:11+00:00</time>
      </trkpt>
      <trkpt lat="45.4192" lon="2.24796">
        <ele>643</ele>
        <time>2024-09-13T05:24:14+00:00</time>
      </trkpt>
      <trkpt lat="45.41921" lon="2.24762">
        <ele>646</ele>
        <time>2024-09-13T05:24:17+00:00</time>
      </trkpt>
      <trkpt lat="45.41922" lon="2.2472">
        <ele>649</ele>
        <time>2024-09-13T05:24:20+00:00</time>
      </trkpt>
      <trkpt lat="45.41922" lon="2.24675">
        <ele>652</ele>
        <time>2024-09-13T05:24:23+00:00</time>
      </trkpt>
      <trkpt lat="45.41903" lon="2.24613">
        <ele>654</ele>
        <time>2024-09-13T05:24:26+00:00</time>
      </trkpt>
      <trkpt lat="45.41893" lon="2.24583">
        <ele>651</ele>
        <time>2024-09-13T05:24:29+00:00</time>
      </trkpt>
      <trkpt lat="45.41877" lon="2.24544">
        <ele>649</ele>
        <time>2024-09-13T05:24:32+00:00</time>
      </trkpt>
      <trkpt lat="45.41858" lon="2.24508">
        <ele>644</ele>
        <time>2024-09-13T05:24:35+00:00</time>
      </trkpt>
      <trkpt lat="45.41849" lon="2.24469">
        <ele>641</ele>
        <time>2024-09-13T05:24:38+00:00</time>
      </trkpt>
      <trkpt lat="45.41836" lon="2.24409">
        <ele>639</ele>
        <time>2024-09-13T05:24:41+00:00</time>
      </trkpt>
      <trkpt lat="45.41832" lon="2.24374">
        <ele>634</ele>
        <time>2024-09-13T05:24:44+00:00</time>
      </trkpt>
      <trkpt lat="45.41821" lon="2.24322">
        <ele>632</ele>
        <time>2024-09-13T05:24:47+00:00</time>
      </trkpt>
      <trkpt lat="45.4183" lon="2.24282">
        <ele>632</ele>
        <time>2024-09-13T05:24:50+00:00</time>
      </trkpt>
      <trkpt lat="45.4186" lon="2.24237">
        <ele>633</ele>
        <time>2024-09-13T05:24:53+00:00</time>
      </trkpt>
      <trkpt lat="45.41875" lon="2.24185">
        <ele>637</ele>
        <time>2024-09-13T05:24:56+00:00</time>
      </trkpt>
      <trkpt lat="45.41925" lon="2.24143">
        <ele>633.5</ele>
        <time>2024-09-13T05:24:59+00:00</time>
      </trkpt>
      <trkpt lat="45.42003" lon="2.24102">
        <ele>636.7</ele>
        <time>2024-09-13T05:25:02+00:00</time>
      </trkpt>
      <trkpt lat="45.42002" lon="2.24032">
        <ele>639.2</ele>
        <time>2024-09-13T05:25:05+00:00</time>
      </trkpt>
      <trkpt lat="45.4197" lon="2.23957">
        <ele>638</ele>
        <time>2024-09-13T05:25:08+00:00</time>
      </trkpt>
      <trkpt lat="45.4195" lon="2.23903">
        <ele>639.1</ele>
      </trkpt>
      <trkpt lat="45.41912" lon="2.23881">
        <ele>648</ele>
        <time>2024-09-13T05:25:17+00:00</time>
      </trkpt>
      <trkpt lat="45.41885" lon="2.2384">
        <ele>647</ele>
        <time>2024-09-13T05:25:20+00:00</time>
      </trkpt>
      <trkpt lat="45.4185" lon="2.23807">
        <ele>646</ele>
        <time>2024-09-13T05:25:23+00:00</time>
      </trkpt>
      <trkpt lat="45.41811" lon="2.2379">
        <ele>645</ele>
        <time>2024-09-13T05:25:26+00:00</time>
      </trkpt>
      <trkpt lat="45.41767" lon="2.23779">
        <ele>645</ele>
        <time>2024-09-13T05:25:29+00:00</time>
      </trkpt>
      <trkpt lat="45.41728" lon="2.23758">
        <ele>645</ele>
        <time>2024-09-13T05:25:32+00:00</time>
      </trkpt>
      <trkpt lat="45.41688" lon="2.23738">
        <ele>638</ele>
        <time>2024-09-13T05:25:35+00:00</time>
      </trkpt>
      <trkpt lat="45.41662" lon="2.23724">
        <ele>638</ele>
        <time>2024-09-13T05:25:38+00:00</time>
      </trkpt>
      <trkpt lat="45.4162" lon="2.23717">
        <ele>652.5</ele>
        <time>2024-09-13T05:25:41+00:00</time>
      </trkpt>
      <trkpt lat="45.41649" lon="2.23687">
        <ele>635</ele>
        <time>2024-09-13T05:25:44+00:00</time>
      </trkpt>
      <trkpt lat="45.41675" lon="2.23667">
        <ele>635</ele>
        <time>2024-09-13T05:25:47+00:00</time>
      </trkpt>
      <trkpt lat="45.41717" lon="2.23636">
        <ele>635</ele>
        <time>2024-09-13T05:25:50+00:00</time>
      </trkpt>
      <trkpt lat="45.41751" lon="2.23617">
        <ele>635</ele>
        <time>2024-09-13T05:25:53+00:00</time>
      </trkpt>
      <trkpt lat="45.41785" lon="2.2359">
        <ele>635</ele>
        <time>2024-09-13T05:25:56+00:00</time>
      </trkpt>
      <trkpt lat="45.4181" lon="2.23567">
        <ele>635</ele>
        <time>2024-09-13T05:25:59+00:00</time>
      </trkpt>
      <trkpt lat="45.41828" lon="2.23544">
        <ele>637</ele>
        <time>2024-09-13T05:26:02+00:00</time>
      </trkpt>
      <trkpt lat="45.41846" lon="2.23522">
        <ele>637</ele>
        <time>2024-09-13T05:26:05+00:00</time>
      </trkpt>
      <trkpt lat="45.41858" lon="2.23489">
        <ele>637</ele>
        <time>2024-09-13T05:26:08+00:00</time>
      </trkpt>
      <trkpt lat="45.41859" lon="2.2346">
        <ele>638</ele>
        <time>2024-09-13T05:26:11+00:00</time>
      </trkpt>
      <trkpt lat="45.41856" lon="2.23423">
        <ele>640</ele>
        <time>2024-09-13T05:26:14+00:00</time>
      </trkpt>
      <trkpt lat="45.41853" lon="2.23382">
        <ele>642</ele>
        <time>2024-09-13T05:26:17+00:00</time>
      </trkpt>
      <trkpt lat="45.41849" lon="2.23338">
        <ele>644</ele>
        <time>2024-09-13T05:26:20+00:00</time>
      </trkpt>
      <trkpt lat="45.41838" lon="2.23271">
        <ele>653.8</ele>
        <time>2024-09-13T05:26:23+00:00</time>
      </trkpt>
      <trkpt lat="45.41799" lon="2.23278">
        <ele>651.3</ele>
        <time>2024-09-13T05:26:29+00:00</time>
      </trkpt>
      <trkpt lat="45.41763" lon="2.23247">
        <ele>649.5</ele>
      </trkpt>
      <trkpt lat="45.41745" lon="2.23202">
        <ele>648.6</ele>
      </trkpt>
      <trkpt lat="45.41612" lon="2.23237">
        <ele>644.5</ele>
        <time>2024-09-13T05:26:32+00:00</time>
      </trkpt>
      <trkpt lat="45.41526" lon="2.2328">
        <ele>645.8</ele>
        <time>2024-09-13T05:26:35+00:00</time>
      </trkpt>
      <trkpt lat="45.41489" lon="2.23271">
        <ele>647</ele>
        <time>2024-09-13T05:26:38+00:00</time>
      </trkpt>
      <trkpt lat="45.41471" lon="2.23175">
        <ele>645.2</ele>
        <time>2024-09-13T05:26:53+00:00</time>
      </trkpt>
      <trkpt lat="45.41441" lon="2.23162">
        <ele>639</ele>
        <time>2024-09-13T05:26:56+00:00</time>
      </trkpt>
      <trkpt lat="45.41417" lon="2.23155">
        <ele>640</ele>
        <time>2024-09-13T05:26:59+00:00</time>
      </trkpt>
      <trkpt lat="45.41391" lon="2.23148">
        <ele>641</ele>
        <time>2024-09-13T05:27:02+00:00</time>
      </trkpt>
      <trkpt lat="45.41361" lon="2.23136">
        <ele>643</ele>
        <time>2024-09-13T05:27:05+00:00</time>
      </trkpt>
      <trkpt lat="45.41334" lon="2.23126">
        <ele>643</ele>
        <time>2024-09-13T05:27:08+00:00</time>
      </trkpt>
      <trkpt lat="45.413" lon="2.23113">
        <ele>639</ele>
        <time>2024-09-13T05:27:11+00:00</time>
      </trkpt>
      <trkpt lat="45.41274" lon="2.23103">
        <ele>639</ele>
        <time>2024-09-13T05:27:14+00:00</time>
      </trkpt>
      <trkpt lat="45.41243" lon="2.23091">
        <ele>640</ele>
        <time>2024-09-13T05:27:17+00:00</time>
      </trkpt>
      <trkpt lat="45.41218" lon="2.23081">
        <ele>634</ele>
        <time>2024-09-13T05:27:20+00:00</time>
      </trkpt>
      <trkpt lat="45.4119" lon="2.23069">
        <ele>628</ele>
        <time>2024-09-13T05:27:23+00:00</time>
      </trkpt>
      <trkpt lat="45.41156" lon="2.23065">
        <ele>621</ele>
        <time>2024-09-13T05:27:26+00:00</time>
      </trkpt>
      <trkpt lat="45.41129" lon="2.23067">
        <ele>617</ele>
        <time>2024-09-13T05:27:29+00:00</time>
      </trkpt>
      <trkpt lat="45.41091" lon="2.2307">
        <ele>619</ele>
        <time>2024-09-13T05:27:32+00:00</time>
      </trkpt>
      <trkpt lat="45.41067" lon="2.23071">
        <ele>619</ele>
        <time>2024-09-13T05:27:35+00:00</time>
      </trkpt>
      <trkpt lat="45.41042" lon="2.23073">
        <ele>620</ele>
        <time>2024-09-13T05:27:38+00:00</time>
      </trkpt>
      <trkpt lat="45.41012" lon="2.23064">
        <ele>620</ele>
        <time>2024-09-13T05:27:41+00:00</time>
      </trkpt>
      <trkpt lat="45.40969" lon="2.23108">
        <ele>631.1</ele>
        <time>2024-09-13T05:27:44+00:00</time>
      </trkpt>
      <trkpt lat="45.40948" lon="2.23124">
        <ele>633.4</ele>
      </trkpt>
      <trkpt lat="45.40928" lon="2.23012">
        <ele>637.8</ele>
        <time>2024-09-13T05:27:47+00:00</time>
      </trkpt>
      <trkpt lat="45.40961" lon="2.2292">
        <ele>627</ele>
        <time>2024-09-13T05:27:53+00:00</time>
      </trkpt>
      <trkpt lat="45.40967" lon="2.22884">
        <ele>630</ele>
        <time>2024-09-13T05:27:56+00:00</time>
      </trkpt>
      <trkpt lat="45.40963" lon="2.22847">
        <ele>631</ele>
        <time>2024-09-13T05:27:59+00:00</time>
      </trkpt>
      <trkpt lat="45.40952" lon="2.22802">
        <ele>631</ele>
        <time>2024-09-13T05:28:02+00:00</time>
      </trkpt>
      <trkpt lat="45.40952" lon="2.22768">
        <ele>639.3</ele>
      </trkpt>
      <trkpt lat="45.41004" lon="2.22677">
        <ele>641.2</ele>
        <time>2024-09-13T05:28:14+00:00</time>
      </trkpt>
      <trkpt lat="45.4103" lon="2.22632">
        <ele>643.4</ele>
        <time>2024-09-13T05:28:17+00:00</time>
      </trkpt>
      <trkpt lat="45.41004" lon="2.22606">
        <ele>641.7</ele>
      </trkpt>
      <trkpt lat="45.40972" lon="2.22608">
        <ele>633</ele>
        <time>2024-09-13T05:28:20+00:00</time>
      </trkpt>
      <trkpt lat="45.40954" lon="2.22592">
        <ele>635</ele>
        <time>2024-09-13T05:28:23+00:00</time>
      </trkpt>
      <trkpt lat="45.40943" lon="2.22538">
        <ele>635</ele>
        <time>2024-09-13T05:28:26+00:00</time>
      </trkpt>
      <trkpt lat="45.40934" lon="2.22512">
        <ele>635</ele>
        <time>2024-09-13T05:28:29+00:00</time>
      </trkpt>
      <trkpt lat="45.40918" lon="2.2249">
        <ele>637</ele>
        <time>2024-09-13T05:28:32+00:00</time>
      </trkpt>
      <trkpt lat="45.40908" lon="2.22442">
        <ele>642</ele>
        <time>2024-09-13T05:28:35+00:00</time>
      </trkpt>
      <trkpt lat="45.40894" lon="2.22419">
        <ele>642</ele>
        <time>2024-09-13T05:28:38+00:00</time>
      </trkpt>
      <trkpt lat="45.40825" lon="2.22406">
        <ele>635</ele>
        <time>2024-09-13T05:28:41+00:00</time>
      </trkpt>
      <trkpt lat="45.40791" lon="2.22384">
        <ele>636</ele>
        <time>2024-09-13T05:28:44+00:00</time>
      </trkpt>
      <trkpt lat="45.40771" lon="2.22364">
        <ele>638</ele>
        <time>2024-09-13T05:28:47+00:00</time>
      </trkpt>
      <trkpt lat="45.40752" lon="2.22345">
        <ele>642</ele>
        <time>2024-09-13T05:28:50+00:00</time>
      </trkpt>
      <trkpt lat="45.40728" lon="2.22319">
        <ele>645</ele>
        <time>2024-09-13T05:28:53+00:00</time>
      </trkpt>
      <trkpt lat="45.40709" lon="2.22298">
        <ele>643</ele>
        <time>2024-09-13T05:28:56+00:00</time>
      </trkpt>
      <trkpt lat="45.40689" lon="2.22276">
        <ele>642</ele>
        <time>2024-09-13T05:28:59+00:00</time>
      </trkpt>
      <trkpt lat="45.407" lon="2.22238">
        <ele>636</ele>
        <time>2024-09-13T05:29:02+00:00</time>
      </trkpt>
      <trkpt lat="45.4071" lon="2.22204">
        <ele>633</ele>
        <time>2024-09-13T05:29:05+00:00</time>
      </trkpt>
      <trkpt lat="45.40696" lon="2.22154">
        <ele>636</ele>
        <time>2024-09-13T05:29:08+00:00</time>
      </trkpt>
      <trkpt lat="45.40659" lon="2.22123">
        <ele>639</ele>
        <time>2024-09-13T05:29:11+00:00</time>
      </trkpt>
      <trkpt lat="45.40639" lon="2.221">
        <ele>639</ele>
        <time>2024-09-13T05:29:14+00:00</time>
      </trkpt>
      <trkpt lat="45.40616" lon="2.22074">
        <ele>632</ele>
        <time>2024-09-13T05:29:17+00:00</time>
      </trkpt>
      <trkpt lat="45.40598" lon="2.22044">
        <ele>621</ele>
        <time>2024-09-13T05:29:20+00:00</time>
      </trkpt>
      <trkpt lat="45.40579" lon="2.22037">
        <ele>621</ele>
        <time>2024-09-13T05:29:23+00:00</time>
      </trkpt>
      <trkpt lat="45.4056" lon="2.22052">
        <ele>618</ele>
        <time>2024-09-13T05:29:26+00:00</time>
      </trkpt>
      <trkpt lat="45.40522" lon="2.22048">
        <ele>616</ele>
        <time>2024-09-13T05:29:29+00:00</time>
      </trkpt>
      <trkpt lat="45.40503" lon="2.22055">
        <ele>612</ele>
        <time>2024-09-13T05:29:32+00:00</time>
      </trkpt>
      <trkpt lat="45.40487" lon="2.22074">
        <ele>611</ele>
        <time>2024-09-13T05:29:35+00:00</time>
      </trkpt>
      <trkpt lat="45.40472" lon="2.22092">
        <ele>611</ele>
        <time>2024-09-13T05:29:38+00:00</time>
      </trkpt>
      <trkpt lat="45.40451" lon="2.22122">
        <ele>612</ele>
        <time>2024-09-13T05:29:41+00:00</time>
      </trkpt>
      <trkpt lat="45.40444" lon="2.2216">
        <ele>611</ele>
        <time>2024-09-13T05:29:44+00:00</time>
      </trkpt>
      <trkpt lat="45.40433" lon="2.22213">
        <ele>611</ele>
        <time>2024-09-13T05:29:47+00:00</time>
      </trkpt>
      <trkpt lat="45.40408" lon="2.22233">
        <ele>611</ele>
        <time>2024-09-13T05:29:50+00:00</time>
      </trkpt>
      <trkpt lat="45.40367" lon="2.22264">
        <ele>608</ele>
        <time>2024-09-13T05:29:53+00:00</time>
      </trkpt>
      <trkpt lat="45.40345" lon="2.22276">
        <ele>604</ele>
        <time>2024-09-13T05:29:56+00:00</time>
      </trkpt>
      <trkpt lat="45.40322" lon="2.22289">
        <ele>604</ele>
        <time>2024-09-13T05:29:59+00:00</time>
      </trkpt>
      <trkpt lat="45.4028" lon="2.2228">
        <ele>606</ele>
        <time>2024-09-13T05:30:02+00:00</time>
      </trkpt>
      <trkpt lat="45.40247" lon="2.22242">
        <ele>605</ele>
        <time>2024-09-13T05:30:05+00:00</time>
      </trkpt>
      <trkpt lat="45.40221" lon="2.22249">
        <ele>604</ele>
        <time>2024-09-13T05:30:08+00:00</time>
      </trkpt>
      <trkpt lat="45.40191" lon="2.22257">
        <ele>600</ele>
        <time>2024-09-13T05:30:11+00:00</time>
      </trkpt>
      <trkpt lat="45.40159" lon="2.22267">
        <ele>598</ele>
        <time>2024-09-13T05:30:14+00:00</time>
      </trkpt>
      <trkpt lat="45.40134" lon="2.22286">
        <ele>599</ele>
        <time>2024-09-13T05:30:17+00:00</time>
      </trkpt>
      <trkpt lat="45.40111" lon="2.22277">
        <ele>601</ele>
        <time>2024-09-13T05:30:20+00:00</time>
      </trkpt>
      <trkpt lat="45.40086" lon="2.22267">
        <ele>599</ele>
        <time>2024-09-13T05:30:23+00:00</time>
      </trkpt>
      <trkpt lat="45.40047" lon="2.2225">
        <ele>598</ele>
        <time>2024-09-13T05:30:26+00:00</time>
      </trkpt>
      <trkpt lat="45.4002" lon="2.22267">
        <ele>598</ele>
        <time>2024-09-13T05:30:29+00:00</time>
      </trkpt>
      <trkpt lat="45.39998" lon="2.22281">
        <ele>595</ele>
        <time>2024-09-13T05:30:32+00:00</time>
      </trkpt>
      <trkpt lat="45.39976" lon="2.22296">
        <ele>594</ele>
        <time>2024-09-13T05:30:35+00:00</time>
      </trkpt>
      <trkpt lat="45.39952" lon="2.22316">
        <ele>594</ele>
        <time>2024-09-13T05:30:38+00:00</time>
      </trkpt>
      <trkpt lat="45.39919" lon="2.22345">
        <ele>594</ele>
        <time>2024-09-13T05:30:41+00:00</time>
      </trkpt>
      <trkpt lat="45.39899" lon="2.22402">
        <ele>595</ele>
        <time>2024-09-13T05:30:44+00:00</time>
      </trkpt>
      <trkpt lat="45.39877" lon="2.22427">
        <ele>596</ele>
        <time>2024-09-13T05:30:47+00:00</time>
      </trkpt>
      <trkpt lat="45.39853" lon="2.22437">
        <ele>596</ele>
        <time>2024-09-13T05:30:50+00:00</time>
      </trkpt>
      <trkpt lat="45.39827" lon="2.22448">
        <ele>587</ele>
        <time>2024-09-13T05:30:53+00:00</time>
      </trkpt>
      <trkpt lat="45.39797" lon="2.22451">
        <ele>585</ele>
        <time>2024-09-13T05:30:56+00:00</time>
      </trkpt>
      <trkpt lat="45.39772" lon="2.22452">
        <ele>585</ele>
        <time>2024-09-13T05:30:59+00:00</time>
      </trkpt>
      <trkpt lat="45.39745" lon="2.22455">
        <ele>584</ele>
        <time>2024-09-13T05:31:02+00:00</time>
      </trkpt>
      <trkpt lat="45.39731" lon="2.22486">
        <ele>583</ele>
        <time>2024-09-13T05:31:05+00:00</time>
      </trkpt>
      <trkpt lat="45.39712" lon="2.22526">
        <ele>579</ele>
        <time>2024-09-13T05:31:08+00:00</time>
      </trkpt>
      <trkpt lat="45.39703" lon="2.22584">
        <ele>584</ele>
        <time>2024-09-13T05:31:11+00:00</time>
      </trkpt>
      <trkpt lat="45.39673" lon="2.2262">
        <ele>567.6</ele>
        <time>2024-09-13T05:31:17+00:00</time>
      </trkpt>
      <trkpt lat="45.39582" lon="2.22675">
        <ele>565</ele>
        <time>2024-09-13T05:31:29+00:00</time>
      </trkpt>
      <trkpt lat="45.39556" lon="2.22678">
        <ele>560</ele>
        <time>2024-09-13T05:31:32+00:00</time>
      </trkpt>
      <trkpt lat="45.39522" lon="2.22683">
        <ele>561</ele>
        <time>2024-09-13T05:31:35+00:00</time>
      </trkpt>
      <trkpt lat="45.39513" lon="2.22659">
        <ele>561</ele>
        <time>2024-09-13T05:31:38+00:00</time>
      </trkpt>
      <trkpt lat="45.39494" lon="2.22688">
        <ele>562</ele>
        <time>2024-09-13T05:31:41+00:00</time>
      </trkpt>
      <trkpt lat="45.39466" lon="2.22729">
        <ele>568</ele>
        <time>2024-09-13T05:31:44+00:00</time>
      </trkpt>
      <trkpt lat="45.39445" lon="2.22755">
        <ele>571</ele>
        <time>2024-09-13T05:31:47+00:00</time>
      </trkpt>
      <trkpt lat="45.39417" lon="2.22789">
        <ele>570</ele>
        <time>2024-09-13T05:31:50+00:00</time>
      </trkpt>
      <trkpt lat="45.39393" lon="2.22807">
        <ele>570</ele>
        <time>2024-09-13T05:31:53+00:00</time>
      </trkpt>
      <trkpt lat="45.39363" lon="2.2283">
        <ele>569</ele>
        <time>2024-09-13T05:31:56+00:00</time>
      </trkpt>
      <trkpt lat="45.39318" lon="2.22819">
        <ele>568</ele>
        <time>2024-09-13T05:31:59+00:00</time>
      </trkpt>
      <trkpt lat="45.39286" lon="2.22803">
        <ele>566</ele>
        <time>2024-09-13T05:32:02+00:00</time>
      </trkpt>
      <trkpt lat="45.39255" lon="2.22787">
        <ele>564</ele>
        <time>2024-09-13T05:32:05+00:00</time>
      </trkpt>
      <trkpt lat="45.39211" lon="2.22764">
        <ele>564</ele>
        <time>2024-09-13T05:32:08+00:00</time>
      </trkpt>
      <trkpt lat="45.39184" lon="2.2275">
        <ele>559</ele>
        <time>2024-09-13T05:32:11+00:00</time>
      </trkpt>
      <trkpt lat="45.39143" lon="2.22729">
        <ele>555</ele>
        <time>2024-09-13T05:32:14+00:00</time>
      </trkpt>
      <trkpt lat="45.39112" lon="2.22697">
        <ele>553</ele>
        <time>2024-09-13T05:32:17+00:00</time>
      </trkpt>
      <trkpt lat="45.39111" lon="2.22739">
        <ele>556</ele>
        <time>2024-09-13T05:32:20+00:00</time>
      </trkpt>
      <trkpt lat="45.39106" lon="2.22771">
        <ele>560</ele>
        <time>2024-09-13T05:32:23+00:00</time>
      </trkpt>
      <trkpt lat="45.3912" lon="2.22809">
        <ele>561</ele>
        <time>2024-09-13T05:32:26+00:00</time>
      </trkpt>
      <trkpt lat="45.39148" lon="2.22849">
        <ele>561</ele>
        <time>2024-09-13T05:32:29+00:00</time>
      </trkpt>
      <trkpt lat="45.39161" lon="2.22874">
        <ele>561</ele>
        <time>2024-09-13T05:32:32+00:00</time>
      </trkpt>
      <trkpt lat="45.39172" lon="2.22898">
        <ele>565</ele>
        <time>2024-09-13T05:32:35+00:00</time>
      </trkpt>
      <trkpt lat="45.3919" lon="2.22958">
        <ele>570</ele>
        <time>2024-09-13T05:32:38+00:00</time>
      </trkpt>
      <trkpt lat="45.392" lon="2.22998">
        <ele>571</ele>
        <time>2024-09-13T05:32:41+00:00</time>
      </trkpt>
      <trkpt lat="45.3921" lon="2.23054">
        <ele>583</ele>
        <time>2024-09-13T05:32:44+00:00</time>
      </trkpt>
      <trkpt lat="45.39214" lon="2.23086">
        <ele>589</ele>
        <time>2024-09-13T05:32:47+00:00</time>
      </trkpt>
      <trkpt lat="45.3922" lon="2.23132">
        <ele>589</ele>
        <time>2024-09-13T05:32:50+00:00</time>
      </trkpt>
      <trkpt lat="45.39242" lon="2.23157">
        <ele>590</ele>
        <time>2024-09-13T05:32:53+00:00</time>
      </trkpt>
      <trkpt lat="45.39252" lon="2.23182">
        <ele>590</ele>
        <time>2024-09-13T05:32:56+00:00</time>
      </trkpt>
      <trkpt lat="45.3926" lon="2.23221">
        <ele>591</ele>
        <time>2024-09-13T05:32:59+00:00</time>
      </trkpt>
      <trkpt lat="45.39263" lon="2.23283">
        <ele>592</ele>
        <time>2024-09-13T05:33:02+00:00</time>
      </trkpt>
      <trkpt lat="45.39264" lon="2.23317">
        <ele>593</ele>
        <time>2024-09-13T05:33:05+00:00</time>
      </trkpt>
      <trkpt lat="45.39265" lon="2.23354">
        <ele>594</ele>
        <time>2024-09-13T05:33:08+00:00</time>
      </trkpt>
      <trkpt lat="45.39286" lon="2.23388">
        <ele>600</ele>
        <time>2024-09-13T05:33:11+00:00</time>
      </trkpt>
      <trkpt lat="45.39307" lon="2.23423">
        <ele>601</ele>
        <time>2024-09-13T05:33:14+00:00</time>
      </trkpt>
      <trkpt lat="45.39328" lon="2.23458">
        <ele>604</ele>
        <time>2024-09-13T05:33:17+00:00</time>
      </trkpt>
      <trkpt lat="45.39344" lon="2.23477">
        <ele>603</ele>
        <time>2024-09-13T05:33:20+00:00</time>
      </trkpt>
      <trkpt lat="45.39339" lon="2.23502">
        <ele>603</ele>
        <time>2024-09-13T05:33:23+00:00</time>
      </trkpt>
      <trkpt lat="45.39325" lon="2.2352">
        <ele>600</ele>
        <time>2024-09-13T05:33:26+00:00</time>
      </trkpt>
      <trkpt lat="45.3928" lon="2.23554">
        <ele>599</ele>
        <time>2024-09-13T05:33:29+00:00</time>
      </trkpt>
      <trkpt lat="45.3925" lon="2.23612">
        <ele>599</ele>
        <time>2024-09-13T05:33:32+00:00</time>
      </trkpt>
      <trkpt lat="45.39239" lon="2.23637">
        <ele>600</ele>
        <time>2024-09-13T05:33:35+00:00</time>
      </trkpt>
      <trkpt lat="45.39225" lon="2.23665">
        <ele>601</ele>
        <time>2024-09-13T05:33:38+00:00</time>
      </trkpt>
      <trkpt lat="45.39203" lon="2.23698">
        <ele>604</ele>
        <time>2024-09-13T05:33:41+00:00</time>
      </trkpt>
      <trkpt lat="45.39178" lon="2.23725">
        <ele>609</ele>
        <time>2024-09-13T05:33:44+00:00</time>
      </trkpt>
      <trkpt lat="45.39165" lon="2.2378">
        <ele>611</ele>
        <time>2024-09-13T05:33:47+00:00</time>
      </trkpt>
      <trkpt lat="45.39161" lon="2.2382">
        <ele>612</ele>
        <time>2024-09-13T05:33:50+00:00</time>
      </trkpt>
      <trkpt lat="45.39194" lon="2.23856">
        <ele>617</ele>
        <time>2024-09-13T05:33:53+00:00</time>
      </trkpt>
      <trkpt lat="45.39213" lon="2.23894">
        <ele>617</ele>
        <time>2024-09-13T05:33:56+00:00</time>
      </trkpt>
      <trkpt lat="45.39228" lon="2.23934">
        <ele>615</ele>
        <time>2024-09-13T05:33:59+00:00</time>
      </trkpt>
      <trkpt lat="45.39242" lon="2.23974">
        <ele>605</ele>
        <time>2024-09-13T05:34:02+00:00</time>
      </trkpt>
      <trkpt lat="45.39258" lon="2.24017">
        <ele>605</ele>
        <time>2024-09-13T05:34:05+00:00</time>
      </trkpt>
      <trkpt lat="45.39278" lon="2.24056">
        <ele>607</ele>
        <time>2024-09-13T05:34:08+00:00</time>
      </trkpt>
      <trkpt lat="45.3931" lon="2.24141">
        <ele>611</ele>
        <time>2024-09-13T05:34:11+00:00</time>
      </trkpt>
      <trkpt lat="45.39323" lon="2.24169">
        <ele>611</ele>
        <time>2024-09-13T05:34:14+00:00</time>
      </trkpt>
      <trkpt lat="45.39336" lon="2.24198">
        <ele>611</ele>
        <time>2024-09-13T05:34:17+00:00</time>
      </trkpt>
      <trkpt lat="45.39337" lon="2.24242">
        <ele>616</ele>
        <time>2024-09-13T05:34:20+00:00</time>
      </trkpt>
      <trkpt lat="45.39343" lon="2.24281">
        <ele>619</ele>
        <time>2024-09-13T05:34:23+00:00</time>
      </trkpt>
      <trkpt lat="45.39345" lon="2.24323">
        <ele>617</ele>
        <time>2024-09-13T05:34:26+00:00</time>
      </trkpt>
      <trkpt lat="45.39343" lon="2.24354">
        <ele>616</ele>
        <time>2024-09-13T05:34:29+00:00</time>
      </trkpt>
      <trkpt lat="45.39342" lon="2.24412">
        <ele>612</ele>
        <time>2024-09-13T05:34:32+00:00</time>
      </trkpt>
      <trkpt lat="45.39337" lon="2.24462">
        <ele>612</ele>
        <time>2024-09-13T05:34:35+00:00</time>
      </trkpt>
      <trkpt lat="45.39326" lon="2.24498">
        <ele>613</ele>
        <time>2024-09-13T05:34:38+00:00</time>
      </trkpt>
      <trkpt lat="45.39319" lon="2.24538">
        <ele>613</ele>
        <time>2024-09-13T05:34:41+00:00</time>
      </trkpt>
      <trkpt lat="45.39307" lon="2.24576">
        <ele>618</ele>
        <time>2024-09-13T05:34:44+00:00</time>
      </trkpt>
      <trkpt lat="45.39303" lon="2.2462">
        <ele>623</ele>
        <time>2024-09-13T05:34:47+00:00</time>
      </trkpt>
      <trkpt lat="45.39298" lon="2.24659">
        <ele>623</ele>
        <time>2024-09-13T05:34:50+00:00</time>
      </trkpt>
      <trkpt lat="45.39284" lon="2.24702">
        <ele>623</ele>
        <time>2024-09-13T05:34:53+00:00</time>
      </trkpt>
      <trkpt lat="45.39272" lon="2.24736">
        <ele>625</ele>
        <time>2024-09-13T05:34:56+00:00</time>
      </trkpt>
      <trkpt lat="45.39266" lon="2.24772">
        <ele>632</ele>
        <time>2024-09-13T05:34:59+00:00</time>
      </trkpt>
      <trkpt lat="45.39259" lon="2.24814">
        <ele>633</ele>
        <time>2024-09-13T05:35:02+00:00</time>
      </trkpt>
      <trkpt lat="45.39253" lon="2.24862">
        <ele>641</ele>
        <time>2024-09-13T05:35:05+00:00</time>
      </trkpt>
      <trkpt lat="45.39247" lon="2.24909">
        <ele>643</ele>
        <time>2024-09-13T05:35:08+00:00</time>
      </trkpt>
      <trkpt lat="45.39243" lon="2.24944">
        <ele>644</ele>
        <time>2024-09-13T05:35:11+00:00</time>
      </trkpt>
      <trkpt lat="45.39238" lon="2.24983">
        <ele>645</ele>
        <time>2024-09-13T05:35:14+00:00</time>
      </trkpt>
      <trkpt lat="45.39236" lon="2.25027">
        <ele>647</ele>
        <time>2024-09-13T05:35:17+00:00</time>
      </trkpt>
      <trkpt lat="45.39233" lon="2.25064">
        <ele>646</ele>
        <time>2024-09-13T05:35:20+00:00</time>
      </trkpt>
      <trkpt lat="45.3923" lon="2.25109">
        <ele>646</ele>
        <time>2024-09-13T05:35:23+00:00</time>
      </trkpt>
      <trkpt lat="45.39226" lon="2.25152">
        <ele>646</ele>
        <time>2024-09-13T05:35:26+00:00</time>
      </trkpt>
      <trkpt lat="45.39222" lon="2.25187">
        <ele>646</ele>
        <time>2024-09-13T05:35:29+00:00</time>
      </trkpt>
      <trkpt lat="45.39218" lon="2.25227">
        <ele>644</ele>
        <time>2024-09-13T05:35:32+00:00</time>
      </trkpt>
      <trkpt lat="45.39218" lon="2.2528">
        <ele>642</ele>
        <time>2024-09-13T05:35:35+00:00</time>
      </trkpt>
      <trkpt lat="45.3922" lon="2.25316">
        <ele>643</ele>
        <time>2024-09-13T05:35:38+00:00</time>
      </trkpt>
      <trkpt lat="45.39221" lon="2.25359">
        <ele>645</ele>
        <time>2024-09-13T05:35:41+00:00</time>
      </trkpt>
      <trkpt lat="45.39226" lon="2.2539">
        <ele>645</ele>
        <time>2024-09-13T05:35:44+00:00</time>
      </trkpt>
      <trkpt lat="45.39245" lon="2.25358">
        <ele>644</ele>
        <time>2024-09-13T05:35:47+00:00</time>
      </trkpt>
      <trkpt lat="45.39279" lon="2.25301">
        <ele>643</ele>
        <time>2024-09-13T05:35:50+00:00</time>
      </trkpt>
      <trkpt lat="45.39312" lon="2.25317">
        <ele>643</ele>
        <time>2024-09-13T05:35:53+00:00</time>
      </trkpt>
      <trkpt lat="45.39344" lon="2.25332">
        <ele>643</ele>
        <time>2024-09-13T05:35:56+00:00</time>
      </trkpt>
      <trkpt lat="45.39395" lon="2.25357">
        <ele>642</ele>
        <time>2024-09-13T05:35:59+00:00</time>
      </trkpt>
      <trkpt lat="45.39429" lon="2.25373">
        <ele>642</ele>
        <time>2024-09-13T05:36:02+00:00</time>
      </trkpt>
      <trkpt lat="45.39464" lon="2.25389">
        <ele>636</ele>
        <time>2024-09-13T05:36:05+00:00</time>
      </trkpt>
      <trkpt lat="45.39498" lon="2.25405">
        <ele>633</ele>
        <time>2024-09-13T05:36:08+00:00</time>
      </trkpt>
      <trkpt lat="45.39538" lon="2.25424">
        <ele>633</ele>
        <time>2024-09-13T05:36:11+00:00</time>
      </trkpt>
      <trkpt lat="45.39563" lon="2.25432">
        <ele>637</ele>
        <time>2024-09-13T05:36:14+00:00</time>
      </trkpt>
      <trkpt lat="45.39591" lon="2.25441">
        <ele>638</ele>
        <time>2024-09-13T05:36:17+00:00</time>
      </trkpt>
      <trkpt lat="45.39595" lon="2.25486">
        <ele>640.8</ele>
        <time>2024-09-13T05:36:20+00:00</time>
      </trkpt>
      <trkpt lat="45.39596" lon="2.25524">
        <ele>642.9</ele>
        <time>2024-09-13T05:36:23+00:00</time>
      </trkpt>
      <trkpt lat="45.39595" lon="2.25576">
        <ele>646.9</ele>
        <time>2024-09-13T05:36:26+00:00</time>
      </trkpt>
      <trkpt lat="45.39601" lon="2.25617">
        <ele>647.3</ele>
        <time>2024-09-13T05:36:29+00:00</time>
      </trkpt>
      <trkpt lat="45.39584" lon="2.25683">
        <ele>649.4</ele>
        <time>2024-09-13T05:36:32+00:00</time>
      </trkpt>
      <trkpt lat="45.39598" lon="2.25715">
        <ele>659</ele>
        <time>2024-09-13T05:36:35+00:00</time>
      </trkpt>
      <trkpt lat="45.39602" lon="2.25758">
        <ele>659</ele>
        <time>2024-09-13T05:36:38+00:00</time>
      </trkpt>
      <trkpt lat="45.39603" lon="2.25797">
        <ele>661</ele>
        <time>2024-09-13T05:36:41+00:00</time>
      </trkpt>
      <trkpt lat="45.39605" lon="2.25851">
        <ele>662</ele>
        <time>2024-09-13T05:36:44+00:00</time>
      </trkpt>
      <trkpt lat="45.39618" lon="2.25887">
        <ele>654.5</ele>
        <time>2024-09-13T05:36:47+00:00</time>
      </trkpt>
      <trkpt lat="45.39618" lon="2.25943">
        <ele>658.2</ele>
        <time>2024-09-13T05:36:50+00:00</time>
      </trkpt>
      <trkpt lat="45.39602" lon="2.25982">
        <ele>669</ele>
        <time>2024-09-13T05:36:53+00:00</time>
      </trkpt>
      <trkpt lat="45.39597" lon="2.26035">
        <ele>666</ele>
        <time>2024-09-13T05:36:56+00:00</time>
      </trkpt>
      <trkpt lat="45.39603" lon="2.26069">
        <ele>663</ele>
        <time>2024-09-13T05:36:59+00:00</time>
      </trkpt>
      <trkpt lat="45.39574" lon="2.26104">
        <ele>667.1</ele>
        <time>2024-09-13T05:37:02+00:00</time>
      </trkpt>
      <trkpt lat="45.39529" lon="2.26155">
        <ele>674.3</ele>
        <time>2024-09-13T05:37:05+00:00</time>
      </trkpt>
      <trkpt lat="45.39511" lon="2.26183">
        <ele>674.7</ele>
        <time>2024-09-13T05:37:08+00:00</time>
      </trkpt>
      <trkpt lat="45.39475" lon="2.26237">
        <ele>676</ele>
        <time>2024-09-13T05:37:11+00:00</time>
      </trkpt>
      <trkpt lat="45.39453" lon="2.26253">
        <ele>674</ele>
        <time>2024-09-13T05:37:14+00:00</time>
      </trkpt>
      <trkpt lat="45.39483" lon="2.26303">
        <ele>674</ele>
        <time>2024-09-13T05:37:17+00:00</time>
      </trkpt>
      <trkpt lat="45.39519" lon="2.26343">
        <ele>674</ele>
        <time>2024-09-13T05:37:20+00:00</time>
      </trkpt>
      <trkpt lat="45.39537" lon="2.26358">
        <ele>670</ele>
        <time>2024-09-13T05:37:23+00:00</time>
      </trkpt>
      <trkpt lat="45.39565" lon="2.26371">
        <ele>668</ele>
        <time>2024-09-13T05:37:26+00:00</time>
      </trkpt>
      <trkpt lat="45.3961" lon="2.26393">
        <ele>663</ele>
        <time>2024-09-13T05:37:29+00:00</time>
      </trkpt>
      <trkpt lat="45.39634" lon="2.26397">
        <ele>663</ele>
        <time>2024-09-13T05:37:32+00:00</time>
      </trkpt>
      <trkpt lat="45.39663" lon="2.26405">
        <ele>664</ele>
        <time>2024-09-13T05:37:35+00:00</time>
      </trkpt>
      <trkpt lat="45.39698" lon="2.26427">
        <ele>667</ele>
        <time>2024-09-13T05:37:38+00:00</time>
      </trkpt>
      <trkpt lat="45.3974" lon="2.26443">
        <ele>672</ele>
        <time>2024-09-13T05:37:41+00:00</time>
      </trkpt>
      <trkpt lat="45.39763" lon="2.26454">
        <ele>672</ele>
        <time>2024-09-13T05:37:44+00:00</time>
      </trkpt>
      <trkpt lat="45.39771" lon="2.26479">
        <ele>676</ele>
        <time>2024-09-13T05:37:47+00:00</time>
      </trkpt>
      <trkpt lat="45.39785" lon="2.26524">
        <ele>686</ele>
        <time>2024-09-13T05:37:50+00:00</time>
      </trkpt>
      <trkpt lat="45.39803" lon="2.26548">
        <ele>688</ele>
        <time>2024-09-13T05:37:53+00:00</time>
      </trkpt>
      <trkpt lat="45.39843" lon="2.26567">
        <ele>688</ele>
        <time>2024-09-13T05:37:56+00:00</time>
      </trkpt>
      <trkpt lat="45.39873" lon="2.26574">
        <ele>688</ele>
        <time>2024-09-13T05:37:59+00:00</time>
      </trkpt>
      <trkpt lat="45.39897" lon="2.26579">
        <ele>688</ele>
        <time>2024-09-13T05:38:02+00:00</time>
      </trkpt>
      <trkpt lat="45.39923" lon="2.26585">
        <ele>690</ele>
        <time>2024-09-13T05:38:05+00:00</time>
      </trkpt>
      <trkpt lat="45.39952" lon="2.26592">
        <ele>692</ele>
        <time>2024-09-13T05:38:08+00:00</time>
      </trkpt>
      <trkpt lat="45.39976" lon="2.2658">
        <ele>688.3</ele>
        <time>2024-09-13T05:38:11+00:00</time>
      </trkpt>
      <trkpt lat="45.40001" lon="2.26553">
        <ele>695</ele>
        <time>2024-09-13T05:38:14+00:00</time>
      </trkpt>
      <trkpt lat="45.40016" lon="2.26509">
        <ele>697</ele>
        <time>2024-09-13T05:38:17+00:00</time>
      </trkpt>
      <trkpt lat="45.40043" lon="2.26432">
        <ele>699</ele>
        <time>2024-09-13T05:38:20+00:00</time>
      </trkpt>
      <trkpt lat="45.40057" lon="2.26395">
        <ele>698</ele>
        <time>2024-09-13T05:38:23+00:00</time>
      </trkpt>
      <trkpt lat="45.40081" lon="2.26333">
        <ele>698</ele>
        <time>2024-09-13T05:38:26+00:00</time>
      </trkpt>
      <trkpt lat="45.40102" lon="2.2634">
        <ele>699</ele>
        <time>2024-09-13T05:38:29+00:00</time>
      </trkpt>
      <trkpt lat="45.40126" lon="2.26356">
        <ele>697</ele>
        <time>2024-09-13T05:38:32+00:00</time>
      </trkpt>
      <trkpt lat="45.40159" lon="2.26378">
        <ele>695</ele>
        <time>2024-09-13T05:38:35+00:00</time>
      </trkpt>
      <trkpt lat="45.4018" lon="2.26401">
        <ele>689</ele>
        <time>2024-09-13T05:38:38+00:00</time>
      </trkpt>
      <trkpt lat="45.40207" lon="2.2643">
        <ele>683</ele>
        <time>2024-09-13T05:38:41+00:00</time>
      </trkpt>
      <trkpt lat="45.4023" lon="2.26415">
        <ele>676</ele>
        <time>2024-09-13T05:38:44+00:00</time>
      </trkpt>
      <trkpt lat="45.40236" lon="2.26379">
        <ele>667</ele>
        <time>2024-09-13T05:38:47+00:00</time>
      </trkpt>
      <trkpt lat="45.40243" lon="2.26338">
        <ele>667</ele>
        <time>2024-09-13T05:38:50+00:00</time>
      </trkpt>
      <trkpt lat="45.40271" lon="2.26328">
        <ele>667</ele>
        <time>2024-09-13T05:38:53+00:00</time>
      </trkpt>
      <trkpt lat="45.4031" lon="2.26314">
        <ele>666</ele>
        <time>2024-09-13T05:38:56+00:00</time>
      </trkpt>
      <trkpt lat="45.40314" lon="2.26264">
        <ele>665</ele>
        <time>2024-09-13T05:38:59+00:00</time>
      </trkpt>
      <trkpt lat="45.40318" lon="2.26215">
        <ele>661</ele>
        <time>2024-09-13T05:39:02+00:00</time>
      </trkpt>
      <trkpt lat="45.40325" lon="2.26121">
        <ele>661</ele>
        <time>2024-09-13T05:39:05+00:00</time>
      </trkpt>
      <trkpt lat="45.40332" lon="2.2608">
        <ele>657</ele>
        <time>2024-09-13T05:39:08+00:00</time>
      </trkpt>
      <trkpt lat="45.40344" lon="2.26009">
        <ele>658</ele>
        <time>2024-09-13T05:39:11+00:00</time>
      </trkpt>
      <trkpt lat="45.4036" lon="2.25971">
        <ele>659</ele>
        <time>2024-09-13T05:39:14+00:00</time>
      </trkpt>
      <trkpt lat="45.40391" lon="2.25896">
        <ele>659</ele>
        <time>2024-09-13T05:39:17+00:00</time>
      </trkpt>
      <trkpt lat="45.40393" lon="2.25844">
        <ele>656</ele>
        <time>2024-09-13T05:39:20+00:00</time>
      </trkpt>
      <trkpt lat="45.40411" lon="2.25788">
        <ele>652</ele>
        <time>2024-09-13T05:39:23+00:00</time>
      </trkpt>
      <trkpt lat="45.4041" lon="2.25743">
        <ele>652</ele>
        <time>2024-09-13T05:39:26+00:00</time>
      </trkpt>
      <trkpt lat="45.4041" lon="2.25698">
        <ele>652</ele>
        <time>2024-09-13T05:39:29+00:00</time>
      </trkpt>
      <trkpt lat="45.40409" lon="2.25651">
        <ele>656</ele>
        <time>2024-09-13T05:39:32+00:00</time>
      </trkpt>
      <trkpt lat="45.40387" lon="2.25631">
        <ele>656</ele>
        <time>2024-09-13T05:39:35+00:00</time>
      </trkpt>
      <trkpt lat="45.40361" lon="2.25608">
        <ele>655</ele>
        <time>2024-09-13T05:39:38+00:00</time>
      </trkpt>
      <trkpt lat="45.40392" lon="2.25602">
        <ele>655</ele>
        <time>2024-09-13T05:39:41+00:00</time>
      </trkpt>
      <trkpt lat="45.40424" lon="2.25597">
        <ele>656</ele>
        <time>2024-09-13T05:39:44+00:00</time>
      </trkpt>
      <trkpt lat="45.40456" lon="2.25591">
        <ele>653</ele>
        <time>2024-09-13T05:39:47+00:00</time>
      </trkpt>
      <trkpt lat="45.40485" lon="2.25578">
        <ele>651</ele>
        <time>2024-09-13T05:39:50+00:00</time>
      </trkpt>
      <trkpt lat="45.40534" lon="2.25557">
        <ele>645</ele>
        <time>2024-09-13T05:39:53+00:00</time>
      </trkpt>
      <trkpt lat="45.40551" lon="2.25539">
        <ele>640</ele>
        <time>2024-09-13T05:39:56+00:00</time>
      </trkpt>
      <trkpt lat="45.40554" lon="2.255">
        <ele>636</ele>
        <time>2024-09-13T05:39:59+00:00</time>
      </trkpt>
      <trkpt lat="45.4056" lon="2.25441">
        <ele>634</ele>
        <time>2024-09-13T05:40:02+00:00</time>
      </trkpt>
      <trkpt lat="45.40566" lon="2.25408">
        <ele>634</ele>
        <time>2024-09-13T05:40:05+00:00</time>
      </trkpt>
      <trkpt lat="45.40572" lon="2.25374">
        <ele>633</ele>
        <time>2024-09-13T05:40:08+00:00</time>
      </trkpt>
      <trkpt lat="45.40573" lon="2.25338">
        <ele>633</ele>
        <time>2024-09-13T05:40:11+00:00</time>
      </trkpt>
      <trkpt lat="45.40573" lon="2.25295">
        <ele>627</ele>
        <time>2024-09-13T05:40:14+00:00</time>
      </trkpt>
      <trkpt lat="45.4059" lon="2.25258">
        <ele>626</ele>
        <time>2024-09-13T05:40:17+00:00</time>
      </trkpt>
      <trkpt lat="45.40616" lon="2.25248">
        <ele>625</ele>
        <time>2024-09-13T05:40:20+00:00</time>
      </trkpt>
      <trkpt lat="45.4065" lon="2.25235">
        <ele>619</ele>
        <time>2024-09-13T05:40:23+00:00</time>
      </trkpt>
      <trkpt lat="45.40674" lon="2.25222">
        <ele>616</ele>
        <time>2024-09-13T05:40:26+00:00</time>
      </trkpt>
      <trkpt lat="45.40703" lon="2.25207">
        <ele>616</ele>
        <time>2024-09-13T05:40:29+00:00</time>
      </trkpt>
      <trkpt lat="45.40721" lon="2.25194">
        <ele>616</ele>
        <time>2024-09-13T05:40:32+00:00</time>
      </trkpt>
      <trkpt lat="45.40731" lon="2.25227">
        <ele>620</ele>
        <time>2024-09-13T05:40:35+00:00</time>
      </trkpt>
      <trkpt lat="45.40742" lon="2.25267">
        <ele>626</ele>
        <time>2024-09-13T05:40:38+00:00</time>
      </trkpt>
      <trkpt lat="45.40758" lon="2.25298">
        <ele>629</ele>
        <time>2024-09-13T05:40:41+00:00</time>
      </trkpt>
      <trkpt lat="45.4078" lon="2.2534">
        <ele>635</ele>
        <time>2024-09-13T05:40:44+00:00</time>
      </trkpt>
      <trkpt lat="45.40808" lon="2.25354">
        <ele>635</ele>
        <time>2024-09-13T05:40:47+00:00</time>
      </trkpt>
      <trkpt lat="45.40831" lon="2.25366">
        <ele>635</ele>
        <time>2024-09-13T05:40:50+00:00</time>
      </trkpt>
      <trkpt lat="45.40857" lon="2.25379">
        <ele>637</ele>
        <time>2024-09-13T05:40:53+00:00</time>
      </trkpt>
      <trkpt lat="45.40854" lon="2.25429">
        <ele>639</ele>
        <time>2024-09-13T05:40:56+00:00</time>
      </trkpt>
      <trkpt lat="45.40852" lon="2.25479">
        <ele>640</ele>
        <time>2024-09-13T05:40:59+00:00</time>
      </trkpt>
      <trkpt lat="45.4085" lon="2.2552">
        <ele>640</ele>
        <time>2024-09-13T05:41:02+00:00</time>
      </trkpt>
      <trkpt lat="45.40848" lon="2.2558">
        <ele>640</ele>
        <time>2024-09-13T05:41:05+00:00</time>
      </trkpt>
      <trkpt lat="45.40836" lon="2.25624">
        <ele>640</ele>
        <time>2024-09-13T05:41:08+00:00</time>
      </trkpt>
      <trkpt lat="45.40824" lon="2.25668">
        <ele>643</ele>
        <time>2024-09-13T05:41:11+00:00</time>
      </trkpt>
      <trkpt lat="45.40808" lon="2.25726">
        <ele>651</ele>
        <time>2024-09-13T05:41:14+00:00</time>
      </trkpt>
      <trkpt lat="45.40805" lon="2.25778">
        <ele>653</ele>
        <time>2024-09-13T05:41:17+00:00</time>
      </trkpt>
      <trkpt lat="45.40802" lon="2.2583">
        <ele>653</ele>
        <time>2024-09-13T05:41:20+00:00</time>
      </trkpt>
      <trkpt lat="45.40799" lon="2.25881">
        <ele>651</ele>
        <time>2024-09-13T05:41:23+00:00</time>
      </trkpt>
      <trkpt lat="45.40797" lon="2.25915">
        <ele>651</ele>
        <time>2024-09-13T05:41:26+00:00</time>
      </trkpt>
      <trkpt lat="45.40795" lon="2.25951">
        <ele>652</ele>
        <time>2024-09-13T05:41:29+00:00</time>
      </trkpt>
      <trkpt lat="45.40784" lon="2.26005">
        <ele>655</ele>
        <time>2024-09-13T05:41:32+00:00</time>
      </trkpt>
      <trkpt lat="45.40792" lon="2.26042">
        <ele>657</ele>
        <time>2024-09-13T05:41:35+00:00</time>
      </trkpt>
      <trkpt lat="45.40802" lon="2.26091">
        <ele>658</ele>
        <time>2024-09-13T05:41:38+00:00</time>
      </trkpt>
      <trkpt lat="45.40809" lon="2.26138">
        <ele>657</ele>
        <time>2024-09-13T05:41:41+00:00</time>
      </trkpt>
      <trkpt lat="45.40816" lon="2.26185">
        <ele>657</ele>
        <time>2024-09-13T05:41:44+00:00</time>
      </trkpt>
      <trkpt lat="45.40821" lon="2.26218">
        <ele>657</ele>
        <time>2024-09-13T05:41:47+00:00</time>
      </trkpt>
      <trkpt lat="45.40827" lon="2.26254">
        <ele>657</ele>
        <time>2024-09-13T05:41:50+00:00</time>
      </trkpt>
      <trkpt lat="45.40839" lon="2.26287">
        <ele>659</ele>
        <time>2024-09-13T05:41:53+00:00</time>
      </trkpt>
      <trkpt lat="45.40855" lon="2.26327">
        <ele>661</ele>
        <time>2024-09-13T05:41:56+00:00</time>
      </trkpt>
      <trkpt lat="45.41062" lon="2.26516">
        <ele>664.8</ele>
        <time>2024-09-13T05:42:50+00:00</time>
      </trkpt>
      <trkpt lat="45.41059" lon="2.26543">
        <ele>668</ele>
        <time>2024-09-13T05:42:53+00:00</time>
      </trkpt>
      <trkpt lat="45.41055" lon="2.26597">
        <ele>669</ele>
        <time>2024-09-13T05:42:56+00:00</time>
      </trkpt>
      <trkpt lat="45.41034" lon="2.26641">
        <ele>657.2</ele>
        <time>2024-09-13T05:42:59+00:00</time>
      </trkpt>
      <trkpt lat="45.41062" lon="2.2669">
        <ele>643.8</ele>
        <time>2024-09-13T05:43:02+00:00</time>
      </trkpt>
      <trkpt lat="45.4107" lon="2.26721">
        <ele>641</ele>
        <time>2024-09-13T05:43:05+00:00</time>
      </trkpt>
      <trkpt lat="45.41082" lon="2.26741">
        <ele>637</ele>
        <time>2024-09-13T05:43:08+00:00</time>
      </trkpt>
      <trkpt lat="45.41079" lon="2.26765">
        <ele>651</ele>
        <time>2024-09-13T05:43:11+00:00</time>
      </trkpt>
      <trkpt lat="45.41061" lon="2.26827">
        <ele>640</ele>
        <time>2024-09-13T05:43:14+00:00</time>
      </trkpt>
      <trkpt lat="45.41056" lon="2.26874">
        <ele>638</ele>
        <time>2024-09-13T05:43:17+00:00</time>
      </trkpt>
      <trkpt lat="45.4105" lon="2.26921">
        <ele>638</ele>
        <time>2024-09-13T05:43:20+00:00</time>
      </trkpt>
      <trkpt lat="45.41046" lon="2.26955">
        <ele>637</ele>
        <time>2024-09-13T05:43:23+00:00</time>
      </trkpt>
      <trkpt lat="45.41042" lon="2.2699">
        <ele>637</ele>
        <time>2024-09-13T05:43:26+00:00</time>
      </trkpt>
      <trkpt lat="45.41023" lon="2.27027">
        <ele>638</ele>
        <time>2024-09-13T05:43:29+00:00</time>
      </trkpt>
      <trkpt lat="45.41005" lon="2.27064">
        <ele>636</ele>
        <time>2024-09-13T05:43:32+00:00</time>
      </trkpt>
      <trkpt lat="45.40985" lon="2.27104">
        <ele>634</ele>
        <time>2024-09-13T05:43:35+00:00</time>
      </trkpt>
      <trkpt lat="45.40974" lon="2.27141">
        <ele>627</ele>
        <time>2024-09-13T05:43:38+00:00</time>
      </trkpt>
      <trkpt lat="45.40958" lon="2.27198">
        <ele>624</ele>
        <time>2024-09-13T05:43:41+00:00</time>
      </trkpt>
      <trkpt lat="45.40952" lon="2.27239">
        <ele>618</ele>
        <time>2024-09-13T05:43:44+00:00</time>
      </trkpt>
      <trkpt lat="45.40947" lon="2.27273">
        <ele>616</ele>
        <time>2024-09-13T05:43:47+00:00</time>
      </trkpt>
      <trkpt lat="45.40942" lon="2.27308">
        <ele>614</ele>
        <time>2024-09-13T05:43:50+00:00</time>
      </trkpt>
      <trkpt lat="45.40931" lon="2.27337">
        <ele>614</ele>
        <time>2024-09-13T05:43:53+00:00</time>
      </trkpt>
      <trkpt lat="45.40918" lon="2.27368">
        <ele>613</ele>
        <time>2024-09-13T05:43:56+00:00</time>
      </trkpt>
      <trkpt lat="45.40902" lon="2.27395">
        <ele>612</ele>
        <time>2024-09-13T05:43:59+00:00</time>
      </trkpt>
      <trkpt lat="45.40882" lon="2.27428">
        <ele>611</ele>
        <time>2024-09-13T05:44:02+00:00</time>
      </trkpt>
      <trkpt lat="45.40845" lon="2.27464">
        <ele>601</ele>
        <time>2024-09-13T05:44:05+00:00</time>
      </trkpt>
      <trkpt lat="45.40828" lon="2.27481">
        <ele>601</ele>
        <time>2024-09-13T05:44:08+00:00</time>
      </trkpt>
      <trkpt lat="45.40829" lon="2.27504">
        <ele>603</ele>
        <time>2024-09-13T05:44:11+00:00</time>
      </trkpt>
    </trkseg>
  </trk>
  <trk>
    <name><![CDATA[retour rando 15 km]]></name>
    <extensions>
      <line xmlns="http://www.topografix.com/GPX/gpx_style/0/2">
        <color>FFFF00</color>
        <width>4</width>
      </line>
    </extensions>
    <trkseg>
      <trkpt lat="45.41027" lon="2.28468">
        <ele>605</ele>
        <time>2024-09-13T05:36:47+00:00</time>
      </trkpt>
      <trkpt lat="45.40995" lon="2.28461">
        <ele>605</ele>
        <time>2024-09-13T05:36:50+00:00</time>
      </trkpt>
      <trkpt lat="45.40962" lon="2.28455">
        <ele>602</ele>
        <time>2024-09-13T05:36:53+00:00</time>
      </trkpt>
      <trkpt lat="45.40923" lon="2.28446">
        <ele>604</ele>
        <time>2024-09-13T05:36:56+00:00</time>
      </trkpt>
      <trkpt lat="45.40894" lon="2.28434">
        <ele>602</ele>
        <time>2024-09-13T05:36:59+00:00</time>
      </trkpt>
      <trkpt lat="45.4087" lon="2.28411">
        <ele>603</ele>
        <time>2024-09-13T05:37:02+00:00</time>
      </trkpt>
      <trkpt lat="45.40853" lon="2.28383">
        <ele>601</ele>
        <time>2024-09-13T05:37:05+00:00</time>
      </trkpt>
      <trkpt lat="45.40839" lon="2.28348">
        <ele>600</ele>
        <time>2024-09-13T05:37:08+00:00</time>
      </trkpt>
      <trkpt lat="45.40825" lon="2.28324">
        <ele>600</ele>
        <time>2024-09-13T05:37:11+00:00</time>
      </trkpt>
      <trkpt lat="45.40807" lon="2.28304">
        <ele>594</ele>
        <time>2024-09-13T05:37:14+00:00</time>
      </trkpt>
      <trkpt lat="45.40787" lon="2.28292">
        <ele>595</ele>
        <time>2024-09-13T05:37:17+00:00</time>
      </trkpt>
      <trkpt lat="45.4075" lon="2.28275">
        <ele>597</ele>
        <time>2024-09-13T05:37:20+00:00</time>
      </trkpt>
      <trkpt lat="45.40712" lon="2.28258">
        <ele>599</ele>
        <time>2024-09-13T05:37:23+00:00</time>
      </trkpt>
      <trkpt lat="45.40675" lon="2.28241">
        <ele>601</ele>
        <time>2024-09-13T05:37:26+00:00</time>
      </trkpt>
      <trkpt lat="45.40637" lon="2.28224">
        <ele>598</ele>
        <time>2024-09-13T05:37:29+00:00</time>
      </trkpt>
      <trkpt lat="45.406" lon="2.28207">
        <ele>596</ele>
        <time>2024-09-13T05:37:32+00:00</time>
      </trkpt>
      <trkpt lat="45.40561" lon="2.2819">
        <ele>596</ele>
        <time>2024-09-13T05:37:35+00:00</time>
      </trkpt>
      <trkpt lat="45.40505" lon="2.28239">
        <ele>594</ele>
        <time>2024-09-13T05:37:38+00:00</time>
      </trkpt>
      <trkpt lat="45.40473" lon="2.28246">
        <ele>597</ele>
        <time>2024-09-13T05:37:41+00:00</time>
      </trkpt>
      <trkpt lat="45.40442" lon="2.28253">
        <ele>598</ele>
        <time>2024-09-13T05:37:44+00:00</time>
      </trkpt>
      <trkpt lat="45.40411" lon="2.28261">
        <ele>599</ele>
        <time>2024-09-13T05:37:47+00:00</time>
      </trkpt>
      <trkpt lat="45.40392" lon="2.28296">
        <ele>600</ele>
        <time>2024-09-13T05:37:50+00:00</time>
      </trkpt>
      <trkpt lat="45.40377" lon="2.28327">
        <ele>601</ele>
        <time>2024-09-13T05:37:53+00:00</time>
      </trkpt>
      <trkpt lat="45.40356" lon="2.28367">
        <ele>603</ele>
        <time>2024-09-13T05:37:56+00:00</time>
      </trkpt>
      <trkpt lat="45.4033" lon="2.2835">
        <ele>605</ele>
        <time>2024-09-13T05:37:59+00:00</time>
      </trkpt>
      <trkpt lat="45.40287" lon="2.28323">
        <ele>608</ele>
        <time>2024-09-13T05:38:02+00:00</time>
      </trkpt>
      <trkpt lat="45.4027" lon="2.28277">
        <ele>609</ele>
        <time>2024-09-13T05:38:05+00:00</time>
      </trkpt>
      <trkpt lat="45.40253" lon="2.28232">
        <ele>607</ele>
        <time>2024-09-13T05:38:08+00:00</time>
      </trkpt>
      <trkpt lat="45.40236" lon="2.28186">
        <ele>605</ele>
        <time>2024-09-13T05:38:11+00:00</time>
      </trkpt>
      <trkpt lat="45.40216" lon="2.2813">
        <ele>603</ele>
        <time>2024-09-13T05:38:14+00:00</time>
      </trkpt>
    </trkseg>
  </trk>
  <trk>
    <name><![CDATA[Neuvicoise 2024_6]]></name>
    <desc><![CDATA[

]]></desc>
    <extensions>
      <line xmlns="http://www.topografix.com/GPX/gpx_style/0/2">
        <color>FF00FF</color>
        <width>4</width>
      </line>
    </extensions>
    <trkseg>
      <trkpt lat="45.39106" lon="2.304">
        <ele>614.8</ele>
        <time>2024-09-12T18:53:03+00:00</time>
      </trkpt>
      <trkpt lat="45.3911" lon="2.30366">
        <ele>625</ele>
        <time>2024-09-12T18:53:06+00:00</time>
      </trkpt>
      <trkpt lat="45.39145" lon="2.30393">
        <ele>628</ele>
        <time>2024-09-12T18:53:09+00:00</time>
      </trkpt>
      <trkpt lat="45.39163" lon="2.30447">
        <ele>630</ele>
        <time>2024-09-12T18:53:12+00:00</time>
      </trkpt>
      <trkpt lat="45.39178" lon="2.30474">
        <ele>632</ele>
        <time>2024-09-12T18:53:15+00:00</time>
      </trkpt>
      <trkpt lat="45.39195" lon="2.30503">
        <ele>632</ele>
        <time>2024-09-12T18:53:18+00:00</time>
      </trkpt>
      <trkpt lat="45.39215" lon="2.30522">
        <ele>632</ele>
        <time>2024-09-12T18:53:21+00:00</time>
      </trkpt>
      <trkpt lat="45.39234" lon="2.30529">
        <ele>633.6</ele>
      </trkpt>
      <trkpt lat="45.39248" lon="2.30534">
        <ele>634.2</ele>
        <time>2024-09-12T18:53:24+00:00</time>
      </trkpt>
      <trkpt lat="45.39291" lon="2.30542">
        <ele>635.9</ele>
        <time>2024-09-12T18:53:27+00:00</time>
      </trkpt>
      <trkpt lat="45.39318" lon="2.30553">
        <ele>638.8</ele>
      </trkpt>
      <trkpt lat="45.3932" lon="2.30548">
        <ele>643</ele>
        <time>2024-09-12T18:53:33+00:00</time>
      </trkpt>
      <trkpt lat="45.39342" lon="2.30567">
        <ele>645</ele>
        <time>2024-09-12T18:53:36+00:00</time>
      </trkpt>
      <trkpt lat="45.39357" lon="2.30593">
        <ele>647</ele>
        <time>2024-09-12T18:53:39+00:00</time>
      </trkpt>
      <trkpt lat="45.39385" lon="2.30618">
        <ele>648.8</ele>
        <time>2024-09-12T18:53:42+00:00</time>
      </trkpt>
      <trkpt lat="45.39377" lon="2.30654">
        <ele>649.4</ele>
      </trkpt>
      <trkpt lat="45.39381" lon="2.30687">
        <ele>651.4</ele>
        <time>2024-09-12T18:53:48+00:00</time>
      </trkpt>
      <trkpt lat="45.39475" lon="2.30674">
        <ele>649</ele>
        <time>2024-09-12T18:54:00+00:00</time>
      </trkpt>
      <trkpt lat="45.39501" lon="2.30672">
        <ele>651</ele>
        <time>2024-09-12T18:54:03+00:00</time>
      </trkpt>
      <trkpt lat="45.3953" lon="2.3067">
        <ele>651</ele>
        <time>2024-09-12T18:54:06+00:00</time>
      </trkpt>
      <trkpt lat="45.39556" lon="2.30667">
        <ele>651</ele>
        <time>2024-09-12T18:54:09+00:00</time>
      </trkpt>
      <trkpt lat="45.39585" lon="2.30663">
        <ele>651</ele>
        <time>2024-09-12T18:54:12+00:00</time>
      </trkpt>
      <trkpt lat="45.39608" lon="2.3065">
        <ele>652</ele>
        <time>2024-09-12T18:54:15+00:00</time>
      </trkpt>
      <trkpt lat="45.39628" lon="2.30614">
        <ele>653</ele>
        <time>2024-09-12T18:54:18+00:00</time>
      </trkpt>
      <trkpt lat="45.39634" lon="2.30572">
        <ele>653</ele>
        <time>2024-09-12T18:54:21+00:00</time>
      </trkpt>
      <trkpt lat="45.39628" lon="2.30537">
        <ele>653</ele>
        <time>2024-09-12T18:54:24+00:00</time>
      </trkpt>
      <trkpt lat="45.39646" lon="2.30506">
        <ele>656</ele>
        <time>2024-09-12T18:54:27+00:00</time>
      </trkpt>
      <trkpt lat="45.39702" lon="2.30506">
        <ele>659</ele>
        <time>2024-09-12T18:54:30+00:00</time>
      </trkpt>
      <trkpt lat="45.39741" lon="2.30498">
        <ele>670</ele>
        <time>2024-09-12T18:54:33+00:00</time>
      </trkpt>
      <trkpt lat="45.39774" lon="2.3048">
        <ele>673</ele>
        <time>2024-09-12T18:54:36+00:00</time>
      </trkpt>
      <trkpt lat="45.39813" lon="2.30494">
        <ele>674</ele>
        <time>2024-09-12T18:54:39+00:00</time>
      </trkpt>
      <trkpt lat="45.39834" lon="2.30513">
        <ele>672</ele>
        <time>2024-09-12T18:54:42+00:00</time>
      </trkpt>
      <trkpt lat="45.39851" lon="2.30551">
        <ele>671</ele>
        <time>2024-09-12T18:54:45+00:00</time>
      </trkpt>
      <trkpt lat="45.39853" lon="2.30584">
        <ele>669</ele>
        <time>2024-09-12T18:54:48+00:00</time>
      </trkpt>
      <trkpt lat="45.39848" lon="2.3065">
        <ele>667</ele>
        <time>2024-09-12T18:54:51+00:00</time>
      </trkpt>
      <trkpt lat="45.39855" lon="2.30676">
        <ele>665</ele>
        <time>2024-09-12T18:54:54+00:00</time>
      </trkpt>
      <trkpt lat="45.3987" lon="2.30701">
        <ele>664</ele>
        <time>2024-09-12T18:54:57+00:00</time>
      </trkpt>
      <trkpt lat="45.39915" lon="2.30718">
        <ele>658</ele>
        <time>2024-09-12T18:55:00+00:00</time>
      </trkpt>
      <trkpt lat="45.39948" lon="2.30733">
        <ele>655</ele>
        <time>2024-09-12T18:55:03+00:00</time>
      </trkpt>
      <trkpt lat="45.39973" lon="2.30739">
        <ele>654</ele>
        <time>2024-09-12T18:55:06+00:00</time>
      </trkpt>
      <trkpt lat="45.40009" lon="2.30733">
        <ele>653</ele>
        <time>2024-09-12T18:55:09+00:00</time>
      </trkpt>
      <trkpt lat="45.40034" lon="2.30723">
        <ele>653</ele>
        <time>2024-09-12T18:55:12+00:00</time>
      </trkpt>
      <trkpt lat="45.40063" lon="2.3071">
        <ele>660</ele>
        <time>2024-09-12T18:55:15+00:00</time>
      </trkpt>
      <trkpt lat="45.40096" lon="2.30679">
        <ele>664</ele>
        <time>2024-09-12T18:55:18+00:00</time>
      </trkpt>
      <trkpt lat="45.40123" lon="2.30682">
        <ele>664</ele>
        <time>2024-09-12T18:55:21+00:00</time>
      </trkpt>
      <trkpt lat="45.40158" lon="2.3066">
        <ele>663</ele>
        <time>2024-09-12T18:55:24+00:00</time>
      </trkpt>
      <trkpt lat="45.40182" lon="2.30637">
        <ele>663</ele>
        <time>2024-09-12T18:55:27+00:00</time>
      </trkpt>
      <trkpt lat="45.40221" lon="2.306">
        <ele>664</ele>
        <time>2024-09-12T18:55:30+00:00</time>
      </trkpt>
      <trkpt lat="45.40248" lon="2.30574">
        <ele>666</ele>
        <time>2024-09-12T18:55:33+00:00</time>
      </trkpt>
      <trkpt lat="45.40275" lon="2.30548">
        <ele>665</ele>
        <time>2024-09-12T18:55:36+00:00</time>
      </trkpt>
      <trkpt lat="45.40306" lon="2.30518">
        <ele>665</ele>
        <time>2024-09-12T18:55:39+00:00</time>
      </trkpt>
      <trkpt lat="45.40353" lon="2.30495">
        <ele>666</ele>
        <time>2024-09-12T18:55:42+00:00</time>
      </trkpt>
      <trkpt lat="45.4039" lon="2.30476">
        <ele>667</ele>
        <time>2024-09-12T18:55:45+00:00</time>
      </trkpt>
      <trkpt lat="45.40483" lon="2.30434">
        <ele>676</ele>
        <time>2024-09-12T18:55:48+00:00</time>
      </trkpt>
      <trkpt lat="45.40513" lon="2.30424">
        <ele>676</ele>
        <time>2024-09-12T18:55:51+00:00</time>
      </trkpt>
      <trkpt lat="45.40542" lon="2.30419">
        <ele>672</ele>
        <time>2024-09-12T18:55:54+00:00</time>
      </trkpt>
      <trkpt lat="45.40575" lon="2.30427">
        <ele>669</ele>
        <time>2024-09-12T18:55:57+00:00</time>
      </trkpt>
      <trkpt lat="45.40605" lon="2.30442">
        <ele>670</ele>
        <time>2024-09-12T18:56:00+00:00</time>
      </trkpt>
      <trkpt lat="45.40625" lon="2.30468">
        <ele>666</ele>
        <time>2024-09-12T18:56:03+00:00</time>
      </trkpt>
      <trkpt lat="45.40643" lon="2.30489">
        <ele>665</ele>
        <time>2024-09-12T18:56:06+00:00</time>
      </trkpt>
      <trkpt lat="45.40672" lon="2.30493">
        <ele>665</ele>
        <time>2024-09-12T18:56:09+00:00</time>
      </trkpt>
      <trkpt lat="45.40699" lon="2.30497">
        <ele>662</ele>
        <time>2024-09-12T18:56:12+00:00</time>
      </trkpt>
      <trkpt lat="45.40734" lon="2.30501">
        <ele>662</ele>
        <time>2024-09-12T18:56:15+00:00</time>
      </trkpt>
      <trkpt lat="45.40762" lon="2.3049">
        <ele>660</ele>
        <time>2024-09-12T18:56:18+00:00</time>
      </trkpt>
      <trkpt lat="45.40807" lon="2.30472">
        <ele>659</ele>
        <time>2024-09-12T18:56:21+00:00</time>
      </trkpt>
      <trkpt lat="45.40824" lon="2.30447">
        <ele>659</ele>
        <time>2024-09-12T18:56:24+00:00</time>
      </trkpt>
      <trkpt lat="45.40845" lon="2.30413">
        <ele>659</ele>
        <time>2024-09-12T18:56:27+00:00</time>
      </trkpt>
      <trkpt lat="45.4085" lon="2.30374">
        <ele>665</ele>
        <time>2024-09-12T18:56:30+00:00</time>
      </trkpt>
      <trkpt lat="45.40844" lon="2.30337">
        <ele>665</ele>
        <time>2024-09-12T18:56:33+00:00</time>
      </trkpt>
      <trkpt lat="45.40868" lon="2.30316">
        <ele>664</ele>
        <time>2024-09-12T18:56:36+00:00</time>
      </trkpt>
      <trkpt lat="45.40906" lon="2.30297">
        <ele>663</ele>
        <time>2024-09-12T18:56:39+00:00</time>
      </trkpt>
      <trkpt lat="45.40937" lon="2.30284">
        <ele>663</ele>
        <time>2024-09-12T18:56:42+00:00</time>
      </trkpt>
      <trkpt lat="45.4101" lon="2.30284">
        <ele>653</ele>
        <time>2024-09-12T18:56:45+00:00</time>
      </trkpt>
      <trkpt lat="45.4104" lon="2.30268">
        <ele>651</ele>
        <time>2024-09-12T18:56:48+00:00</time>
      </trkpt>
      <trkpt lat="45.41071" lon="2.30241">
        <ele>644</ele>
        <time>2024-09-12T18:56:51+00:00</time>
      </trkpt>
      <trkpt lat="45.41101" lon="2.30214">
        <ele>638</ele>
        <time>2024-09-12T18:56:54+00:00</time>
      </trkpt>
      <trkpt lat="45.41131" lon="2.30187">
        <ele>635</ele>
        <time>2024-09-12T18:56:57+00:00</time>
      </trkpt>
      <trkpt lat="45.41162" lon="2.30158">
        <ele>629</ele>
        <time>2024-09-12T18:57:00+00:00</time>
      </trkpt>
      <trkpt lat="45.41181" lon="2.30143">
        <ele>629</ele>
        <time>2024-09-12T18:57:03+00:00</time>
      </trkpt>
      <trkpt lat="45.41222" lon="2.3005">
        <ele>623</ele>
        <time>2024-09-12T18:57:06+00:00</time>
      </trkpt>
      <trkpt lat="45.41246" lon="2.29994">
        <ele>613</ele>
        <time>2024-09-12T18:57:09+00:00</time>
      </trkpt>
      <trkpt lat="45.41262" lon="2.29969">
        <ele>613</ele>
        <time>2024-09-12T18:57:12+00:00</time>
      </trkpt>
      <trkpt lat="45.41278" lon="2.29945">
        <ele>614</ele>
        <time>2024-09-12T18:57:15+00:00</time>
      </trkpt>
      <trkpt lat="45.41285" lon="2.29904">
        <ele>613</ele>
        <time>2024-09-12T18:57:18+00:00</time>
      </trkpt>
      <trkpt lat="45.41289" lon="2.29847">
        <ele>613</ele>
        <time>2024-09-12T18:57:21+00:00</time>
      </trkpt>
      <trkpt lat="45.41306" lon="2.29794">
        <ele>612</ele>
        <time>2024-09-12T18:57:24+00:00</time>
      </trkpt>
      <trkpt lat="45.4133" lon="2.29742">
        <ele>612</ele>
        <time>2024-09-12T18:57:27+00:00</time>
      </trkpt>
      <trkpt lat="45.41352" lon="2.29727">
        <ele>609</ele>
        <time>2024-09-12T18:57:30+00:00</time>
      </trkpt>
      <trkpt lat="45.41375" lon="2.29723">
        <ele>609</ele>
        <time>2024-09-12T18:57:33+00:00</time>
      </trkpt>
      <trkpt lat="45.4141" lon="2.29722">
        <ele>608</ele>
        <time>2024-09-12T18:57:36+00:00</time>
      </trkpt>
      <trkpt lat="45.41428" lon="2.297">
        <ele>608</ele>
        <time>2024-09-12T18:57:39+00:00</time>
      </trkpt>
      <trkpt lat="45.41442" lon="2.29673">
        <ele>608</ele>
        <time>2024-09-12T18:57:42+00:00</time>
      </trkpt>
      <trkpt lat="45.41458" lon="2.2964">
        <ele>614</ele>
        <time>2024-09-12T18:57:45+00:00</time>
      </trkpt>
      <trkpt lat="45.41464" lon="2.29613">
        <ele>614</ele>
        <time>2024-09-12T18:57:48+00:00</time>
      </trkpt>
      <trkpt lat="45.41436" lon="2.29561">
        <ele>614</ele>
        <time>2024-09-12T18:57:51+00:00</time>
      </trkpt>
      <trkpt lat="45.41414" lon="2.29538">
        <ele>614</ele>
        <time>2024-09-12T18:57:54+00:00</time>
      </trkpt>
      <trkpt lat="45.41391" lon="2.29524">
        <ele>613</ele>
        <time>2024-09-12T18:57:57+00:00</time>
      </trkpt>
      <trkpt lat="45.41356" lon="2.29514">
        <ele>612</ele>
        <time>2024-09-12T18:58:00+00:00</time>
      </trkpt>
      <trkpt lat="45.41321" lon="2.29503">
        <ele>608</ele>
        <time>2024-09-12T18:58:03+00:00</time>
      </trkpt>
      <trkpt lat="45.41295" lon="2.29465">
        <ele>600.1</ele>
      </trkpt>
      <trkpt lat="45.41242" lon="2.29409">
        <ele>601.8</ele>
        <time>2024-09-12T18:58:06+00:00</time>
      </trkpt>
      <trkpt lat="45.41203" lon="2.29386">
        <ele>600.3</ele>
        <time>2024-09-12T18:58:09+00:00</time>
      </trkpt>
      <trkpt lat="45.41186" lon="2.29458">
        <ele>599.9</ele>
      </trkpt>
      <trkpt lat="45.41159" lon="2.29486">
        <ele>604</ele>
        <time>2024-09-12T18:58:12+00:00</time>
      </trkpt>
      <trkpt lat="45.41135" lon="2.29475">
        <ele>599.7</ele>
        <time>2024-09-12T18:58:15+00:00</time>
      </trkpt>
      <trkpt lat="45.41093" lon="2.29383">
        <ele>600.4</ele>
        <time>2024-09-12T18:58:18+00:00</time>
      </trkpt>
      <trkpt lat="45.41054" lon="2.29363">
        <ele>601.2</ele>
        <time>2024-09-12T18:58:21+00:00</time>
      </trkpt>
      <trkpt lat="45.40987" lon="2.29389">
        <ele>602</ele>
        <time>2024-09-12T18:58:24+00:00</time>
      </trkpt>
      <trkpt lat="45.40978" lon="2.29351">
        <ele>602.6</ele>
      </trkpt>
      <trkpt lat="45.41" lon="2.29328">
        <ele>601.4</ele>
        <time>2024-09-12T18:58:27+00:00</time>
      </trkpt>
      <trkpt lat="45.40984" lon="2.29245">
        <ele>601.4</ele>
        <time>2024-09-12T18:58:30+00:00</time>
      </trkpt>
      <trkpt lat="45.40937" lon="2.29216">
        <ele>601.5</ele>
        <time>2024-09-12T18:58:33+00:00</time>
      </trkpt>
      <trkpt lat="45.40898" lon="2.29191">
        <ele>598</ele>
        <time>2024-09-12T18:58:36+00:00</time>
      </trkpt>
      <trkpt lat="45.40894" lon="2.29042">
        <ele>595</ele>
        <time>2024-09-12T18:58:39+00:00</time>
      </trkpt>
      <trkpt lat="45.40893" lon="2.29007">
        <ele>595</ele>
        <time>2024-09-12T18:58:42+00:00</time>
      </trkpt>
      <trkpt lat="45.40885" lon="2.28959">
        <ele>602</ele>
        <time>2024-09-12T18:58:45+00:00</time>
      </trkpt>
      <trkpt lat="45.40818" lon="2.29019">
        <ele>602.2</ele>
      </trkpt>
      <trkpt lat="45.4079" lon="2.29039">
        <ele>601.9</ele>
      </trkpt>
      <trkpt lat="45.40754" lon="2.29029">
        <ele>601.3</ele>
        <time>2024-09-12T18:58:48+00:00</time>
      </trkpt>
      <trkpt lat="45.40723" lon="2.28983">
        <ele>601.6</ele>
        <time>2024-09-12T18:58:51+00:00</time>
      </trkpt>
      <trkpt lat="45.40705" lon="2.28957">
        <ele>600.9</ele>
        <time>2024-09-12T18:58:54+00:00</time>
      </trkpt>
      <trkpt lat="45.40705" lon="2.28931">
        <ele>608</ele>
        <time>2024-09-12T18:58:57+00:00</time>
      </trkpt>
      <trkpt lat="45.40693" lon="2.28873">
        <ele>601.3</ele>
        <time>2024-09-12T18:59:00+00:00</time>
      </trkpt>
      <trkpt lat="45.40712" lon="2.28821">
        <ele>602.5</ele>
        <time>2024-09-12T18:59:03+00:00</time>
      </trkpt>
      <trkpt lat="45.40735" lon="2.2879">
        <ele>603.5</ele>
        <time>2024-09-12T18:59:06+00:00</time>
      </trkpt>
      <trkpt lat="45.40738" lon="2.28756">
        <ele>601.7</ele>
        <time>2024-09-12T18:59:09+00:00</time>
      </trkpt>
      <trkpt lat="45.40772" lon="2.28711">
        <ele>601.1</ele>
        <time>2024-09-12T18:59:12+00:00</time>
      </trkpt>
      <trkpt lat="45.40813" lon="2.28681">
        <ele>600.7</ele>
      </trkpt>
      <trkpt lat="45.40832" lon="2.28661">
        <ele>600.6</ele>
        <time>2024-09-12T18:59:18+00:00</time>
      </trkpt>
      <trkpt lat="45.40854" lon="2.286">
        <ele>600.8</ele>
        <time>2024-09-12T18:59:21+00:00</time>
      </trkpt>
      <trkpt lat="45.40911" lon="2.28544">
        <ele>600.7</ele>
        <time>2024-09-12T18:59:24+00:00</time>
      </trkpt>
      <trkpt lat="45.40975" lon="2.2861">
        <ele>607.8</ele>
        <time>2024-09-12T18:59:27+00:00</time>
      </trkpt>
      <trkpt lat="45.4099" lon="2.28609">
        <ele>602</ele>
        <time>2024-09-12T18:59:30+00:00</time>
      </trkpt>
      <trkpt lat="45.4103" lon="2.28576">
        <ele>602</ele>
        <time>2024-09-12T18:59:33+00:00</time>
      </trkpt>
      <trkpt lat="45.41049" lon="2.28555">
        <ele>603</ele>
        <time>2024-09-12T18:59:36+00:00</time>
      </trkpt>
      <trkpt lat="45.41067" lon="2.28516">
        <ele>603</ele>
        <time>2024-09-12T18:59:39+00:00</time>
      </trkpt>
      <trkpt lat="45.41077" lon="2.28489">
        <ele>604</ele>
        <time>2024-09-12T18:59:42+00:00</time>
      </trkpt>
      <trkpt lat="45.41058" lon="2.28478">
        <ele>605</ele>
        <time>2024-09-12T18:59:45+00:00</time>
      </trkpt>
      <trkpt lat="45.41025" lon="2.28456">
        <ele>608.2</ele>
        <time>2024-09-12T18:59:48+00:00</time>
      </trkpt>
      <trkpt lat="45.41066" lon="2.28449">
        <ele>605</ele>
        <time>2024-09-12T18:59:51+00:00</time>
      </trkpt>
      <trkpt lat="45.41096" lon="2.28448">
        <ele>605</ele>
        <time>2024-09-12T18:59:54+00:00</time>
      </trkpt>
      <trkpt lat="45.41146" lon="2.28445">
        <ele>606</ele>
        <time>2024-09-12T18:59:57+00:00</time>
      </trkpt>
      <trkpt lat="45.41174" lon="2.28455">
        <ele>615</ele>
        <time>2024-09-12T19:00:00+00:00</time>
      </trkpt>
      <trkpt lat="45.41217" lon="2.28471">
        <ele>615</ele>
        <time>2024-09-12T19:00:03+00:00</time>
      </trkpt>
      <trkpt lat="45.41246" lon="2.28475">
        <ele>615</ele>
        <time>2024-09-12T19:00:06+00:00</time>
      </trkpt>
      <trkpt lat="45.41293" lon="2.28483">
        <ele>615</ele>
        <time>2024-09-12T19:00:09+00:00</time>
      </trkpt>
      <trkpt lat="45.41324" lon="2.28486">
        <ele>616</ele>
        <time>2024-09-12T19:00:12+00:00</time>
      </trkpt>
      <trkpt lat="45.41376" lon="2.2849">
        <ele>616</ele>
        <time>2024-09-12T19:00:15+00:00</time>
      </trkpt>
      <trkpt lat="45.41409" lon="2.28466">
        <ele>617</ele>
        <time>2024-09-12T19:00:18+00:00</time>
      </trkpt>
      <trkpt lat="45.41441" lon="2.28442">
        <ele>619</ele>
        <time>2024-09-12T19:00:21+00:00</time>
      </trkpt>
      <trkpt lat="45.41473" lon="2.28418">
        <ele>622</ele>
        <time>2024-09-12T19:00:24+00:00</time>
      </trkpt>
      <trkpt lat="45.41515" lon="2.28387">
        <ele>629</ele>
        <time>2024-09-12T19:00:27+00:00</time>
      </trkpt>
      <trkpt lat="45.41547" lon="2.28366">
        <ele>635</ele>
        <time>2024-09-12T19:00:30+00:00</time>
      </trkpt>
      <trkpt lat="45.41579" lon="2.28345">
        <ele>642</ele>
        <time>2024-09-12T19:00:33+00:00</time>
      </trkpt>
      <trkpt lat="45.41643" lon="2.28303">
        <ele>643</ele>
        <time>2024-09-12T19:00:36+00:00</time>
      </trkpt>
      <trkpt lat="45.41668" lon="2.28291">
        <ele>644</ele>
        <time>2024-09-12T19:00:39+00:00</time>
      </trkpt>
      <trkpt lat="45.41702" lon="2.28275">
        <ele>644</ele>
        <time>2024-09-12T19:00:42+00:00</time>
      </trkpt>
      <trkpt lat="45.41735" lon="2.28257">
        <ele>642</ele>
        <time>2024-09-12T19:00:45+00:00</time>
      </trkpt>
      <trkpt lat="45.41768" lon="2.28238">
        <ele>641</ele>
        <time>2024-09-12T19:00:48+00:00</time>
      </trkpt>
      <trkpt lat="45.41801" lon="2.2822">
        <ele>638</ele>
        <time>2024-09-12T19:00:51+00:00</time>
      </trkpt>
      <trkpt lat="45.41836" lon="2.282">
        <ele>641</ele>
        <time>2024-09-12T19:00:54+00:00</time>
      </trkpt>
      <trkpt lat="45.41855" lon="2.28174">
        <ele>645</ele>
        <time>2024-09-12T19:00:57+00:00</time>
      </trkpt>
      <trkpt lat="45.41879" lon="2.2814">
        <ele>646</ele>
        <time>2024-09-12T19:01:00+00:00</time>
      </trkpt>
      <trkpt lat="45.41908" lon="2.28121">
        <ele>643</ele>
        <time>2024-09-12T19:01:03+00:00</time>
      </trkpt>
      <trkpt lat="45.41964" lon="2.28082">
        <ele>645</ele>
        <time>2024-09-12T19:01:06+00:00</time>
      </trkpt>
      <trkpt lat="45.41993" lon="2.28037">
        <ele>648</ele>
        <time>2024-09-12T19:01:09+00:00</time>
      </trkpt>
      <trkpt lat="45.41989" lon="2.28">
        <ele>650</ele>
        <time>2024-09-12T19:01:12+00:00</time>
      </trkpt>
      <trkpt lat="45.41984" lon="2.27955">
        <ele>650</ele>
        <time>2024-09-12T19:01:15+00:00</time>
      </trkpt>
      <trkpt lat="45.41981" lon="2.27916">
        <ele>650</ele>
        <time>2024-09-12T19:01:18+00:00</time>
      </trkpt>
      <trkpt lat="45.41976" lon="2.27861">
        <ele>654</ele>
        <time>2024-09-12T19:01:21+00:00</time>
      </trkpt>
      <trkpt lat="45.41938" lon="2.27824">
        <ele>656</ele>
        <time>2024-09-12T19:01:24+00:00</time>
      </trkpt>
      <trkpt lat="45.4193" lon="2.27782">
        <ele>654</ele>
        <time>2024-09-12T19:01:27+00:00</time>
      </trkpt>
      <trkpt lat="45.41923" lon="2.27742">
        <ele>653</ele>
        <time>2024-09-12T19:01:30+00:00</time>
      </trkpt>
      <trkpt lat="45.41911" lon="2.27679">
        <ele>642</ele>
        <time>2024-09-12T19:01:33+00:00</time>
      </trkpt>
      <trkpt lat="45.4191" lon="2.27645">
        <ele>640</ele>
        <time>2024-09-12T19:01:36+00:00</time>
      </trkpt>
      <trkpt lat="45.41908" lon="2.27611">
        <ele>638</ele>
        <time>2024-09-12T19:01:39+00:00</time>
      </trkpt>
      <trkpt lat="45.41914" lon="2.27567">
        <ele>632</ele>
        <time>2024-09-12T19:01:42+00:00</time>
      </trkpt>
      <trkpt lat="45.41921" lon="2.27523">
        <ele>630</ele>
        <time>2024-09-12T19:01:45+00:00</time>
      </trkpt>
      <trkpt lat="45.41927" lon="2.27477">
        <ele>629</ele>
        <time>2024-09-12T19:01:48+00:00</time>
      </trkpt>
      <trkpt lat="45.41897" lon="2.27498">
        <ele>628</ele>
        <time>2024-09-12T19:01:51+00:00</time>
      </trkpt>
      <trkpt lat="45.41868" lon="2.27519">
        <ele>628</ele>
        <time>2024-09-12T19:01:54+00:00</time>
      </trkpt>
      <trkpt lat="45.41827" lon="2.27547">
        <ele>629</ele>
        <time>2024-09-12T19:01:57+00:00</time>
      </trkpt>
      <trkpt lat="45.4178" lon="2.27552">
        <ele>629</ele>
        <time>2024-09-12T19:02:00+00:00</time>
      </trkpt>
      <trkpt lat="45.41756" lon="2.27532">
        <ele>627</ele>
        <time>2024-09-12T19:02:03+00:00</time>
      </trkpt>
      <trkpt lat="45.41721" lon="2.27504">
        <ele>629</ele>
        <time>2024-09-12T19:02:06+00:00</time>
      </trkpt>
      <trkpt lat="45.41691" lon="2.27493">
        <ele>629</ele>
        <time>2024-09-12T19:02:09+00:00</time>
      </trkpt>
      <trkpt lat="45.41638" lon="2.27475">
        <ele>626</ele>
        <time>2024-09-12T19:02:12+00:00</time>
      </trkpt>
      <trkpt lat="45.4161" lon="2.27463">
        <ele>623</ele>
        <time>2024-09-12T19:02:15+00:00</time>
      </trkpt>
      <trkpt lat="45.41563" lon="2.27444">
        <ele>615</ele>
        <time>2024-09-12T19:02:18+00:00</time>
      </trkpt>
      <trkpt lat="45.41536" lon="2.27464">
        <ele>612</ele>
        <time>2024-09-12T19:02:21+00:00</time>
      </trkpt>
      <trkpt lat="45.41485" lon="2.27502">
        <ele>606</ele>
        <time>2024-09-12T19:02:24+00:00</time>
      </trkpt>
      <trkpt lat="45.41463" lon="2.27512">
        <ele>606</ele>
        <time>2024-09-12T19:02:27+00:00</time>
      </trkpt>
      <trkpt lat="45.41444" lon="2.27497">
        <ele>607</ele>
        <time>2024-09-12T19:02:30+00:00</time>
      </trkpt>
      <trkpt lat="45.41419" lon="2.27485">
        <ele>608</ele>
        <time>2024-09-12T19:02:33+00:00</time>
      </trkpt>
      <trkpt lat="45.41399" lon="2.27467">
        <ele>608</ele>
        <time>2024-09-12T19:02:36+00:00</time>
      </trkpt>
      <trkpt lat="45.41379" lon="2.27455">
        <ele>607</ele>
        <time>2024-09-12T19:02:39+00:00</time>
      </trkpt>
      <trkpt lat="45.41368" lon="2.27478">
        <ele>607</ele>
        <time>2024-09-12T19:02:42+00:00</time>
      </trkpt>
      <trkpt lat="45.41355" lon="2.27418">
        <ele>607</ele>
        <time>2024-09-12T19:02:45+00:00</time>
      </trkpt>
      <trkpt lat="45.41346" lon="2.27385">
        <ele>605</ele>
        <time>2024-09-12T19:02:48+00:00</time>
      </trkpt>
      <trkpt lat="45.41336" lon="2.27349">
        <ele>604</ele>
        <time>2024-09-12T19:02:51+00:00</time>
      </trkpt>
      <trkpt lat="45.41347" lon="2.2731">
        <ele>602</ele>
        <time>2024-09-12T19:02:54+00:00</time>
      </trkpt>
      <trkpt lat="45.41362" lon="2.27285">
        <ele>600</ele>
        <time>2024-09-12T19:02:57+00:00</time>
      </trkpt>
      <trkpt lat="45.41351" lon="2.27225">
        <ele>598</ele>
        <time>2024-09-12T19:03:00+00:00</time>
      </trkpt>
      <trkpt lat="45.41354" lon="2.27179">
        <ele>598</ele>
        <time>2024-09-12T19:03:03+00:00</time>
      </trkpt>
      <trkpt lat="45.41382" lon="2.2714">
        <ele>595</ele>
        <time>2024-09-12T19:03:06+00:00</time>
      </trkpt>
      <trkpt lat="45.41425" lon="2.2712">
        <ele>596</ele>
        <time>2024-09-12T19:03:09+00:00</time>
      </trkpt>
      <trkpt lat="45.41464" lon="2.27105">
        <ele>594</ele>
        <time>2024-09-12T19:03:12+00:00</time>
      </trkpt>
      <trkpt lat="45.41488" lon="2.27099">
        <ele>596</ele>
        <time>2024-09-12T19:03:15+00:00</time>
      </trkpt>
      <trkpt lat="45.41512" lon="2.27093">
        <ele>598</ele>
        <time>2024-09-12T19:03:18+00:00</time>
      </trkpt>
      <trkpt lat="45.41551" lon="2.27109">
        <ele>607</ele>
        <time>2024-09-12T19:03:21+00:00</time>
      </trkpt>
      <trkpt lat="45.41581" lon="2.27117">
        <ele>618</ele>
        <time>2024-09-12T19:03:24+00:00</time>
      </trkpt>
      <trkpt lat="45.41619" lon="2.27137">
        <ele>618</ele>
        <time>2024-09-12T19:03:27+00:00</time>
      </trkpt>
      <trkpt lat="45.41656" lon="2.27161">
        <ele>613</ele>
        <time>2024-09-12T19:03:30+00:00</time>
      </trkpt>
      <trkpt lat="45.41692" lon="2.27186">
        <ele>612</ele>
        <time>2024-09-12T19:03:33+00:00</time>
      </trkpt>
      <trkpt lat="45.41729" lon="2.27211">
        <ele>612</ele>
        <time>2024-09-12T19:03:36+00:00</time>
      </trkpt>
      <trkpt lat="45.41765" lon="2.27235">
        <ele>610</ele>
        <time>2024-09-12T19:03:39+00:00</time>
      </trkpt>
      <trkpt lat="45.41801" lon="2.2726">
        <ele>601</ele>
        <time>2024-09-12T19:03:42+00:00</time>
      </trkpt>
      <trkpt lat="45.41837" lon="2.27287">
        <ele>599</ele>
        <time>2024-09-12T19:03:45+00:00</time>
      </trkpt>
      <trkpt lat="45.41859" lon="2.2729">
        <ele>596</ele>
        <time>2024-09-12T19:03:48+00:00</time>
      </trkpt>
      <trkpt lat="45.41895" lon="2.27281">
        <ele>596</ele>
        <time>2024-09-12T19:03:51+00:00</time>
      </trkpt>
      <trkpt lat="45.41923" lon="2.27258">
        <ele>596</ele>
        <time>2024-09-12T19:03:54+00:00</time>
      </trkpt>
      <trkpt lat="45.41953" lon="2.27212">
        <ele>596</ele>
        <time>2024-09-12T19:03:57+00:00</time>
      </trkpt>
      <trkpt lat="45.41984" lon="2.27202">
        <ele>595</ele>
        <time>2024-09-12T19:04:00+00:00</time>
      </trkpt>
      <trkpt lat="45.42013" lon="2.27174">
        <ele>595</ele>
        <time>2024-09-12T19:04:03+00:00</time>
      </trkpt>
      <trkpt lat="45.42053" lon="2.2717">
        <ele>602.3</ele>
        <time>2024-09-12T19:04:06+00:00</time>
      </trkpt>
      <trkpt lat="45.42068" lon="2.27121">
        <ele>596</ele>
        <time>2024-09-12T19:04:09+00:00</time>
      </trkpt>
      <trkpt lat="45.42074" lon="2.27064">
        <ele>610</ele>
        <time>2024-09-12T19:04:12+00:00</time>
      </trkpt>
      <trkpt lat="45.4208" lon="2.27008">
        <ele>613</ele>
        <time>2024-09-12T19:04:15+00:00</time>
      </trkpt>
      <trkpt lat="45.42062" lon="2.26954">
        <ele>604.1</ele>
        <time>2024-09-12T19:04:18+00:00</time>
      </trkpt>
      <trkpt lat="45.42061" lon="2.26883">
        <ele>601.4</ele>
        <time>2024-09-12T19:04:24+00:00</time>
      </trkpt>
      <trkpt lat="45.42083" lon="2.26824">
        <ele>605</ele>
        <time>2024-09-12T19:04:27+00:00</time>
      </trkpt>
      <trkpt lat="45.42088" lon="2.26786">
        <ele>598</ele>
        <time>2024-09-12T19:04:30+00:00</time>
      </trkpt>
      <trkpt lat="45.42094" lon="2.26737">
        <ele>597</ele>
        <time>2024-09-12T19:04:33+00:00</time>
      </trkpt>
      <trkpt lat="45.42119" lon="2.26731">
        <ele>597</ele>
        <time>2024-09-12T19:04:36+00:00</time>
      </trkpt>
      <trkpt lat="45.42147" lon="2.267">
        <ele>600.5</ele>
      </trkpt>
      <trkpt lat="45.42237" lon="2.26681">
        <ele>600.6</ele>
        <time>2024-09-12T19:04:48+00:00</time>
      </trkpt>
      <trkpt lat="45.42271" lon="2.2668">
        <ele>598</ele>
        <time>2024-09-12T19:04:51+00:00</time>
      </trkpt>
      <trkpt lat="45.42302" lon="2.26681">
        <ele>599</ele>
        <time>2024-09-12T19:04:54+00:00</time>
      </trkpt>
      <trkpt lat="45.42327" lon="2.26681">
        <ele>596</ele>
        <time>2024-09-12T19:04:57+00:00</time>
      </trkpt>
      <trkpt lat="45.42356" lon="2.26682">
        <ele>600</ele>
        <time>2024-09-12T19:05:00+00:00</time>
      </trkpt>
      <trkpt lat="45.42376" lon="2.26703">
        <ele>605</ele>
        <time>2024-09-12T19:05:03+00:00</time>
      </trkpt>
      <trkpt lat="45.42401" lon="2.26728">
        <ele>613</ele>
        <time>2024-09-12T19:05:06+00:00</time>
      </trkpt>
      <trkpt lat="45.42423" lon="2.26747">
        <ele>613</ele>
        <time>2024-09-12T19:05:09+00:00</time>
      </trkpt>
      <trkpt lat="45.42456" lon="2.26784">
        <ele>608.5</ele>
        <time>2024-09-12T19:05:12+00:00</time>
      </trkpt>
      <trkpt lat="45.42473" lon="2.26757">
        <ele>614</ele>
        <time>2024-09-12T19:05:15+00:00</time>
      </trkpt>
      <trkpt lat="45.42504" lon="2.26711">
        <ele>609</ele>
        <time>2024-09-12T19:05:21+00:00</time>
      </trkpt>
      <trkpt lat="45.42512" lon="2.26675">
        <ele>591</ele>
        <time>2024-09-12T19:05:24+00:00</time>
      </trkpt>
      <trkpt lat="45.42582" lon="2.26647">
        <ele>602.6</ele>
        <time>2024-09-12T19:05:27+00:00</time>
      </trkpt>
      <trkpt lat="45.42608" lon="2.26606">
        <ele>600.7</ele>
        <time>2024-09-12T19:05:30+00:00</time>
      </trkpt>
      <trkpt lat="45.42636" lon="2.26569">
        <ele>600.5</ele>
        <time>2024-09-12T19:05:33+00:00</time>
      </trkpt>
      <trkpt lat="45.42668" lon="2.26542">
        <ele>601.2</ele>
        <time>2024-09-12T19:05:36+00:00</time>
      </trkpt>
      <trkpt lat="45.4268" lon="2.26502">
        <ele>594</ele>
        <time>2024-09-12T19:05:39+00:00</time>
      </trkpt>
      <trkpt lat="45.42701" lon="2.26445">
        <ele>601.3</ele>
        <time>2024-09-12T19:05:42+00:00</time>
      </trkpt>
      <trkpt lat="45.42734" lon="2.26389">
        <ele>601.4</ele>
        <time>2024-09-12T19:05:45+00:00</time>
      </trkpt>
      <trkpt lat="45.42772" lon="2.26376">
        <ele>602.3</ele>
        <time>2024-09-12T19:05:48+00:00</time>
      </trkpt>
      <trkpt lat="45.4282" lon="2.2637">
        <ele>596</ele>
        <time>2024-09-12T19:05:51+00:00</time>
      </trkpt>
      <trkpt lat="45.42844" lon="2.26348">
        <ele>594</ele>
        <time>2024-09-12T19:05:54+00:00</time>
      </trkpt>
      <trkpt lat="45.42881" lon="2.26313">
        <ele>594</ele>
        <time>2024-09-12T19:05:57+00:00</time>
      </trkpt>
      <trkpt lat="45.42921" lon="2.26303">
        <ele>603</ele>
        <time>2024-09-12T19:06:00+00:00</time>
      </trkpt>
      <trkpt lat="45.42998" lon="2.26359">
        <ele>611</ele>
        <time>2024-09-12T19:06:09+00:00</time>
      </trkpt>
      <trkpt lat="45.43035" lon="2.26374">
        <ele>610.5</ele>
        <time>2024-09-12T19:06:15+00:00</time>
      </trkpt>
      <trkpt lat="45.43052" lon="2.26447">
        <ele>620.7</ele>
        <time>2024-09-12T19:06:18+00:00</time>
      </trkpt>
      <trkpt lat="45.43059" lon="2.26484">
        <ele>624.6</ele>
        <time>2024-09-12T19:06:21+00:00</time>
      </trkpt>
      <trkpt lat="45.43056" lon="2.26527">
        <ele>627</ele>
        <time>2024-09-12T19:06:24+00:00</time>
      </trkpt>
      <trkpt lat="45.43078" lon="2.26576">
        <ele>629</ele>
        <time>2024-09-12T19:06:27+00:00</time>
      </trkpt>
      <trkpt lat="45.43086" lon="2.26625">
        <ele>632</ele>
        <time>2024-09-12T19:06:30+00:00</time>
      </trkpt>
      <trkpt lat="45.43094" lon="2.26675">
        <ele>637</ele>
        <time>2024-09-12T19:06:33+00:00</time>
      </trkpt>
      <trkpt lat="45.43103" lon="2.26724">
        <ele>637</ele>
        <time>2024-09-12T19:06:36+00:00</time>
      </trkpt>
      <trkpt lat="45.43111" lon="2.26778">
        <ele>637</ele>
        <time>2024-09-12T19:06:39+00:00</time>
      </trkpt>
      <trkpt lat="45.43125" lon="2.26813">
        <ele>641</ele>
        <time>2024-09-12T19:06:42+00:00</time>
      </trkpt>
      <trkpt lat="45.43165" lon="2.26842">
        <ele>637.3</ele>
        <time>2024-09-12T19:06:45+00:00</time>
      </trkpt>
      <trkpt lat="45.43189" lon="2.26868">
        <ele>639</ele>
        <time>2024-09-12T19:06:48+00:00</time>
      </trkpt>
      <trkpt lat="45.43213" lon="2.26882">
        <ele>645</ele>
        <time>2024-09-12T19:06:51+00:00</time>
      </trkpt>
      <trkpt lat="45.43258" lon="2.26883">
        <ele>637.7</ele>
        <time>2024-09-12T19:06:54+00:00</time>
      </trkpt>
      <trkpt lat="45.43254" lon="2.26848">
        <ele>636.6</ele>
        <time>2024-09-12T19:06:57+00:00</time>
      </trkpt>
      <trkpt lat="45.43259" lon="2.2679">
        <ele>634</ele>
        <time>2024-09-12T19:07:00+00:00</time>
      </trkpt>
      <trkpt lat="45.43269" lon="2.26732">
        <ele>628</ele>
        <time>2024-09-12T19:07:03+00:00</time>
      </trkpt>
      <trkpt lat="45.43281" lon="2.267">
        <ele>622</ele>
        <time>2024-09-12T19:07:06+00:00</time>
      </trkpt>
      <trkpt lat="45.43316" lon="2.267">
        <ele>624</ele>
        <time>2024-09-12T19:07:09+00:00</time>
      </trkpt>
      <trkpt lat="45.43327" lon="2.26659">
        <ele>624</ele>
        <time>2024-09-12T19:07:12+00:00</time>
      </trkpt>
      <trkpt lat="45.4335" lon="2.26613">
        <ele>626.4</ele>
        <time>2024-09-12T19:07:15+00:00</time>
      </trkpt>
      <trkpt lat="45.43351" lon="2.26579">
        <ele>628.1</ele>
        <time>2024-09-12T19:07:18+00:00</time>
      </trkpt>
      <trkpt lat="45.43352" lon="2.26563">
        <ele>629.6</ele>
      </trkpt>
      <trkpt lat="45.43345" lon="2.26517">
        <ele>630</ele>
        <time>2024-09-12T19:07:21+00:00</time>
      </trkpt>
      <trkpt lat="45.43349" lon="2.26466">
        <ele>634</ele>
        <time>2024-09-12T19:07:24+00:00</time>
      </trkpt>
      <trkpt lat="45.43357" lon="2.26424">
        <ele>634</ele>
        <time>2024-09-12T19:07:27+00:00</time>
      </trkpt>
      <trkpt lat="45.43364" lon="2.26387">
        <ele>635</ele>
        <time>2024-09-12T19:07:30+00:00</time>
      </trkpt>
      <trkpt lat="45.43372" lon="2.26342">
        <ele>636</ele>
        <time>2024-09-12T19:07:33+00:00</time>
      </trkpt>
      <trkpt lat="45.43385" lon="2.26374">
        <ele>637</ele>
        <time>2024-09-12T19:07:36+00:00</time>
      </trkpt>
      <trkpt lat="45.43406" lon="2.26432">
        <ele>641</ele>
        <time>2024-09-12T19:07:39+00:00</time>
      </trkpt>
      <trkpt lat="45.43405" lon="2.26477">
        <ele>643</ele>
        <time>2024-09-12T19:07:42+00:00</time>
      </trkpt>
      <trkpt lat="45.43421" lon="2.26513">
        <ele>643</ele>
        <time>2024-09-12T19:07:45+00:00</time>
      </trkpt>
      <trkpt lat="45.43434" lon="2.26543">
        <ele>643</ele>
        <time>2024-09-12T19:07:48+00:00</time>
      </trkpt>
      <trkpt lat="45.43449" lon="2.26576">
        <ele>643</ele>
        <time>2024-09-12T19:07:51+00:00</time>
      </trkpt>
      <trkpt lat="45.43455" lon="2.26624">
        <ele>643</ele>
        <time>2024-09-12T19:07:54+00:00</time>
      </trkpt>
      <trkpt lat="45.43461" lon="2.26672">
        <ele>646</ele>
        <time>2024-09-12T19:07:57+00:00</time>
      </trkpt>
      <trkpt lat="45.43465" lon="2.26709">
        <ele>649</ele>
        <time>2024-09-12T19:08:00+00:00</time>
      </trkpt>
      <trkpt lat="45.43471" lon="2.26754">
        <ele>655</ele>
        <time>2024-09-12T19:08:03+00:00</time>
      </trkpt>
      <trkpt lat="45.43479" lon="2.26798">
        <ele>659</ele>
        <time>2024-09-12T19:08:06+00:00</time>
      </trkpt>
      <trkpt lat="45.43487" lon="2.26842">
        <ele>666</ele>
        <time>2024-09-12T19:08:09+00:00</time>
      </trkpt>
      <trkpt lat="45.43513" lon="2.26906">
        <ele>656.6</ele>
        <time>2024-09-12T19:08:12+00:00</time>
      </trkpt>
      <trkpt lat="45.4354" lon="2.26895">
        <ele>654.8</ele>
        <time>2024-09-12T19:08:15+00:00</time>
      </trkpt>
      <trkpt lat="45.43562" lon="2.26869">
        <ele>651</ele>
        <time>2024-09-12T19:08:18+00:00</time>
      </trkpt>
      <trkpt lat="45.43574" lon="2.26858">
        <ele>648</ele>
        <time>2024-09-12T19:08:21+00:00</time>
      </trkpt>
      <trkpt lat="45.43604" lon="2.26861">
        <ele>648</ele>
        <time>2024-09-12T19:08:24+00:00</time>
      </trkpt>
      <trkpt lat="45.43617" lon="2.26871">
        <ele>642.9</ele>
        <time>2024-09-12T19:08:27+00:00</time>
      </trkpt>
      <trkpt lat="45.43632" lon="2.26812">
        <ele>642</ele>
        <time>2024-09-12T19:08:30+00:00</time>
      </trkpt>
      <trkpt lat="45.43635" lon="2.26772">
        <ele>642.2</ele>
        <time>2024-09-12T19:08:33+00:00</time>
      </trkpt>
      <trkpt lat="45.43706" lon="2.26766">
        <ele>645.3</ele>
        <time>2024-09-12T19:08:36+00:00</time>
      </trkpt>
      <trkpt lat="45.43756" lon="2.26767">
        <ele>645</ele>
        <time>2024-09-12T19:08:39+00:00</time>
      </trkpt>
      <trkpt lat="45.4375" lon="2.26745">
        <ele>658</ele>
        <time>2024-09-12T19:08:42+00:00</time>
      </trkpt>
      <trkpt lat="45.43743" lon="2.2669">
        <ele>644.7</ele>
        <time>2024-09-12T19:08:45+00:00</time>
      </trkpt>
      <trkpt lat="45.43752" lon="2.26616">
        <ele>649.1</ele>
        <time>2024-09-12T19:08:48+00:00</time>
      </trkpt>
      <trkpt lat="45.4381" lon="2.26581">
        <ele>653.9</ele>
      </trkpt>
      <trkpt lat="45.43851" lon="2.26564">
        <ele>649.8</ele>
        <time>2024-09-12T19:08:51+00:00</time>
      </trkpt>
      <trkpt lat="45.43875" lon="2.26724">
        <ele>657</ele>
        <time>2024-09-12T19:08:54+00:00</time>
      </trkpt>
      <trkpt lat="45.43882" lon="2.26781">
        <ele>660.7</ele>
        <time>2024-09-12T19:08:57+00:00</time>
      </trkpt>
      <trkpt lat="45.43887" lon="2.26832">
        <ele>664.8</ele>
        <time>2024-09-12T19:09:00+00:00</time>
      </trkpt>
      <trkpt lat="45.43912" lon="2.26947">
        <ele>670.7</ele>
        <time>2024-09-12T19:09:09+00:00</time>
      </trkpt>
      <trkpt lat="45.43924" lon="2.26997">
        <ele>681</ele>
        <time>2024-09-12T19:09:12+00:00</time>
      </trkpt>
      <trkpt lat="45.43943" lon="2.27045">
        <ele>681</ele>
        <time>2024-09-12T19:09:15+00:00</time>
      </trkpt>
      <trkpt lat="45.43962" lon="2.27092">
        <ele>677</ele>
        <time>2024-09-12T19:09:18+00:00</time>
      </trkpt>
      <trkpt lat="45.43993" lon="2.27148">
        <ele>672.7</ele>
        <time>2024-09-12T19:09:21+00:00</time>
      </trkpt>
      <trkpt lat="45.44014" lon="2.27134">
        <ele>673</ele>
        <time>2024-09-12T19:09:24+00:00</time>
      </trkpt>
      <trkpt lat="45.44038" lon="2.2712">
        <ele>672</ele>
        <time>2024-09-12T19:09:27+00:00</time>
      </trkpt>
      <trkpt lat="45.4407" lon="2.27102">
        <ele>672</ele>
        <time>2024-09-12T19:09:30+00:00</time>
      </trkpt>
      <trkpt lat="45.44096" lon="2.2708">
        <ele>673</ele>
        <time>2024-09-12T19:09:33+00:00</time>
      </trkpt>
      <trkpt lat="45.44118" lon="2.27061">
        <ele>669</ele>
        <time>2024-09-12T19:09:36+00:00</time>
      </trkpt>
      <trkpt lat="45.44141" lon="2.27041">
        <ele>669</ele>
        <time>2024-09-12T19:09:39+00:00</time>
      </trkpt>
      <trkpt lat="45.44174" lon="2.27016">
        <ele>669</ele>
        <time>2024-09-12T19:09:42+00:00</time>
      </trkpt>
      <trkpt lat="45.44205" lon="2.27016">
        <ele>673</ele>
        <time>2024-09-12T19:09:45+00:00</time>
      </trkpt>
      <trkpt lat="45.44231" lon="2.27017">
        <ele>673</ele>
        <time>2024-09-12T19:09:48+00:00</time>
      </trkpt>
      <trkpt lat="45.44262" lon="2.27018">
        <ele>671</ele>
        <time>2024-09-12T19:09:51+00:00</time>
      </trkpt>
      <trkpt lat="45.44297" lon="2.27016">
        <ele>669</ele>
        <time>2024-09-12T19:09:54+00:00</time>
      </trkpt>
      <trkpt lat="45.44331" lon="2.27015">
        <ele>670</ele>
        <time>2024-09-12T19:09:57+00:00</time>
      </trkpt>
      <trkpt lat="45.44359" lon="2.27013">
        <ele>669</ele>
        <time>2024-09-12T19:10:00+00:00</time>
      </trkpt>
      <trkpt lat="45.44396" lon="2.27011">
        <ele>669</ele>
        <time>2024-09-12T19:10:03+00:00</time>
      </trkpt>
      <trkpt lat="45.44424" lon="2.27004">
        <ele>673</ele>
        <time>2024-09-12T19:10:06+00:00</time>
      </trkpt>
      <trkpt lat="45.44471" lon="2.26992">
        <ele>670</ele>
        <time>2024-09-12T19:10:09+00:00</time>
      </trkpt>
      <trkpt lat="45.44496" lon="2.26972">
        <ele>667</ele>
        <time>2024-09-12T19:10:12+00:00</time>
      </trkpt>
      <trkpt lat="45.44536" lon="2.26941">
        <ele>660</ele>
        <time>2024-09-12T19:10:15+00:00</time>
      </trkpt>
      <trkpt lat="45.44554" lon="2.26919">
        <ele>660</ele>
        <time>2024-09-12T19:10:18+00:00</time>
      </trkpt>
      <trkpt lat="45.44574" lon="2.26895">
        <ele>660</ele>
        <time>2024-09-12T19:10:21+00:00</time>
      </trkpt>
      <trkpt lat="45.44601" lon="2.26844">
        <ele>664</ele>
        <time>2024-09-12T19:10:24+00:00</time>
      </trkpt>
      <trkpt lat="45.44616" lon="2.26814">
        <ele>665</ele>
        <time>2024-09-12T19:10:27+00:00</time>
      </trkpt>
      <trkpt lat="45.44622" lon="2.26773">
        <ele>667</ele>
        <time>2024-09-12T19:10:30+00:00</time>
      </trkpt>
      <trkpt lat="45.44624" lon="2.26714">
        <ele>678</ele>
        <time>2024-09-12T19:10:33+00:00</time>
      </trkpt>
      <trkpt lat="45.44597" lon="2.26683">
        <ele>681</ele>
        <time>2024-09-12T19:10:36+00:00</time>
      </trkpt>
      <trkpt lat="45.44581" lon="2.26657">
        <ele>682</ele>
        <time>2024-09-12T19:10:39+00:00</time>
      </trkpt>
      <trkpt lat="45.44565" lon="2.26629">
        <ele>682</ele>
        <time>2024-09-12T19:10:42+00:00</time>
      </trkpt>
      <trkpt lat="45.44536" lon="2.26603">
        <ele>673.7</ele>
        <time>2024-09-12T19:10:45+00:00</time>
      </trkpt>
      <trkpt lat="45.44512" lon="2.26558">
        <ele>673</ele>
        <time>2024-09-12T19:10:48+00:00</time>
      </trkpt>
      <trkpt lat="45.44506" lon="2.2653">
        <ele>680</ele>
        <time>2024-09-12T19:10:51+00:00</time>
      </trkpt>
      <trkpt lat="45.44492" lon="2.26509">
        <ele>677</ele>
        <time>2024-09-12T19:10:54+00:00</time>
      </trkpt>
      <trkpt lat="45.44484" lon="2.26473">
        <ele>676</ele>
        <time>2024-09-12T19:10:57+00:00</time>
      </trkpt>
      <trkpt lat="45.44474" lon="2.26428">
        <ele>672</ele>
        <time>2024-09-12T19:11:00+00:00</time>
      </trkpt>
      <trkpt lat="45.44462" lon="2.26378">
        <ele>669</ele>
        <time>2024-09-12T19:11:03+00:00</time>
      </trkpt>
      <trkpt lat="45.44449" lon="2.26328">
        <ele>665</ele>
        <time>2024-09-12T19:11:06+00:00</time>
      </trkpt>
      <trkpt lat="45.44437" lon="2.26278">
        <ele>656</ele>
        <time>2024-09-12T19:11:09+00:00</time>
      </trkpt>
      <trkpt lat="45.44428" lon="2.26242">
        <ele>654</ele>
        <time>2024-09-12T19:11:12+00:00</time>
      </trkpt>
      <trkpt lat="45.44417" lon="2.26196">
        <ele>654</ele>
        <time>2024-09-12T19:11:15+00:00</time>
      </trkpt>
      <trkpt lat="45.44411" lon="2.26146">
        <ele>653</ele>
        <time>2024-09-12T19:11:18+00:00</time>
      </trkpt>
      <trkpt lat="45.44382" lon="2.26119">
        <ele>636.9</ele>
        <time>2024-09-12T19:11:21+00:00</time>
      </trkpt>
      <trkpt lat="45.44341" lon="2.26083">
        <ele>631.8</ele>
        <time>2024-09-12T19:11:24+00:00</time>
      </trkpt>
      <trkpt lat="45.4432" lon="2.26033">
        <ele>627.3</ele>
        <time>2024-09-12T19:11:27+00:00</time>
      </trkpt>
      <trkpt lat="45.44329" lon="2.26004">
        <ele>625.2</ele>
        <time>2024-09-12T19:11:30+00:00</time>
      </trkpt>
      <trkpt lat="45.44339" lon="2.25952">
        <ele>612</ele>
        <time>2024-09-12T19:11:33+00:00</time>
      </trkpt>
      <trkpt lat="45.44361" lon="2.2593">
        <ele>608</ele>
        <time>2024-09-12T19:11:36+00:00</time>
      </trkpt>
      <trkpt lat="45.44386" lon="2.25926">
        <ele>605</ele>
        <time>2024-09-12T19:11:39+00:00</time>
      </trkpt>
      <trkpt lat="45.44416" lon="2.25922">
        <ele>604</ele>
        <time>2024-09-12T19:11:42+00:00</time>
      </trkpt>
      <trkpt lat="45.44435" lon="2.25884">
        <ele>603</ele>
        <time>2024-09-12T19:11:45+00:00</time>
      </trkpt>
      <trkpt lat="45.44454" lon="2.25846">
        <ele>603</ele>
        <time>2024-09-12T19:11:48+00:00</time>
      </trkpt>
      <trkpt lat="45.44466" lon="2.25797">
        <ele>611.7</ele>
        <time>2024-09-12T19:11:51+00:00</time>
      </trkpt>
      <trkpt lat="45.44503" lon="2.25771">
        <ele>609</ele>
        <time>2024-09-12T19:11:54+00:00</time>
      </trkpt>
      <trkpt lat="45.44509" lon="2.25735">
        <ele>614</ele>
        <time>2024-09-12T19:11:57+00:00</time>
      </trkpt>
      <trkpt lat="45.44516" lon="2.25692">
        <ele>618</ele>
        <time>2024-09-12T19:12:00+00:00</time>
      </trkpt>
      <trkpt lat="45.44521" lon="2.25649">
        <ele>625</ele>
        <time>2024-09-12T19:12:03+00:00</time>
      </trkpt>
      <trkpt lat="45.44525" lon="2.25614">
        <ele>633</ele>
        <time>2024-09-12T19:12:06+00:00</time>
      </trkpt>
      <trkpt lat="45.4453" lon="2.25574">
        <ele>631</ele>
        <time>2024-09-12T19:12:09+00:00</time>
      </trkpt>
      <trkpt lat="45.44528" lon="2.25528">
        <ele>629</ele>
        <time>2024-09-12T19:12:12+00:00</time>
      </trkpt>
      <trkpt lat="45.44526" lon="2.25483">
        <ele>627</ele>
        <time>2024-09-12T19:12:15+00:00</time>
      </trkpt>
      <trkpt lat="45.44524" lon="2.25434">
        <ele>627</ele>
        <time>2024-09-12T19:12:18+00:00</time>
      </trkpt>
      <trkpt lat="45.44524" lon="2.254">
        <ele>627</ele>
        <time>2024-09-12T19:12:21+00:00</time>
      </trkpt>
      <trkpt lat="45.44525" lon="2.25366">
        <ele>629</ele>
        <time>2024-09-12T19:12:24+00:00</time>
      </trkpt>
      <trkpt lat="45.44536" lon="2.25308">
        <ele>638</ele>
        <time>2024-09-12T19:12:27+00:00</time>
      </trkpt>
      <trkpt lat="45.44515" lon="2.2526">
        <ele>650</ele>
        <time>2024-09-12T19:12:30+00:00</time>
      </trkpt>
      <trkpt lat="45.44502" lon="2.25224">
        <ele>651</ele>
        <time>2024-09-12T19:12:33+00:00</time>
      </trkpt>
      <trkpt lat="45.44483" lon="2.25168">
        <ele>654</ele>
        <time>2024-09-12T19:12:36+00:00</time>
      </trkpt>
      <trkpt lat="45.44465" lon="2.25141">
        <ele>655</ele>
        <time>2024-09-12T19:12:39+00:00</time>
      </trkpt>
      <trkpt lat="45.44442" lon="2.25106">
        <ele>654</ele>
        <time>2024-09-12T19:12:42+00:00</time>
      </trkpt>
      <trkpt lat="45.44439" lon="2.25065">
        <ele>653</ele>
        <time>2024-09-12T19:12:45+00:00</time>
      </trkpt>
      <trkpt lat="45.44435" lon="2.25003">
        <ele>649</ele>
        <time>2024-09-12T19:12:48+00:00</time>
      </trkpt>
      <trkpt lat="45.44443" lon="2.2496">
        <ele>649</ele>
        <time>2024-09-12T19:12:51+00:00</time>
      </trkpt>
      <trkpt lat="45.44451" lon="2.24923">
        <ele>651</ele>
        <time>2024-09-12T19:12:54+00:00</time>
      </trkpt>
      <trkpt lat="45.4446" lon="2.24874">
        <ele>654</ele>
        <time>2024-09-12T19:12:57+00:00</time>
      </trkpt>
      <trkpt lat="45.44451" lon="2.24825">
        <ele>658</ele>
        <time>2024-09-12T19:13:00+00:00</time>
      </trkpt>
      <trkpt lat="45.44425" lon="2.24804">
        <ele>661</ele>
        <time>2024-09-12T19:13:03+00:00</time>
      </trkpt>
      <trkpt lat="45.44402" lon="2.24786">
        <ele>664</ele>
        <time>2024-09-12T19:13:06+00:00</time>
      </trkpt>
      <trkpt lat="45.44376" lon="2.24765">
        <ele>664</ele>
        <time>2024-09-12T19:13:09+00:00</time>
      </trkpt>
      <trkpt lat="45.44349" lon="2.24755">
        <ele>664</ele>
        <time>2024-09-12T19:13:12+00:00</time>
      </trkpt>
      <trkpt lat="45.44313" lon="2.24741">
        <ele>660</ele>
        <time>2024-09-12T19:13:15+00:00</time>
      </trkpt>
      <trkpt lat="45.44277" lon="2.24737">
        <ele>648</ele>
        <time>2024-09-12T19:13:18+00:00</time>
      </trkpt>
      <trkpt lat="45.44251" lon="2.24771">
        <ele>643</ele>
        <time>2024-09-12T19:13:21+00:00</time>
      </trkpt>
      <trkpt lat="45.44222" lon="2.24767">
        <ele>643</ele>
        <time>2024-09-12T19:13:24+00:00</time>
      </trkpt>
      <trkpt lat="45.44186" lon="2.24752">
        <ele>641</ele>
        <time>2024-09-12T19:13:27+00:00</time>
      </trkpt>
      <trkpt lat="45.44165" lon="2.24729">
        <ele>641</ele>
        <time>2024-09-12T19:13:30+00:00</time>
      </trkpt>
      <trkpt lat="45.44135" lon="2.24698">
        <ele>642</ele>
        <time>2024-09-12T19:13:33+00:00</time>
      </trkpt>
      <trkpt lat="45.44107" lon="2.24651">
        <ele>643</ele>
        <time>2024-09-12T19:13:36+00:00</time>
      </trkpt>
      <trkpt lat="45.44079" lon="2.24656">
        <ele>642</ele>
        <time>2024-09-12T19:13:39+00:00</time>
      </trkpt>
      <trkpt lat="45.44042" lon="2.24662">
        <ele>642</ele>
        <time>2024-09-12T19:13:42+00:00</time>
      </trkpt>
      <trkpt lat="45.44013" lon="2.24659">
        <ele>648</ele>
        <time>2024-09-12T19:13:45+00:00</time>
      </trkpt>
      <trkpt lat="45.43989" lon="2.24656">
        <ele>649</ele>
        <time>2024-09-12T19:13:48+00:00</time>
      </trkpt>
      <trkpt lat="45.43965" lon="2.24653">
        <ele>649</ele>
        <time>2024-09-12T19:13:51+00:00</time>
      </trkpt>
      <trkpt lat="45.4394" lon="2.24659">
        <ele>650</ele>
        <time>2024-09-12T19:13:54+00:00</time>
      </trkpt>
      <trkpt lat="45.43912" lon="2.24666">
        <ele>652</ele>
        <time>2024-09-12T19:13:57+00:00</time>
      </trkpt>
      <trkpt lat="45.43882" lon="2.24675">
        <ele>655</ele>
        <time>2024-09-12T19:14:00+00:00</time>
      </trkpt>
      <trkpt lat="45.43858" lon="2.24667">
        <ele>654</ele>
        <time>2024-09-12T19:14:03+00:00</time>
      </trkpt>
      <trkpt lat="45.43824" lon="2.24673">
        <ele>657.1</ele>
        <time>2024-09-12T19:14:06+00:00</time>
      </trkpt>
      <trkpt lat="45.43802" lon="2.24654">
        <ele>653</ele>
        <time>2024-09-12T19:14:09+00:00</time>
      </trkpt>
      <trkpt lat="45.43765" lon="2.24649">
        <ele>657</ele>
        <time>2024-09-12T19:14:12+00:00</time>
      </trkpt>
      <trkpt lat="45.43741" lon="2.24633">
        <ele>657</ele>
        <time>2024-09-12T19:14:15+00:00</time>
      </trkpt>
      <trkpt lat="45.43712" lon="2.24612">
        <ele>655</ele>
        <time>2024-09-12T19:14:18+00:00</time>
      </trkpt>
      <trkpt lat="45.43686" lon="2.24607">
        <ele>655</ele>
        <time>2024-09-12T19:14:21+00:00</time>
      </trkpt>
      <trkpt lat="45.43653" lon="2.246">
        <ele>655</ele>
        <time>2024-09-12T19:14:24+00:00</time>
      </trkpt>
      <trkpt lat="45.43611" lon="2.2463">
        <ele>655</ele>
        <time>2024-09-12T19:14:27+00:00</time>
      </trkpt>
      <trkpt lat="45.43598" lon="2.24664">
        <ele>655</ele>
        <time>2024-09-12T19:14:30+00:00</time>
      </trkpt>
      <trkpt lat="45.43572" lon="2.24682">
        <ele>655</ele>
        <time>2024-09-12T19:14:33+00:00</time>
      </trkpt>
      <trkpt lat="45.43545" lon="2.24721">
        <ele>661.7</ele>
        <time>2024-09-12T19:14:36+00:00</time>
      </trkpt>
      <trkpt lat="45.43522" lon="2.24749">
        <ele>666.1</ele>
        <time>2024-09-12T19:14:39+00:00</time>
      </trkpt>
      <trkpt lat="45.43489" lon="2.24788">
        <ele>671</ele>
        <time>2024-09-12T19:14:42+00:00</time>
      </trkpt>
      <trkpt lat="45.43464" lon="2.2481">
        <ele>672</ele>
        <time>2024-09-12T19:14:45+00:00</time>
      </trkpt>
      <trkpt lat="45.43425" lon="2.24856">
        <ele>676.6</ele>
        <time>2024-09-12T19:14:48+00:00</time>
      </trkpt>
      <trkpt lat="45.43427" lon="2.24881">
        <ele>674</ele>
        <time>2024-09-12T19:14:51+00:00</time>
      </trkpt>
      <trkpt lat="45.43429" lon="2.24928">
        <ele>675</ele>
        <time>2024-09-12T19:14:54+00:00</time>
      </trkpt>
      <trkpt lat="45.43428" lon="2.24966">
        <ele>680</ele>
        <time>2024-09-12T19:14:57+00:00</time>
      </trkpt>
      <trkpt lat="45.43426" lon="2.25014">
        <ele>681</ele>
        <time>2024-09-12T19:15:00+00:00</time>
      </trkpt>
      <trkpt lat="45.43412" lon="2.25063">
        <ele>679</ele>
        <time>2024-09-12T19:15:03+00:00</time>
      </trkpt>
      <trkpt lat="45.43392" lon="2.25085">
        <ele>678</ele>
        <time>2024-09-12T19:15:06+00:00</time>
      </trkpt>
      <trkpt lat="45.43367" lon="2.2511">
        <ele>678</ele>
        <time>2024-09-12T19:15:09+00:00</time>
      </trkpt>
      <trkpt lat="45.43339" lon="2.2514">
        <ele>687</ele>
        <time>2024-09-12T19:15:12+00:00</time>
      </trkpt>
      <trkpt lat="45.43312" lon="2.25145">
        <ele>685</ele>
        <time>2024-09-12T19:15:15+00:00</time>
      </trkpt>
      <trkpt lat="45.43275" lon="2.25151">
        <ele>684</ele>
        <time>2024-09-12T19:15:18+00:00</time>
      </trkpt>
      <trkpt lat="45.43251" lon="2.25133">
        <ele>684</ele>
        <time>2024-09-12T19:15:21+00:00</time>
      </trkpt>
      <trkpt lat="45.43215" lon="2.25108">
        <ele>684</ele>
        <time>2024-09-12T19:15:24+00:00</time>
      </trkpt>
      <trkpt lat="45.43195" lon="2.25089">
        <ele>686</ele>
        <time>2024-09-12T19:15:27+00:00</time>
      </trkpt>
      <trkpt lat="45.43173" lon="2.25069">
        <ele>689</ele>
        <time>2024-09-12T19:15:30+00:00</time>
      </trkpt>
      <trkpt lat="45.43139" lon="2.25062">
        <ele>689</ele>
        <time>2024-09-12T19:15:33+00:00</time>
      </trkpt>
      <trkpt lat="45.43106" lon="2.25054">
        <ele>689</ele>
        <time>2024-09-12T19:15:36+00:00</time>
      </trkpt>
      <trkpt lat="45.43081" lon="2.25048">
        <ele>689</ele>
        <time>2024-09-12T19:15:39+00:00</time>
      </trkpt>
      <trkpt lat="45.43053" lon="2.25042">
        <ele>688</ele>
        <time>2024-09-12T19:15:42+00:00</time>
      </trkpt>
      <trkpt lat="45.43021" lon="2.25047">
        <ele>687</ele>
        <time>2024-09-12T19:15:45+00:00</time>
      </trkpt>
      <trkpt lat="45.42995" lon="2.25052">
        <ele>684</ele>
        <time>2024-09-12T19:15:48+00:00</time>
      </trkpt>
      <trkpt lat="45.42959" lon="2.25059">
        <ele>672</ele>
        <time>2024-09-12T19:15:51+00:00</time>
      </trkpt>
      <trkpt lat="45.42932" lon="2.25076">
        <ele>669</ele>
        <time>2024-09-12T19:15:54+00:00</time>
      </trkpt>
      <trkpt lat="45.42909" lon="2.25091">
        <ele>667</ele>
        <time>2024-09-12T19:15:57+00:00</time>
      </trkpt>
      <trkpt lat="45.42882" lon="2.25108">
        <ele>665</ele>
        <time>2024-09-12T19:16:00+00:00</time>
      </trkpt>
      <trkpt lat="45.42862" lon="2.2514">
        <ele>664</ele>
        <time>2024-09-12T19:16:03+00:00</time>
      </trkpt>
      <trkpt lat="45.42846" lon="2.25166">
        <ele>664</ele>
        <time>2024-09-12T19:16:06+00:00</time>
      </trkpt>
      <trkpt lat="45.42828" lon="2.25194">
        <ele>664</ele>
        <time>2024-09-12T19:16:09+00:00</time>
      </trkpt>
      <trkpt lat="45.42794" lon="2.25243">
        <ele>654.9</ele>
        <time>2024-09-12T19:16:12+00:00</time>
      </trkpt>
      <trkpt lat="45.42807" lon="2.25291">
        <ele>651.7</ele>
        <time>2024-09-12T19:16:15+00:00</time>
      </trkpt>
      <trkpt lat="45.4283" lon="2.25323">
        <ele>662</ele>
        <time>2024-09-12T19:16:18+00:00</time>
      </trkpt>
      <trkpt lat="45.42855" lon="2.25368">
        <ele>662</ele>
        <time>2024-09-12T19:16:21+00:00</time>
      </trkpt>
      <trkpt lat="45.42892" lon="2.25394">
        <ele>652.1</ele>
        <time>2024-09-12T19:16:24+00:00</time>
      </trkpt>
      <trkpt lat="45.42916" lon="2.25446">
        <ele>652.9</ele>
        <time>2024-09-12T19:16:27+00:00</time>
      </trkpt>
      <trkpt lat="45.42919" lon="2.25486">
        <ele>658</ele>
        <time>2024-09-12T19:16:30+00:00</time>
      </trkpt>
      <trkpt lat="45.42932" lon="2.25519">
        <ele>657</ele>
        <time>2024-09-12T19:16:33+00:00</time>
      </trkpt>
      <trkpt lat="45.42949" lon="2.25561">
        <ele>660</ele>
        <time>2024-09-12T19:16:36+00:00</time>
      </trkpt>
      <trkpt lat="45.42965" lon="2.25595">
        <ele>661</ele>
        <time>2024-09-12T19:16:39+00:00</time>
      </trkpt>
      <trkpt lat="45.42979" lon="2.25623">
        <ele>662</ele>
        <time>2024-09-12T19:16:42+00:00</time>
      </trkpt>
      <trkpt lat="45.4298" lon="2.25658">
        <ele>649.5</ele>
        <time>2024-09-12T19:16:45+00:00</time>
      </trkpt>
      <trkpt lat="45.42997" lon="2.25702">
        <ele>649</ele>
        <time>2024-09-12T19:16:48+00:00</time>
      </trkpt>
      <trkpt lat="45.43016" lon="2.25743">
        <ele>653</ele>
        <time>2024-09-12T19:16:51+00:00</time>
      </trkpt>
      <trkpt lat="45.42993" lon="2.25772">
        <ele>643.6</ele>
        <time>2024-09-12T19:16:54+00:00</time>
      </trkpt>
      <trkpt lat="45.42964" lon="2.2578">
        <ele>642</ele>
        <time>2024-09-12T19:16:57+00:00</time>
      </trkpt>
      <trkpt lat="45.42955" lon="2.25812">
        <ele>635</ele>
        <time>2024-09-12T19:17:00+00:00</time>
      </trkpt>
      <trkpt lat="45.42925" lon="2.25814">
        <ele>629</ele>
        <time>2024-09-12T19:17:03+00:00</time>
      </trkpt>
      <trkpt lat="45.42902" lon="2.25854">
        <ele>622.6</ele>
        <time>2024-09-12T19:17:06+00:00</time>
      </trkpt>
      <trkpt lat="45.42883" lon="2.25876">
        <ele>625</ele>
        <time>2024-09-12T19:17:09+00:00</time>
      </trkpt>
      <trkpt lat="45.42848" lon="2.25875">
        <ele>625</ele>
        <time>2024-09-12T19:17:12+00:00</time>
      </trkpt>
      <trkpt lat="45.42816" lon="2.25847">
        <ele>627.6</ele>
      </trkpt>
      <trkpt lat="45.42809" lon="2.25839">
        <ele>632</ele>
        <time>2024-09-12T19:17:18+00:00</time>
      </trkpt>
      <trkpt lat="45.42786" lon="2.25872">
        <ele>633</ele>
        <time>2024-09-12T19:17:21+00:00</time>
      </trkpt>
      <trkpt lat="45.4278" lon="2.25917">
        <ele>625.6</ele>
        <time>2024-09-12T19:17:24+00:00</time>
      </trkpt>
      <trkpt lat="45.42779" lon="2.25975">
        <ele>624.5</ele>
      </trkpt>
      <trkpt lat="45.42778" lon="2.26026">
        <ele>622.1</ele>
        <time>2024-09-12T19:17:30+00:00</time>
      </trkpt>
      <trkpt lat="45.42754" lon="2.26086">
        <ele>618.8</ele>
      </trkpt>
      <trkpt lat="45.42697" lon="2.26067">
        <ele>623.7</ele>
        <time>2024-09-12T19:17:36+00:00</time>
      </trkpt>
      <trkpt lat="45.42657" lon="2.26047">
        <ele>624.6</ele>
      </trkpt>
      <trkpt lat="45.42626" lon="2.26009">
        <ele>627.7</ele>
        <time>2024-09-12T19:17:39+00:00</time>
      </trkpt>
      <trkpt lat="45.42601" lon="2.25983">
        <ele>628.3</ele>
        <time>2024-09-12T19:17:42+00:00</time>
      </trkpt>
      <trkpt lat="45.42573" lon="2.25947">
        <ele>629.8</ele>
        <time>2024-09-12T19:17:45+00:00</time>
      </trkpt>
      <trkpt lat="45.42563" lon="2.26039">
        <ele>627</ele>
        <time>2024-09-12T19:17:48+00:00</time>
      </trkpt>
      <trkpt lat="45.4259" lon="2.26074">
        <ele>626</ele>
        <time>2024-09-12T19:17:51+00:00</time>
      </trkpt>
      <trkpt lat="45.42601" lon="2.26109">
        <ele>622</ele>
        <time>2024-09-12T19:17:54+00:00</time>
      </trkpt>
      <trkpt lat="45.42616" lon="2.26157">
        <ele>613</ele>
        <time>2024-09-12T19:17:57+00:00</time>
      </trkpt>
      <trkpt lat="45.42627" lon="2.26189">
        <ele>611</ele>
        <time>2024-09-12T19:18:00+00:00</time>
      </trkpt>
      <trkpt lat="45.42638" lon="2.26224">
        <ele>609</ele>
        <time>2024-09-12T19:18:03+00:00</time>
      </trkpt>
      <trkpt lat="45.42644" lon="2.26258">
        <ele>607</ele>
        <time>2024-09-12T19:18:06+00:00</time>
      </trkpt>
      <trkpt lat="45.4265" lon="2.26295">
        <ele>603</ele>
        <time>2024-09-12T19:18:09+00:00</time>
      </trkpt>
      <trkpt lat="45.42655" lon="2.26347">
        <ele>603.9</ele>
        <time>2024-09-12T19:18:12+00:00</time>
      </trkpt>
      <trkpt lat="45.42619" lon="2.26351">
        <ele>594</ele>
        <time>2024-09-12T19:18:15+00:00</time>
      </trkpt>
      <trkpt lat="45.42597" lon="2.26373">
        <ele>596</ele>
        <time>2024-09-12T19:18:18+00:00</time>
      </trkpt>
      <trkpt lat="45.42561" lon="2.26409">
        <ele>598</ele>
        <time>2024-09-12T19:18:21+00:00</time>
      </trkpt>
      <trkpt lat="45.42538" lon="2.2644">
        <ele>596</ele>
        <time>2024-09-12T19:18:24+00:00</time>
      </trkpt>
      <trkpt lat="45.42507" lon="2.26459">
        <ele>594</ele>
        <time>2024-09-12T19:18:27+00:00</time>
      </trkpt>
      <trkpt lat="45.42483" lon="2.26457">
        <ele>594</ele>
        <time>2024-09-12T19:18:30+00:00</time>
      </trkpt>
      <trkpt lat="45.42459" lon="2.26455">
        <ele>595</ele>
        <time>2024-09-12T19:18:33+00:00</time>
      </trkpt>
      <trkpt lat="45.42439" lon="2.26432">
        <ele>596</ele>
        <time>2024-09-12T19:18:36+00:00</time>
      </trkpt>
      <trkpt lat="45.42416" lon="2.26406">
        <ele>605</ele>
        <time>2024-09-12T19:18:39+00:00</time>
      </trkpt>
      <trkpt lat="45.42395" lon="2.26388">
        <ele>608</ele>
        <time>2024-09-12T19:18:42+00:00</time>
      </trkpt>
      <trkpt lat="45.42371" lon="2.26368">
        <ele>612</ele>
        <time>2024-09-12T19:18:45+00:00</time>
      </trkpt>
      <trkpt lat="45.42346" lon="2.26363">
        <ele>614</ele>
        <time>2024-09-12T19:18:48+00:00</time>
      </trkpt>
      <trkpt lat="45.42316" lon="2.26357">
        <ele>613</ele>
        <time>2024-09-12T19:18:51+00:00</time>
      </trkpt>
      <trkpt lat="45.42274" lon="2.26345">
        <ele>612</ele>
        <time>2024-09-12T19:18:54+00:00</time>
      </trkpt>
      <trkpt lat="45.42248" lon="2.26341">
        <ele>612</ele>
        <time>2024-09-12T19:18:57+00:00</time>
      </trkpt>
      <trkpt lat="45.42222" lon="2.26331">
        <ele>610</ele>
        <time>2024-09-12T19:19:00+00:00</time>
      </trkpt>
      <trkpt lat="45.42194" lon="2.26318">
        <ele>610</ele>
        <time>2024-09-12T19:19:03+00:00</time>
      </trkpt>
      <trkpt lat="45.42173" lon="2.26302">
        <ele>610</ele>
        <time>2024-09-12T19:19:06+00:00</time>
      </trkpt>
      <trkpt lat="45.42144" lon="2.26265">
        <ele>609</ele>
        <time>2024-09-12T19:19:09+00:00</time>
      </trkpt>
      <trkpt lat="45.42117" lon="2.26271">
        <ele>609</ele>
        <time>2024-09-12T19:19:12+00:00</time>
      </trkpt>
      <trkpt lat="45.42098" lon="2.26322">
        <ele>605</ele>
        <time>2024-09-12T19:19:15+00:00</time>
      </trkpt>
      <trkpt lat="45.42085" lon="2.26347">
        <ele>605</ele>
        <time>2024-09-12T19:19:18+00:00</time>
      </trkpt>
      <trkpt lat="45.4207" lon="2.26382">
        <ele>607</ele>
        <time>2024-09-12T19:19:21+00:00</time>
      </trkpt>
      <trkpt lat="45.42046" lon="2.26383">
        <ele>619</ele>
        <time>2024-09-12T19:19:24+00:00</time>
      </trkpt>
      <trkpt lat="45.42013" lon="2.26378">
        <ele>623</ele>
        <time>2024-09-12T19:19:27+00:00</time>
      </trkpt>
      <trkpt lat="45.41994" lon="2.26364">
        <ele>623</ele>
        <time>2024-09-12T19:19:30+00:00</time>
      </trkpt>
      <trkpt lat="45.41967" lon="2.26341">
        <ele>626</ele>
        <time>2024-09-12T19:19:33+00:00</time>
      </trkpt>
      <trkpt lat="45.41946" lon="2.26326">
        <ele>629</ele>
        <time>2024-09-12T19:19:36+00:00</time>
      </trkpt>
      <trkpt lat="45.41922" lon="2.26309">
        <ele>627</ele>
        <time>2024-09-12T19:19:39+00:00</time>
      </trkpt>
      <trkpt lat="45.41899" lon="2.263">
        <ele>625</ele>
        <time>2024-09-12T19:19:42+00:00</time>
      </trkpt>
      <trkpt lat="45.41876" lon="2.26291">
        <ele>623</ele>
        <time>2024-09-12T19:19:45+00:00</time>
      </trkpt>
      <trkpt lat="45.41848" lon="2.26266">
        <ele>623</ele>
        <time>2024-09-12T19:19:48+00:00</time>
      </trkpt>
      <trkpt lat="45.41819" lon="2.26238">
        <ele>621</ele>
        <time>2024-09-12T19:19:51+00:00</time>
      </trkpt>
      <trkpt lat="45.41827" lon="2.26274">
        <ele>621</ele>
        <time>2024-09-12T19:19:54+00:00</time>
      </trkpt>
      <trkpt lat="45.41825" lon="2.26364">
        <ele>621</ele>
        <time>2024-09-12T19:19:57+00:00</time>
      </trkpt>
      <trkpt lat="45.41831" lon="2.2639">
        <ele>628</ele>
        <time>2024-09-12T19:20:00+00:00</time>
      </trkpt>
      <trkpt lat="45.41842" lon="2.26427">
        <ele>627</ele>
        <time>2024-09-12T19:20:03+00:00</time>
      </trkpt>
      <trkpt lat="45.4186" lon="2.26483">
        <ele>627</ele>
        <time>2024-09-12T19:20:06+00:00</time>
      </trkpt>
      <trkpt lat="45.41868" lon="2.2652">
        <ele>628</ele>
        <time>2024-09-12T19:20:09+00:00</time>
      </trkpt>
      <trkpt lat="45.4188" lon="2.26559">
        <ele>625</ele>
        <time>2024-09-12T19:20:12+00:00</time>
      </trkpt>
      <trkpt lat="45.41908" lon="2.26609">
        <ele>623</ele>
        <time>2024-09-12T19:20:15+00:00</time>
      </trkpt>
      <trkpt lat="45.41917" lon="2.26634">
        <ele>615</ele>
        <time>2024-09-12T19:20:18+00:00</time>
      </trkpt>
      <trkpt lat="45.4192" lon="2.26674">
        <ele>612</ele>
        <time>2024-09-12T19:20:21+00:00</time>
      </trkpt>
      <trkpt lat="45.41926" lon="2.26715">
        <ele>608</ele>
        <time>2024-09-12T19:20:24+00:00</time>
      </trkpt>
      <trkpt lat="45.41931" lon="2.26749">
        <ele>607</ele>
        <time>2024-09-12T19:20:27+00:00</time>
      </trkpt>
      <trkpt lat="45.41936" lon="2.26784">
        <ele>607</ele>
        <time>2024-09-12T19:20:30+00:00</time>
      </trkpt>
      <trkpt lat="45.41936" lon="2.26818">
        <ele>606</ele>
        <time>2024-09-12T19:20:33+00:00</time>
      </trkpt>
      <trkpt lat="45.41936" lon="2.26853">
        <ele>604</ele>
        <time>2024-09-12T19:20:36+00:00</time>
      </trkpt>
      <trkpt lat="45.41935" lon="2.26887">
        <ele>603</ele>
        <time>2024-09-12T19:20:39+00:00</time>
      </trkpt>
      <trkpt lat="45.41923" lon="2.26926">
        <ele>602</ele>
        <time>2024-09-12T19:20:42+00:00</time>
      </trkpt>
      <trkpt lat="45.41913" lon="2.26958">
        <ele>603</ele>
        <time>2024-09-12T19:20:45+00:00</time>
      </trkpt>
      <trkpt lat="45.41902" lon="2.26992">
        <ele>601</ele>
        <time>2024-09-12T19:20:48+00:00</time>
      </trkpt>
      <trkpt lat="45.41888" lon="2.27038">
        <ele>601</ele>
        <time>2024-09-12T19:20:51+00:00</time>
      </trkpt>
      <trkpt lat="45.41875" lon="2.27067">
        <ele>601</ele>
        <time>2024-09-12T19:20:54+00:00</time>
      </trkpt>
      <trkpt lat="45.41861" lon="2.27098">
        <ele>600</ele>
        <time>2024-09-12T19:20:57+00:00</time>
      </trkpt>
      <trkpt lat="45.41844" lon="2.27121">
        <ele>599</ele>
        <time>2024-09-12T19:21:00+00:00</time>
      </trkpt>
      <trkpt lat="45.4182" lon="2.27142">
        <ele>602</ele>
        <time>2024-09-12T19:21:03+00:00</time>
      </trkpt>
      <trkpt lat="45.41792" lon="2.27136">
        <ele>606</ele>
        <time>2024-09-12T19:21:06+00:00</time>
      </trkpt>
      <trkpt lat="45.41722" lon="2.27071">
        <ele>612</ele>
        <time>2024-09-12T19:21:09+00:00</time>
      </trkpt>
      <trkpt lat="45.41691" lon="2.2705">
        <ele>613</ele>
        <time>2024-09-12T19:21:12+00:00</time>
      </trkpt>
      <trkpt lat="45.41661" lon="2.2703">
        <ele>621</ele>
        <time>2024-09-12T19:21:15+00:00</time>
      </trkpt>
      <trkpt lat="45.41639" lon="2.27014">
        <ele>619</ele>
        <time>2024-09-12T19:21:18+00:00</time>
      </trkpt>
      <trkpt lat="45.41617" lon="2.26999">
        <ele>621</ele>
        <time>2024-09-12T19:21:21+00:00</time>
      </trkpt>
      <trkpt lat="45.41598" lon="2.26987">
        <ele>623</ele>
        <time>2024-09-12T19:21:24+00:00</time>
      </trkpt>
      <trkpt lat="45.4157" lon="2.26978">
        <ele>623</ele>
        <time>2024-09-12T19:21:27+00:00</time>
      </trkpt>
      <trkpt lat="45.41528" lon="2.26963">
        <ele>614</ele>
        <time>2024-09-12T19:21:30+00:00</time>
      </trkpt>
      <trkpt lat="45.41484" lon="2.26962">
        <ele>603</ele>
        <time>2024-09-12T19:21:33+00:00</time>
      </trkpt>
      <trkpt lat="45.41439" lon="2.26963">
        <ele>605</ele>
        <time>2024-09-12T19:21:36+00:00</time>
      </trkpt>
      <trkpt lat="45.41403" lon="2.26976">
        <ele>605</ele>
        <time>2024-09-12T19:21:39+00:00</time>
      </trkpt>
      <trkpt lat="45.41374" lon="2.27004">
        <ele>605</ele>
        <time>2024-09-12T19:21:42+00:00</time>
      </trkpt>
      <trkpt lat="45.41344" lon="2.27031">
        <ele>604</ele>
        <time>2024-09-12T19:21:45+00:00</time>
      </trkpt>
      <trkpt lat="45.41321" lon="2.27053">
        <ele>603</ele>
        <time>2024-09-12T19:21:48+00:00</time>
      </trkpt>
      <trkpt lat="45.41287" lon="2.27085">
        <ele>607</ele>
        <time>2024-09-12T19:21:51+00:00</time>
      </trkpt>
      <trkpt lat="45.41268" lon="2.27099">
        <ele>605</ele>
        <time>2024-09-12T19:21:54+00:00</time>
      </trkpt>
      <trkpt lat="45.41234" lon="2.27106">
        <ele>608</ele>
        <time>2024-09-12T19:21:57+00:00</time>
      </trkpt>
      <trkpt lat="45.41209" lon="2.27097">
        <ele>612</ele>
        <time>2024-09-12T19:22:00+00:00</time>
      </trkpt>
      <trkpt lat="45.41183" lon="2.27076">
        <ele>614</ele>
        <time>2024-09-12T19:22:03+00:00</time>
      </trkpt>
      <trkpt lat="45.41161" lon="2.27091">
        <ele>614</ele>
        <time>2024-09-12T19:22:06+00:00</time>
      </trkpt>
      <trkpt lat="45.41149" lon="2.27127">
        <ele>612</ele>
        <time>2024-09-12T19:22:09+00:00</time>
      </trkpt>
      <trkpt lat="45.4113" lon="2.27179">
        <ele>607</ele>
        <time>2024-09-12T19:22:12+00:00</time>
      </trkpt>
      <trkpt lat="45.41134" lon="2.27216">
        <ele>605</ele>
        <time>2024-09-12T19:22:15+00:00</time>
      </trkpt>
      <trkpt lat="45.41154" lon="2.27258">
        <ele>607</ele>
        <time>2024-09-12T19:22:18+00:00</time>
      </trkpt>
      <trkpt lat="45.41175" lon="2.27297">
        <ele>609</ele>
        <time>2024-09-12T19:22:21+00:00</time>
      </trkpt>
      <trkpt lat="45.41183" lon="2.27325">
        <ele>614</ele>
        <time>2024-09-12T19:22:24+00:00</time>
      </trkpt>
      <trkpt lat="45.41196" lon="2.27383">
        <ele>613</ele>
        <time>2024-09-12T19:22:27+00:00</time>
      </trkpt>
      <trkpt lat="45.41196" lon="2.27418">
        <ele>613</ele>
        <time>2024-09-12T19:22:30+00:00</time>
      </trkpt>
      <trkpt lat="45.41184" lon="2.27444">
        <ele>615</ele>
        <time>2024-09-12T19:22:33+00:00</time>
      </trkpt>
      <trkpt lat="45.41166" lon="2.27457">
        <ele>615</ele>
        <time>2024-09-12T19:22:36+00:00</time>
      </trkpt>
      <trkpt lat="45.41114" lon="2.27458">
        <ele>621</ele>
        <time>2024-09-12T19:22:39+00:00</time>
      </trkpt>
      <trkpt lat="45.41081" lon="2.27472">
        <ele>619</ele>
        <time>2024-09-12T19:22:42+00:00</time>
      </trkpt>
      <trkpt lat="45.41092" lon="2.27505">
        <ele>610.7</ele>
        <time>2024-09-12T19:22:45+00:00</time>
      </trkpt>
      <trkpt lat="45.41043" lon="2.27504">
        <ele>617</ele>
        <time>2024-09-12T19:22:48+00:00</time>
      </trkpt>
      <trkpt lat="45.41021" lon="2.27496">
        <ele>617</ele>
        <time>2024-09-12T19:22:51+00:00</time>
      </trkpt>
      <trkpt lat="45.40993" lon="2.27483">
        <ele>616</ele>
        <time>2024-09-12T19:22:54+00:00</time>
      </trkpt>
      <trkpt lat="45.40969" lon="2.27479">
        <ele>613</ele>
        <time>2024-09-12T19:22:57+00:00</time>
      </trkpt>
      <trkpt lat="45.40943" lon="2.27475">
        <ele>605</ele>
        <time>2024-09-12T19:23:00+00:00</time>
      </trkpt>
      <trkpt lat="45.40897" lon="2.27473">
        <ele>604</ele>
        <time>2024-09-12T19:23:03+00:00</time>
      </trkpt>
      <trkpt lat="45.40868" lon="2.27489">
        <ele>603</ele>
        <time>2024-09-12T19:23:06+00:00</time>
      </trkpt>
      <trkpt lat="45.4084" lon="2.27502">
        <ele>603</ele>
        <time>2024-09-12T19:23:09+00:00</time>
      </trkpt>
      <trkpt lat="45.40814" lon="2.27507">
        <ele>602</ele>
        <time>2024-09-12T19:23:12+00:00</time>
      </trkpt>
      <trkpt lat="45.40805" lon="2.27531">
        <ele>603</ele>
        <time>2024-09-12T19:23:15+00:00</time>
      </trkpt>
      <trkpt lat="45.40814" lon="2.27577">
        <ele>602</ele>
        <time>2024-09-12T19:23:18+00:00</time>
      </trkpt>
      <trkpt lat="45.40817" lon="2.27612">
        <ele>601</ele>
        <time>2024-09-12T19:23:21+00:00</time>
      </trkpt>
      <trkpt lat="45.4081" lon="2.27638">
        <ele>601</ele>
        <time>2024-09-12T19:23:24+00:00</time>
      </trkpt>
      <trkpt lat="45.40759" lon="2.27663">
        <ele>601</ele>
        <time>2024-09-12T19:23:27+00:00</time>
      </trkpt>
      <trkpt lat="45.40734" lon="2.27692">
        <ele>599</ele>
        <time>2024-09-12T19:23:30+00:00</time>
      </trkpt>
      <trkpt lat="45.4071" lon="2.27721">
        <ele>598</ele>
        <time>2024-09-12T19:23:33+00:00</time>
      </trkpt>
      <trkpt lat="45.40682" lon="2.27754">
        <ele>598</ele>
        <time>2024-09-12T19:23:36+00:00</time>
      </trkpt>
      <trkpt lat="45.40659" lon="2.2777">
        <ele>599</ele>
        <time>2024-09-12T19:23:39+00:00</time>
      </trkpt>
      <trkpt lat="45.40627" lon="2.27764">
        <ele>600</ele>
        <time>2024-09-12T19:23:42+00:00</time>
      </trkpt>
      <trkpt lat="45.40608" lon="2.27759">
        <ele>600</ele>
        <time>2024-09-12T19:23:45+00:00</time>
      </trkpt>
      <trkpt lat="45.40585" lon="2.27706">
        <ele>609</ele>
        <time>2024-09-12T19:23:48+00:00</time>
      </trkpt>
      <trkpt lat="45.40562" lon="2.27682">
        <ele>611</ele>
        <time>2024-09-12T19:23:51+00:00</time>
      </trkpt>
      <trkpt lat="45.40534" lon="2.27681">
        <ele>609</ele>
        <time>2024-09-12T19:23:54+00:00</time>
      </trkpt>
      <trkpt lat="45.40494" lon="2.27699">
        <ele>612</ele>
        <time>2024-09-12T19:23:57+00:00</time>
      </trkpt>
      <trkpt lat="45.40459" lon="2.27718">
        <ele>611</ele>
        <time>2024-09-12T19:24:00+00:00</time>
      </trkpt>
      <trkpt lat="45.40434" lon="2.27717">
        <ele>611</ele>
        <time>2024-09-12T19:24:03+00:00</time>
      </trkpt>
      <trkpt lat="45.40412" lon="2.27696">
        <ele>610</ele>
        <time>2024-09-12T19:24:06+00:00</time>
      </trkpt>
      <trkpt lat="45.40386" lon="2.27685">
        <ele>610</ele>
        <time>2024-09-12T19:24:09+00:00</time>
      </trkpt>
      <trkpt lat="45.40359" lon="2.27696">
        <ele>607</ele>
        <time>2024-09-12T19:24:12+00:00</time>
      </trkpt>
      <trkpt lat="45.40331" lon="2.27711">
        <ele>605</ele>
        <time>2024-09-12T19:24:15+00:00</time>
      </trkpt>
      <trkpt lat="45.40309" lon="2.27724">
        <ele>605</ele>
        <time>2024-09-12T19:24:18+00:00</time>
      </trkpt>
      <trkpt lat="45.40286" lon="2.27737">
        <ele>603</ele>
        <time>2024-09-12T19:24:21+00:00</time>
      </trkpt>
      <trkpt lat="45.40277" lon="2.27775">
        <ele>601</ele>
        <time>2024-09-12T19:24:24+00:00</time>
      </trkpt>
      <trkpt lat="45.40275" lon="2.2781">
        <ele>600</ele>
        <time>2024-09-12T19:24:27+00:00</time>
      </trkpt>
      <trkpt lat="45.40274" lon="2.2785">
        <ele>600</ele>
        <time>2024-09-12T19:24:30+00:00</time>
      </trkpt>
      <trkpt lat="45.4027" lon="2.27894">
        <ele>605</ele>
        <time>2024-09-12T19:24:33+00:00</time>
      </trkpt>
      <trkpt lat="45.40263" lon="2.2792">
        <ele>607</ele>
        <time>2024-09-12T19:24:36+00:00</time>
      </trkpt>
      <trkpt lat="45.40246" lon="2.27945">
        <ele>609</ele>
        <time>2024-09-12T19:24:39+00:00</time>
      </trkpt>
      <trkpt lat="45.40224" lon="2.27953">
        <ele>609</ele>
        <time>2024-09-12T19:24:42+00:00</time>
      </trkpt>
      <trkpt lat="45.40208" lon="2.27969">
        <ele>606</ele>
        <time>2024-09-12T19:24:45+00:00</time>
      </trkpt>
      <trkpt lat="45.40196" lon="2.27991">
        <ele>606</ele>
        <time>2024-09-12T19:24:48+00:00</time>
      </trkpt>
      <trkpt lat="45.40188" lon="2.28022">
        <ele>605</ele>
        <time>2024-09-12T19:24:51+00:00</time>
      </trkpt>
      <trkpt lat="45.4022" lon="2.28036">
        <ele>605</ele>
        <time>2024-09-12T19:24:54+00:00</time>
      </trkpt>
      <trkpt lat="45.40251" lon="2.28051">
        <ele>608</ele>
        <time>2024-09-12T19:24:57+00:00</time>
      </trkpt>
      <trkpt lat="45.40295" lon="2.2807">
        <ele>607</ele>
        <time>2024-09-12T19:25:00+00:00</time>
      </trkpt>
      <trkpt lat="45.40266" lon="2.28094">
        <ele>606</ele>
        <time>2024-09-12T19:25:03+00:00</time>
      </trkpt>
      <trkpt lat="45.40236" lon="2.28117">
        <ele>603</ele>
        <time>2024-09-12T19:25:06+00:00</time>
      </trkpt>
      <trkpt lat="45.40214" lon="2.28135">
        <ele>601</ele>
        <time>2024-09-12T19:25:09+00:00</time>
      </trkpt>
      <trkpt lat="45.40191" lon="2.28153">
        <ele>601</ele>
        <time>2024-09-12T19:25:12+00:00</time>
      </trkpt>
      <trkpt lat="45.40157" lon="2.28174">
        <ele>603</ele>
        <time>2024-09-12T19:25:15+00:00</time>
      </trkpt>
      <trkpt lat="45.40123" lon="2.28194">
        <ele>603</ele>
        <time>2024-09-12T19:25:18+00:00</time>
      </trkpt>
      <trkpt lat="45.40089" lon="2.28215">
        <ele>600</ele>
        <time>2024-09-12T19:25:21+00:00</time>
      </trkpt>
      <trkpt lat="45.40066" lon="2.2823">
        <ele>600</ele>
        <time>2024-09-12T19:25:24+00:00</time>
      </trkpt>
      <trkpt lat="45.40037" lon="2.28247">
        <ele>605</ele>
        <time>2024-09-12T19:25:27+00:00</time>
      </trkpt>
      <trkpt lat="45.40021" lon="2.28267">
        <ele>605</ele>
        <time>2024-09-12T19:25:30+00:00</time>
      </trkpt>
      <trkpt lat="45.40013" lon="2.28297">
        <ele>611</ele>
        <time>2024-09-12T19:25:33+00:00</time>
      </trkpt>
      <trkpt lat="45.4" lon="2.28333">
        <ele>612</ele>
        <time>2024-09-12T19:25:36+00:00</time>
      </trkpt>
      <trkpt lat="45.39987" lon="2.28363">
        <ele>611</ele>
        <time>2024-09-12T19:25:39+00:00</time>
      </trkpt>
      <trkpt lat="45.39962" lon="2.28394">
        <ele>611</ele>
        <time>2024-09-12T19:25:42+00:00</time>
      </trkpt>
      <trkpt lat="45.39932" lon="2.28424">
        <ele>610</ele>
        <time>2024-09-12T19:25:45+00:00</time>
      </trkpt>
      <trkpt lat="45.39906" lon="2.2844">
        <ele>609</ele>
        <time>2024-09-12T19:25:48+00:00</time>
      </trkpt>
      <trkpt lat="45.39867" lon="2.28464">
        <ele>605</ele>
        <time>2024-09-12T19:25:51+00:00</time>
      </trkpt>
      <trkpt lat="45.39844" lon="2.28486">
        <ele>604</ele>
        <time>2024-09-12T19:25:54+00:00</time>
      </trkpt>
      <trkpt lat="45.39813" lon="2.28516">
        <ele>604</ele>
        <time>2024-09-12T19:25:57+00:00</time>
      </trkpt>
      <trkpt lat="45.39794" lon="2.28542">
        <ele>603</ele>
        <time>2024-09-12T19:26:00+00:00</time>
      </trkpt>
      <trkpt lat="45.39774" lon="2.28581">
        <ele>603</ele>
        <time>2024-09-12T19:26:03+00:00</time>
      </trkpt>
      <trkpt lat="45.39754" lon="2.2862">
        <ele>597</ele>
        <time>2024-09-12T19:26:06+00:00</time>
      </trkpt>
      <trkpt lat="45.39739" lon="2.28649">
        <ele>596</ele>
        <time>2024-09-12T19:26:09+00:00</time>
      </trkpt>
      <trkpt lat="45.39723" lon="2.28681">
        <ele>597</ele>
        <time>2024-09-12T19:26:12+00:00</time>
      </trkpt>
      <trkpt lat="45.39699" lon="2.28717">
        <ele>599</ele>
        <time>2024-09-12T19:26:15+00:00</time>
      </trkpt>
      <trkpt lat="45.3968" lon="2.28729">
        <ele>601</ele>
        <time>2024-09-12T19:26:18+00:00</time>
      </trkpt>
      <trkpt lat="45.39653" lon="2.28729">
        <ele>601</ele>
        <time>2024-09-12T19:26:21+00:00</time>
      </trkpt>
      <trkpt lat="45.39599" lon="2.28754">
        <ele>601.6</ele>
        <time>2024-09-12T19:26:24+00:00</time>
      </trkpt>
      <trkpt lat="45.39591" lon="2.28721">
        <ele>600.8</ele>
        <time>2024-09-12T19:26:27+00:00</time>
      </trkpt>
      <trkpt lat="45.39599" lon="2.28679">
        <ele>597</ele>
        <time>2024-09-12T19:26:30+00:00</time>
      </trkpt>
      <trkpt lat="45.39611" lon="2.28651">
        <ele>599</ele>
        <time>2024-09-12T19:26:33+00:00</time>
      </trkpt>
      <trkpt lat="45.39589" lon="2.28628">
        <ele>601</ele>
        <time>2024-09-12T19:26:36+00:00</time>
      </trkpt>
      <trkpt lat="45.39562" lon="2.28597">
        <ele>600</ele>
        <time>2024-09-12T19:26:39+00:00</time>
      </trkpt>
      <trkpt lat="45.39536" lon="2.28588">
        <ele>600</ele>
        <time>2024-09-12T19:26:42+00:00</time>
      </trkpt>
      <trkpt lat="45.39518" lon="2.28555">
        <ele>600</ele>
        <time>2024-09-12T19:26:45+00:00</time>
      </trkpt>
      <trkpt lat="45.39518" lon="2.28516">
        <ele>600</ele>
        <time>2024-09-12T19:26:48+00:00</time>
      </trkpt>
      <trkpt lat="45.39511" lon="2.28489">
        <ele>599</ele>
        <time>2024-09-12T19:26:51+00:00</time>
      </trkpt>
      <trkpt lat="45.39477" lon="2.2846">
        <ele>599</ele>
        <time>2024-09-12T19:26:54+00:00</time>
      </trkpt>
      <trkpt lat="45.39461" lon="2.28506">
        <ele>599</ele>
        <time>2024-09-12T19:26:57+00:00</time>
      </trkpt>
      <trkpt lat="45.39456" lon="2.2857">
        <ele>601.7</ele>
        <time>2024-09-12T19:27:00+00:00</time>
      </trkpt>
      <trkpt lat="45.39438" lon="2.28595">
        <ele>600</ele>
        <time>2024-09-12T19:27:03+00:00</time>
      </trkpt>
      <trkpt lat="45.3942" lon="2.28623">
        <ele>598</ele>
        <time>2024-09-12T19:27:06+00:00</time>
      </trkpt>
      <trkpt lat="45.39398" lon="2.28657">
        <ele>597</ele>
        <time>2024-09-12T19:27:09+00:00</time>
      </trkpt>
      <trkpt lat="45.39378" lon="2.28687">
        <ele>597</ele>
        <time>2024-09-12T19:27:12+00:00</time>
      </trkpt>
      <trkpt lat="45.39352" lon="2.28702">
        <ele>593</ele>
        <time>2024-09-12T19:27:15+00:00</time>
      </trkpt>
      <trkpt lat="45.39315" lon="2.28723">
        <ele>591</ele>
        <time>2024-09-12T19:27:18+00:00</time>
      </trkpt>
      <trkpt lat="45.39291" lon="2.28727">
        <ele>594</ele>
        <time>2024-09-12T19:27:21+00:00</time>
      </trkpt>
      <trkpt lat="45.39267" lon="2.28731">
        <ele>595</ele>
        <time>2024-09-12T19:27:24+00:00</time>
      </trkpt>
      <trkpt lat="45.39214" lon="2.2873">
        <ele>603.2</ele>
        <time>2024-09-12T19:27:27+00:00</time>
      </trkpt>
      <trkpt lat="45.39194" lon="2.2877">
        <ele>600</ele>
        <time>2024-09-12T19:27:30+00:00</time>
      </trkpt>
      <trkpt lat="45.39189" lon="2.28814">
        <ele>603</ele>
        <time>2024-09-12T19:27:33+00:00</time>
      </trkpt>
      <trkpt lat="45.39187" lon="2.2885">
        <ele>601</ele>
        <time>2024-09-12T19:27:36+00:00</time>
      </trkpt>
      <trkpt lat="45.39185" lon="2.28889">
        <ele>600</ele>
        <time>2024-09-12T19:27:39+00:00</time>
      </trkpt>
      <trkpt lat="45.39171" lon="2.28911">
        <ele>596</ele>
        <time>2024-09-12T19:27:42+00:00</time>
      </trkpt>
      <trkpt lat="45.39137" lon="2.28964">
        <ele>593</ele>
        <time>2024-09-12T19:27:45+00:00</time>
      </trkpt>
      <trkpt lat="45.39133" lon="2.2899">
        <ele>593</ele>
        <time>2024-09-12T19:27:48+00:00</time>
      </trkpt>
      <trkpt lat="45.39112" lon="2.29023">
        <ele>594</ele>
        <time>2024-09-12T19:27:51+00:00</time>
      </trkpt>
      <trkpt lat="45.39102" lon="2.29058">
        <ele>596</ele>
        <time>2024-09-12T19:27:54+00:00</time>
      </trkpt>
      <trkpt lat="45.391" lon="2.2909">
        <ele>598</ele>
        <time>2024-09-12T19:27:57+00:00</time>
      </trkpt>
      <trkpt lat="45.39101" lon="2.29124">
        <ele>599</ele>
        <time>2024-09-12T19:28:00+00:00</time>
      </trkpt>
      <trkpt lat="45.39102" lon="2.2916">
        <ele>597</ele>
        <time>2024-09-12T19:28:03+00:00</time>
      </trkpt>
      <trkpt lat="45.39012" lon="2.29196">
        <ele>601.5</ele>
        <time>2024-09-12T19:28:06+00:00</time>
      </trkpt>
      <trkpt lat="45.39003" lon="2.29183">
        <ele>602.7</ele>
        <time>2024-09-12T18:45:36+00:00</time>
      </trkpt>
      <trkpt lat="45.39003" lon="2.29183">
        <ele>602.7</ele>
        <time>2024-09-12T18:45:36+00:00</time>
      </trkpt>
      <trkpt lat="45.38986" lon="2.29133">
        <ele>605.6</ele>
      </trkpt>
      <trkpt lat="45.38966" lon="2.29143">
        <ele>596</ele>
        <time>2024-09-12T18:45:39+00:00</time>
      </trkpt>
      <trkpt lat="45.38947" lon="2.29146">
        <ele>593</ele>
        <time>2024-09-12T18:45:42+00:00</time>
      </trkpt>
      <trkpt lat="45.38917" lon="2.2914">
        <ele>594</ele>
        <time>2024-09-12T18:45:45+00:00</time>
      </trkpt>
      <trkpt lat="45.38894" lon="2.29135">
        <ele>596</ele>
        <time>2024-09-12T18:45:48+00:00</time>
      </trkpt>
      <trkpt lat="45.38869" lon="2.2913">
        <ele>600</ele>
        <time>2024-09-12T18:45:51+00:00</time>
      </trkpt>
      <trkpt lat="45.38842" lon="2.29116">
        <ele>606</ele>
        <time>2024-09-12T18:45:54+00:00</time>
      </trkpt>
      <trkpt lat="45.38825" lon="2.29088">
        <ele>606</ele>
        <time>2024-09-12T18:45:57+00:00</time>
      </trkpt>
      <trkpt lat="45.38803" lon="2.29052">
        <ele>606</ele>
        <time>2024-09-12T18:46:00+00:00</time>
      </trkpt>
      <trkpt lat="45.38787" lon="2.29029">
        <ele>604</ele>
        <time>2024-09-12T18:46:03+00:00</time>
      </trkpt>
      <trkpt lat="45.38757" lon="2.29025">
        <ele>603</ele>
        <time>2024-09-12T18:46:06+00:00</time>
      </trkpt>
      <trkpt lat="45.38634" lon="2.29141">
        <ele>600</ele>
        <time>2024-09-12T18:46:09+00:00</time>
      </trkpt>
      <trkpt lat="45.38618" lon="2.29171">
        <ele>597</ele>
        <time>2024-09-12T18:46:12+00:00</time>
      </trkpt>
      <trkpt lat="45.38629" lon="2.29201">
        <ele>595</ele>
        <time>2024-09-12T18:46:15+00:00</time>
      </trkpt>
      <trkpt lat="45.38628" lon="2.29231">
        <ele>601</ele>
        <time>2024-09-12T18:46:18+00:00</time>
      </trkpt>
      <trkpt lat="45.38541" lon="2.29225">
        <ele>607</ele>
        <time>2024-09-12T18:46:21+00:00</time>
      </trkpt>
      <trkpt lat="45.38514" lon="2.29214">
        <ele>609</ele>
        <time>2024-09-12T18:46:24+00:00</time>
      </trkpt>
      <trkpt lat="45.3848" lon="2.29204">
        <ele>609</ele>
        <time>2024-09-12T18:46:27+00:00</time>
      </trkpt>
      <trkpt lat="45.38461" lon="2.29239">
        <ele>608</ele>
        <time>2024-09-12T18:46:30+00:00</time>
      </trkpt>
      <trkpt lat="45.38463" lon="2.29273">
        <ele>607</ele>
        <time>2024-09-12T18:46:33+00:00</time>
      </trkpt>
      <trkpt lat="45.38485" lon="2.29296">
        <ele>607</ele>
        <time>2024-09-12T18:46:36+00:00</time>
      </trkpt>
      <trkpt lat="45.38517" lon="2.29327">
        <ele>607</ele>
        <time>2024-09-12T18:46:39+00:00</time>
      </trkpt>
      <trkpt lat="45.38531" lon="2.29358">
        <ele>607</ele>
        <time>2024-09-12T18:46:42+00:00</time>
      </trkpt>
      <trkpt lat="45.38547" lon="2.29393">
        <ele>607</ele>
        <time>2024-09-12T18:46:45+00:00</time>
      </trkpt>
      <trkpt lat="45.38543" lon="2.29453">
        <ele>603</ele>
        <time>2024-09-12T18:46:48+00:00</time>
      </trkpt>
      <trkpt lat="45.38523" lon="2.29499">
        <ele>598</ele>
        <time>2024-09-12T18:46:51+00:00</time>
      </trkpt>
      <trkpt lat="45.38499" lon="2.29522">
        <ele>593</ele>
        <time>2024-09-12T18:46:54+00:00</time>
      </trkpt>
      <trkpt lat="45.38465" lon="2.29547">
        <ele>593</ele>
        <time>2024-09-12T18:46:57+00:00</time>
      </trkpt>
      <trkpt lat="45.38432" lon="2.29568">
        <ele>595</ele>
        <time>2024-09-12T18:47:00+00:00</time>
      </trkpt>
      <trkpt lat="45.38399" lon="2.29585">
        <ele>598</ele>
        <time>2024-09-12T18:47:03+00:00</time>
      </trkpt>
      <trkpt lat="45.3837" lon="2.29601">
        <ele>598</ele>
        <time>2024-09-12T18:47:06+00:00</time>
      </trkpt>
      <trkpt lat="45.38353" lon="2.29624">
        <ele>598</ele>
        <time>2024-09-12T18:47:09+00:00</time>
      </trkpt>
      <trkpt lat="45.38332" lon="2.29644">
        <ele>599</ele>
        <time>2024-09-12T18:47:12+00:00</time>
      </trkpt>
      <trkpt lat="45.38291" lon="2.29618">
        <ele>604</ele>
        <time>2024-09-12T18:47:15+00:00</time>
      </trkpt>
      <trkpt lat="45.38274" lon="2.29596">
        <ele>604</ele>
        <time>2024-09-12T18:47:18+00:00</time>
      </trkpt>
      <trkpt lat="45.38252" lon="2.29572">
        <ele>604</ele>
        <time>2024-09-12T18:47:21+00:00</time>
      </trkpt>
      <trkpt lat="45.38217" lon="2.29568">
        <ele>602</ele>
        <time>2024-09-12T18:47:24+00:00</time>
      </trkpt>
      <trkpt lat="45.38187" lon="2.29533">
        <ele>601</ele>
        <time>2024-09-12T18:47:27+00:00</time>
      </trkpt>
      <trkpt lat="45.38174" lon="2.29495">
        <ele>601</ele>
        <time>2024-09-12T18:47:30+00:00</time>
      </trkpt>
      <trkpt lat="45.38155" lon="2.29478">
        <ele>603</ele>
        <time>2024-09-12T18:47:33+00:00</time>
      </trkpt>
      <trkpt lat="45.38122" lon="2.29455">
        <ele>606</ele>
        <time>2024-09-12T18:47:36+00:00</time>
      </trkpt>
      <trkpt lat="45.38102" lon="2.29452">
        <ele>606</ele>
        <time>2024-09-12T18:47:39+00:00</time>
      </trkpt>
      <trkpt lat="45.38065" lon="2.29474">
        <ele>600</ele>
        <time>2024-09-12T18:47:42+00:00</time>
      </trkpt>
      <trkpt lat="45.38051" lon="2.29496">
        <ele>600</ele>
        <time>2024-09-12T18:47:45+00:00</time>
      </trkpt>
      <trkpt lat="45.38047" lon="2.29524">
        <ele>598</ele>
        <time>2024-09-12T18:47:48+00:00</time>
      </trkpt>
      <trkpt lat="45.38046" lon="2.29563">
        <ele>597</ele>
        <time>2024-09-12T18:47:51+00:00</time>
      </trkpt>
      <trkpt lat="45.38033" lon="2.29586">
        <ele>594</ele>
        <time>2024-09-12T18:47:54+00:00</time>
      </trkpt>
      <trkpt lat="45.38009" lon="2.29603">
        <ele>593</ele>
        <time>2024-09-12T18:47:57+00:00</time>
      </trkpt>
      <trkpt lat="45.37973" lon="2.29607">
        <ele>593</ele>
        <time>2024-09-12T18:48:00+00:00</time>
      </trkpt>
      <trkpt lat="45.37935" lon="2.29604">
        <ele>596</ele>
        <time>2024-09-12T18:48:03+00:00</time>
      </trkpt>
      <trkpt lat="45.37914" lon="2.29597">
        <ele>595</ele>
        <time>2024-09-12T18:48:06+00:00</time>
      </trkpt>
      <trkpt lat="45.37898" lon="2.2957">
        <ele>595</ele>
        <time>2024-09-12T18:48:09+00:00</time>
      </trkpt>
      <trkpt lat="45.37892" lon="2.29543">
        <ele>597</ele>
        <time>2024-09-12T18:48:12+00:00</time>
      </trkpt>
      <trkpt lat="45.37882" lon="2.29516">
        <ele>597</ele>
        <time>2024-09-12T18:48:15+00:00</time>
      </trkpt>
      <trkpt lat="45.37862" lon="2.295">
        <ele>596</ele>
        <time>2024-09-12T18:48:18+00:00</time>
      </trkpt>
      <trkpt lat="45.37835" lon="2.29503">
        <ele>596</ele>
        <time>2024-09-12T18:48:21+00:00</time>
      </trkpt>
      <trkpt lat="45.37813" lon="2.2952">
        <ele>595</ele>
        <time>2024-09-12T18:48:24+00:00</time>
      </trkpt>
      <trkpt lat="45.37795" lon="2.29536">
        <ele>595</ele>
        <time>2024-09-12T18:48:27+00:00</time>
      </trkpt>
      <trkpt lat="45.3776" lon="2.29503">
        <ele>603</ele>
        <time>2024-09-12T18:48:30+00:00</time>
      </trkpt>
      <trkpt lat="45.3774" lon="2.29473">
        <ele>607</ele>
        <time>2024-09-12T18:48:33+00:00</time>
      </trkpt>
      <trkpt lat="45.37727" lon="2.29446">
        <ele>607</ele>
        <time>2024-09-12T18:48:36+00:00</time>
      </trkpt>
      <trkpt lat="45.37717" lon="2.29416">
        <ele>604</ele>
        <time>2024-09-12T18:48:39+00:00</time>
      </trkpt>
      <trkpt lat="45.37698" lon="2.29382">
        <ele>604</ele>
        <time>2024-09-12T18:48:42+00:00</time>
      </trkpt>
      <trkpt lat="45.37667" lon="2.29388">
        <ele>604</ele>
        <time>2024-09-12T18:48:45+00:00</time>
      </trkpt>
      <trkpt lat="45.37653" lon="2.29409">
        <ele>606</ele>
        <time>2024-09-12T18:48:48+00:00</time>
      </trkpt>
      <trkpt lat="45.3765" lon="2.29454">
        <ele>606</ele>
        <time>2024-09-12T18:48:51+00:00</time>
      </trkpt>
      <trkpt lat="45.3766" lon="2.29502">
        <ele>606</ele>
        <time>2024-09-12T18:48:54+00:00</time>
      </trkpt>
      <trkpt lat="45.3767" lon="2.29549">
        <ele>606</ele>
        <time>2024-09-12T18:48:57+00:00</time>
      </trkpt>
      <trkpt lat="45.37677" lon="2.29586">
        <ele>610</ele>
        <time>2024-09-12T18:49:00+00:00</time>
      </trkpt>
      <trkpt lat="45.37687" lon="2.29635">
        <ele>610</ele>
        <time>2024-09-12T18:49:03+00:00</time>
      </trkpt>
      <trkpt lat="45.37688" lon="2.29674">
        <ele>609</ele>
        <time>2024-09-12T18:49:06+00:00</time>
      </trkpt>
      <trkpt lat="45.37676" lon="2.29723">
        <ele>608</ele>
        <time>2024-09-12T18:49:09+00:00</time>
      </trkpt>
      <trkpt lat="45.37676" lon="2.29758">
        <ele>605</ele>
        <time>2024-09-12T18:49:12+00:00</time>
      </trkpt>
      <trkpt lat="45.3769" lon="2.29811">
        <ele>601</ele>
        <time>2024-09-12T18:49:15+00:00</time>
      </trkpt>
      <trkpt lat="45.3769" lon="2.29854">
        <ele>602</ele>
        <time>2024-09-12T18:49:18+00:00</time>
      </trkpt>
      <trkpt lat="45.37677" lon="2.29884">
        <ele>603</ele>
        <time>2024-09-12T18:49:21+00:00</time>
      </trkpt>
      <trkpt lat="45.3766" lon="2.29916">
        <ele>605</ele>
        <time>2024-09-12T18:49:24+00:00</time>
      </trkpt>
      <trkpt lat="45.37631" lon="2.29945">
        <ele>609</ele>
        <time>2024-09-12T18:49:27+00:00</time>
      </trkpt>
      <trkpt lat="45.37623" lon="2.29998">
        <ele>612</ele>
        <time>2024-09-12T18:49:30+00:00</time>
      </trkpt>
      <trkpt lat="45.37612" lon="2.30049">
        <ele>613</ele>
        <time>2024-09-12T18:49:33+00:00</time>
      </trkpt>
      <trkpt lat="45.37629" lon="2.3011">
        <ele>613</ele>
        <time>2024-09-12T18:49:36+00:00</time>
      </trkpt>
      <trkpt lat="45.37637" lon="2.30146">
        <ele>612</ele>
        <time>2024-09-12T18:49:39+00:00</time>
      </trkpt>
      <trkpt lat="45.37643" lon="2.30184">
        <ele>612</ele>
        <time>2024-09-12T18:49:42+00:00</time>
      </trkpt>
      <trkpt lat="45.37686" lon="2.30169">
        <ele>618</ele>
        <time>2024-09-12T18:49:45+00:00</time>
      </trkpt>
      <trkpt lat="45.37715" lon="2.30187">
        <ele>628</ele>
        <time>2024-09-12T18:49:48+00:00</time>
      </trkpt>
      <trkpt lat="45.37733" lon="2.30171">
        <ele>628</ele>
        <time>2024-09-12T18:49:51+00:00</time>
      </trkpt>
      <trkpt lat="45.37768" lon="2.30181">
        <ele>628</ele>
        <time>2024-09-12T18:49:54+00:00</time>
      </trkpt>
      <trkpt lat="45.37798" lon="2.30197">
        <ele>621</ele>
        <time>2024-09-12T18:49:57+00:00</time>
      </trkpt>
      <trkpt lat="45.37831" lon="2.30178">
        <ele>613</ele>
        <time>2024-09-12T18:50:00+00:00</time>
      </trkpt>
      <trkpt lat="45.37847" lon="2.30188">
        <ele>613</ele>
        <time>2024-09-12T18:50:03+00:00</time>
      </trkpt>
      <trkpt lat="45.37866" lon="2.30219">
        <ele>609</ele>
        <time>2024-09-12T18:50:06+00:00</time>
      </trkpt>
      <trkpt lat="45.37884" lon="2.30238">
        <ele>607</ele>
        <time>2024-09-12T18:50:09+00:00</time>
      </trkpt>
      <trkpt lat="45.37905" lon="2.30231">
        <ele>607</ele>
        <time>2024-09-12T18:50:12+00:00</time>
      </trkpt>
      <trkpt lat="45.37933" lon="2.30213">
        <ele>606</ele>
        <time>2024-09-12T18:50:15+00:00</time>
      </trkpt>
      <trkpt lat="45.37966" lon="2.30204">
        <ele>606</ele>
        <time>2024-09-12T18:50:18+00:00</time>
      </trkpt>
      <trkpt lat="45.37985" lon="2.30215">
        <ele>610</ele>
        <time>2024-09-12T18:50:21+00:00</time>
      </trkpt>
      <trkpt lat="45.37986" lon="2.30267">
        <ele>614</ele>
        <time>2024-09-12T18:50:24+00:00</time>
      </trkpt>
      <trkpt lat="45.3801" lon="2.30269">
        <ele>615</ele>
        <time>2024-09-12T18:50:27+00:00</time>
      </trkpt>
      <trkpt lat="45.38033" lon="2.30278">
        <ele>615</ele>
        <time>2024-09-12T18:50:30+00:00</time>
      </trkpt>
      <trkpt lat="45.38059" lon="2.30308">
        <ele>614</ele>
        <time>2024-09-12T18:50:33+00:00</time>
      </trkpt>
      <trkpt lat="45.38072" lon="2.30336">
        <ele>610</ele>
        <time>2024-09-12T18:50:36+00:00</time>
      </trkpt>
      <trkpt lat="45.38086" lon="2.30377">
        <ele>607</ele>
        <time>2024-09-12T18:50:39+00:00</time>
      </trkpt>
      <trkpt lat="45.381" lon="2.30418">
        <ele>608</ele>
        <time>2024-09-12T18:50:42+00:00</time>
      </trkpt>
      <trkpt lat="45.38116" lon="2.30464">
        <ele>606</ele>
        <time>2024-09-12T18:50:45+00:00</time>
      </trkpt>
      <trkpt lat="45.38131" lon="2.30509">
        <ele>606</ele>
        <time>2024-09-12T18:50:48+00:00</time>
      </trkpt>
      <trkpt lat="45.38141" lon="2.30534">
        <ele>607</ele>
        <time>2024-09-12T18:50:51+00:00</time>
      </trkpt>
      <trkpt lat="45.38169" lon="2.30564">
        <ele>609</ele>
        <time>2024-09-12T18:50:54+00:00</time>
      </trkpt>
      <trkpt lat="45.38189" lon="2.30577">
        <ele>613</ele>
        <time>2024-09-12T18:50:57+00:00</time>
      </trkpt>
      <trkpt lat="45.38242" lon="2.30612">
        <ele>622</ele>
        <time>2024-09-12T18:51:00+00:00</time>
      </trkpt>
      <trkpt lat="45.38276" lon="2.30642">
        <ele>621</ele>
        <time>2024-09-12T18:51:03+00:00</time>
      </trkpt>
      <trkpt lat="45.38291" lon="2.30667">
        <ele>620</ele>
        <time>2024-09-12T18:51:06+00:00</time>
      </trkpt>
      <trkpt lat="45.38304" lon="2.30702">
        <ele>618</ele>
        <time>2024-09-12T18:51:09+00:00</time>
      </trkpt>
      <trkpt lat="45.38321" lon="2.30749">
        <ele>618</ele>
        <time>2024-09-12T18:51:12+00:00</time>
      </trkpt>
      <trkpt lat="45.38341" lon="2.30739">
        <ele>621</ele>
        <time>2024-09-12T18:51:15+00:00</time>
      </trkpt>
      <trkpt lat="45.38376" lon="2.30746">
        <ele>625</ele>
        <time>2024-09-12T18:51:18+00:00</time>
      </trkpt>
      <trkpt lat="45.38406" lon="2.30743">
        <ele>634</ele>
        <time>2024-09-12T18:51:21+00:00</time>
      </trkpt>
      <trkpt lat="45.38412" lon="2.30775">
        <ele>642</ele>
        <time>2024-09-12T18:51:24+00:00</time>
      </trkpt>
      <trkpt lat="45.38443" lon="2.30789">
        <ele>649</ele>
        <time>2024-09-12T18:51:27+00:00</time>
      </trkpt>
      <trkpt lat="45.3847" lon="2.30803">
        <ele>652</ele>
        <time>2024-09-12T18:51:30+00:00</time>
      </trkpt>
      <trkpt lat="45.38491" lon="2.30813">
        <ele>652</ele>
        <time>2024-09-12T18:51:33+00:00</time>
      </trkpt>
      <trkpt lat="45.38514" lon="2.3082">
        <ele>649</ele>
        <time>2024-09-12T18:51:36+00:00</time>
      </trkpt>
      <trkpt lat="45.38535" lon="2.3082">
        <ele>649</ele>
        <time>2024-09-12T18:51:39+00:00</time>
      </trkpt>
      <trkpt lat="45.38587" lon="2.30806">
        <ele>643</ele>
        <time>2024-09-12T18:51:42+00:00</time>
      </trkpt>
      <trkpt lat="45.3862" lon="2.30799">
        <ele>642</ele>
        <time>2024-09-12T18:51:45+00:00</time>
      </trkpt>
      <trkpt lat="45.38649" lon="2.30799">
        <ele>642</ele>
        <time>2024-09-12T18:51:48+00:00</time>
      </trkpt>
      <trkpt lat="45.38695" lon="2.30799">
        <ele>635</ele>
        <time>2024-09-12T18:51:51+00:00</time>
      </trkpt>
      <trkpt lat="45.3872" lon="2.30801">
        <ele>629</ele>
        <time>2024-09-12T18:51:54+00:00</time>
      </trkpt>
      <trkpt lat="45.38748" lon="2.30847">
        <ele>621</ele>
        <time>2024-09-12T18:51:57+00:00</time>
      </trkpt>
      <trkpt lat="45.3878" lon="2.30836">
        <ele>616</ele>
        <time>2024-09-12T18:52:00+00:00</time>
      </trkpt>
      <trkpt lat="45.38785" lon="2.30748">
        <ele>616</ele>
        <time>2024-09-12T18:52:03+00:00</time>
      </trkpt>
      <trkpt lat="45.3882" lon="2.30742">
        <ele>613</ele>
        <time>2024-09-12T18:52:06+00:00</time>
      </trkpt>
      <trkpt lat="45.38813" lon="2.30688">
        <ele>605</ele>
        <time>2024-09-12T18:52:09+00:00</time>
      </trkpt>
      <trkpt lat="45.38809" lon="2.30639">
        <ele>605</ele>
        <time>2024-09-12T18:52:12+00:00</time>
      </trkpt>
      <trkpt lat="45.38819" lon="2.30607">
        <ele>604</ele>
        <time>2024-09-12T18:52:15+00:00</time>
      </trkpt>
      <trkpt lat="45.3883" lon="2.30574">
        <ele>603</ele>
        <time>2024-09-12T18:52:18+00:00</time>
      </trkpt>
      <trkpt lat="45.38837" lon="2.3051">
        <ele>599</ele>
        <time>2024-09-12T18:52:21+00:00</time>
      </trkpt>
      <trkpt lat="45.38846" lon="2.30476">
        <ele>599</ele>
        <time>2024-09-12T18:52:24+00:00</time>
      </trkpt>
      <trkpt lat="45.38889" lon="2.30487">
        <ele>601</ele>
        <time>2024-09-12T18:52:27+00:00</time>
      </trkpt>
      <trkpt lat="45.38919" lon="2.30478">
        <ele>601</ele>
        <time>2024-09-12T18:52:30+00:00</time>
      </trkpt>
      <trkpt lat="45.38931" lon="2.30453">
        <ele>601</ele>
        <time>2024-09-12T18:52:33+00:00</time>
      </trkpt>
      <trkpt lat="45.3893" lon="2.30419">
        <ele>599.9</ele>
        <time>2024-09-12T18:52:36+00:00</time>
      </trkpt>
      <trkpt lat="45.38929" lon="2.30385">
        <ele>600.7</ele>
        <time>2024-09-12T18:52:39+00:00</time>
      </trkpt>
      <trkpt lat="45.38941" lon="2.30351">
        <ele>601</ele>
      </trkpt>
      <trkpt lat="45.38962" lon="2.3035">
        <ele>599</ele>
        <time>2024-09-12T18:52:42+00:00</time>
      </trkpt>
      <trkpt lat="45.3898" lon="2.30344">
        <ele>601.1</ele>
        <time>2024-09-12T18:52:45+00:00</time>
      </trkpt>
      <trkpt lat="45.38994" lon="2.30334">
        <ele>600</ele>
        <time>2024-09-12T18:52:48+00:00</time>
      </trkpt>
      <trkpt lat="45.3901" lon="2.30314">
        <ele>600.5</ele>
        <time>2024-09-12T18:52:51+00:00</time>
      </trkpt>
      <trkpt lat="45.39051" lon="2.30336">
        <ele>609</ele>
        <time>2024-09-12T18:52:54+00:00</time>
      </trkpt>
      <trkpt lat="45.39069" lon="2.30368">
        <ele>621</ele>
        <time>2024-09-12T18:52:57+00:00</time>
      </trkpt>
      <trkpt lat="45.39086" lon="2.30394">
        <ele>622</ele>
        <time>2024-09-12T18:53:00+00:00</time>
      </trkpt>
      <trkpt lat="45.39106" lon="2.304">
        <ele>614.8</ele>
        <time>2024-09-12T18:53:03+00:00</time>
      </trkpt>
    </trkseg>
  </trk>
  <trk>
    <name><![CDATA[Neuvicoise 2024_7]]></name>
    <extensions>
      <line xmlns="http://www.topografix.com/GPX/gpx_style/0/2">
        <color>000088</color>
        <width>4</width>
      </line>
    </extensions>
    <trkseg>
      <trkpt lat="45.39466" lon="2.28435">
        <ele>599</ele>
        <time>2024-09-13T04:57:44+00:00</time>
      </trkpt>
      <trkpt lat="45.39468" lon="2.28391">
        <ele>602</ele>
        <time>2024-09-13T04:57:47+00:00</time>
      </trkpt>
      <trkpt lat="45.39472" lon="2.28308">
        <ele>605</ele>
        <time>2024-09-13T04:57:50+00:00</time>
      </trkpt>
      <trkpt lat="45.39439" lon="2.28253">
        <ele>618</ele>
        <time>2024-09-13T04:57:53+00:00</time>
      </trkpt>
      <trkpt lat="45.39408" lon="2.28183">
        <ele>619</ele>
        <time>2024-09-13T04:57:56+00:00</time>
      </trkpt>
      <trkpt lat="45.39389" lon="2.2816">
        <ele>619</ele>
        <time>2024-09-13T04:57:59+00:00</time>
      </trkpt>
      <trkpt lat="45.39312" lon="2.28096">
        <ele>619</ele>
        <time>2024-09-13T04:58:02+00:00</time>
      </trkpt>
      <trkpt lat="45.39254" lon="2.28069">
        <ele>625.9</ele>
        <time>2024-09-13T04:58:05+00:00</time>
      </trkpt>
      <trkpt lat="45.39091" lon="2.28037">
        <ele>626.2</ele>
        <time>2024-09-13T04:58:11+00:00</time>
      </trkpt>
      <trkpt lat="45.38893" lon="2.28003">
        <ele>626.4</ele>
        <time>2024-09-13T04:58:14+00:00</time>
      </trkpt>
      <trkpt lat="45.3882" lon="2.27859">
        <ele>633.1</ele>
        <time>2024-09-13T04:58:17+00:00</time>
      </trkpt>
      <trkpt lat="45.38858" lon="2.27694">
        <ele>631.1</ele>
      </trkpt>
      <trkpt lat="45.38918" lon="2.27614">
        <ele>632.6</ele>
        <time>2024-09-13T04:58:20+00:00</time>
      </trkpt>
      <trkpt lat="45.39058" lon="2.27475">
        <ele>636.6</ele>
        <time>2024-09-13T04:58:23+00:00</time>
      </trkpt>
      <trkpt lat="45.39104" lon="2.27428">
        <ele>641.2</ele>
        <time>2024-09-13T04:58:26+00:00</time>
      </trkpt>
      <trkpt lat="45.39107" lon="2.27381">
        <ele>640.3</ele>
        <time>2024-09-13T04:58:29+00:00</time>
      </trkpt>
      <trkpt lat="45.39267" lon="2.27432">
        <ele>625</ele>
        <time>2024-09-13T04:58:41+00:00</time>
      </trkpt>
      <trkpt lat="45.39384" lon="2.27443">
        <ele>628.4</ele>
        <time>2024-09-13T04:58:44+00:00</time>
      </trkpt>
      <trkpt lat="45.39483" lon="2.27438">
        <ele>618.9</ele>
        <time>2024-09-13T04:58:47+00:00</time>
      </trkpt>
      <trkpt lat="45.39453" lon="2.27366">
        <ele>620.3</ele>
        <time>2024-09-13T04:58:50+00:00</time>
      </trkpt>
      <trkpt lat="45.39403" lon="2.2726">
        <ele>622</ele>
        <time>2024-09-13T04:59:02+00:00</time>
      </trkpt>
      <trkpt lat="45.39418" lon="2.27167">
        <ele>622</ele>
        <time>2024-09-13T04:59:05+00:00</time>
      </trkpt>
      <trkpt lat="45.39438" lon="2.27135">
        <ele>622</ele>
        <time>2024-09-13T04:59:08+00:00</time>
      </trkpt>
      <trkpt lat="45.39455" lon="2.27123">
        <ele>628</ele>
        <time>2024-09-13T04:59:11+00:00</time>
      </trkpt>
      <trkpt lat="45.39476" lon="2.27122">
        <ele>630</ele>
        <time>2024-09-13T04:59:14+00:00</time>
      </trkpt>
      <trkpt lat="45.39493" lon="2.27107">
        <ele>635</ele>
        <time>2024-09-13T04:59:17+00:00</time>
      </trkpt>
      <trkpt lat="45.3952" lon="2.27068">
        <ele>644</ele>
        <time>2024-09-13T04:59:20+00:00</time>
      </trkpt>
      <trkpt lat="45.39519" lon="2.27024">
        <ele>645</ele>
        <time>2024-09-13T04:59:23+00:00</time>
      </trkpt>
      <trkpt lat="45.39521" lon="2.26997">
        <ele>643</ele>
        <time>2024-09-13T04:59:26+00:00</time>
      </trkpt>
      <trkpt lat="45.39531" lon="2.26969">
        <ele>642</ele>
        <time>2024-09-13T04:59:29+00:00</time>
      </trkpt>
      <trkpt lat="45.39555" lon="2.26941">
        <ele>641</ele>
        <time>2024-09-13T04:59:32+00:00</time>
      </trkpt>
      <trkpt lat="45.39599" lon="2.26888">
        <ele>640</ele>
        <time>2024-09-13T04:59:35+00:00</time>
      </trkpt>
      <trkpt lat="45.39615" lon="2.26858">
        <ele>639</ele>
        <time>2024-09-13T04:59:38+00:00</time>
      </trkpt>
      <trkpt lat="45.39635" lon="2.26821">
        <ele>639</ele>
        <time>2024-09-13T04:59:41+00:00</time>
      </trkpt>
      <trkpt lat="45.39646" lon="2.26785">
        <ele>642</ele>
        <time>2024-09-13T04:59:44+00:00</time>
      </trkpt>
      <trkpt lat="45.39662" lon="2.26728">
        <ele>643</ele>
        <time>2024-09-13T04:59:47+00:00</time>
      </trkpt>
      <trkpt lat="45.39624" lon="2.26708">
        <ele>647</ele>
        <time>2024-09-13T04:59:50+00:00</time>
      </trkpt>
      <trkpt lat="45.39638" lon="2.26673">
        <ele>648</ele>
        <time>2024-09-13T04:59:53+00:00</time>
      </trkpt>
      <trkpt lat="45.39658" lon="2.26622">
        <ele>649</ele>
        <time>2024-09-13T04:59:56+00:00</time>
      </trkpt>
      <trkpt lat="45.39674" lon="2.26585">
        <ele>655</ele>
        <time>2024-09-13T04:59:59+00:00</time>
      </trkpt>
      <trkpt lat="45.39702" lon="2.26519">
        <ele>662</ele>
        <time>2024-09-13T05:00:02+00:00</time>
      </trkpt>
      <trkpt lat="45.39712" lon="2.26486">
        <ele>669</ele>
        <time>2024-09-13T05:00:05+00:00</time>
      </trkpt>
      <trkpt lat="45.39719" lon="2.26454">
        <ele>669</ele>
        <time>2024-09-13T05:00:08+00:00</time>
      </trkpt>
      <trkpt lat="45.39716" lon="2.26435">
        <ele>666</ele>
        <time>2024-09-13T05:00:11+00:00</time>
      </trkpt>
      <trkpt lat="45.39677" lon="2.26415">
        <ele>663</ele>
        <time>2024-09-13T05:00:14+00:00</time>
      </trkpt>
      <trkpt lat="45.39634" lon="2.26397">
        <ele>663</ele>
        <time>2024-09-13T05:00:17+00:00</time>
      </trkpt>
      <trkpt lat="45.3961" lon="2.26393">
        <ele>663</ele>
        <time>2024-09-13T05:00:20+00:00</time>
      </trkpt>
      <trkpt lat="45.39582" lon="2.26379">
        <ele>665</ele>
        <time>2024-09-13T05:00:23+00:00</time>
      </trkpt>
      <trkpt lat="45.39537" lon="2.26358">
        <ele>670</ele>
        <time>2024-09-13T05:00:26+00:00</time>
      </trkpt>
      <trkpt lat="45.39519" lon="2.26343">
        <ele>671</ele>
        <time>2024-09-13T05:00:29+00:00</time>
      </trkpt>
      <trkpt lat="45.39483" lon="2.26303">
        <ele>673</ele>
        <time>2024-09-13T05:00:32+00:00</time>
      </trkpt>
      <trkpt lat="45.39461" lon="2.26266">
        <ele>678</ele>
        <time>2024-09-13T05:00:35+00:00</time>
      </trkpt>
      <trkpt lat="45.39442" lon="2.26236">
        <ele>681</ele>
        <time>2024-09-13T05:00:38+00:00</time>
      </trkpt>
      <trkpt lat="45.39431" lon="2.26212">
        <ele>682</ele>
        <time>2024-09-13T05:00:41+00:00</time>
      </trkpt>
      <trkpt lat="45.39402" lon="2.26163">
        <ele>684</ele>
        <time>2024-09-13T05:00:44+00:00</time>
      </trkpt>
      <trkpt lat="45.39384" lon="2.26126">
        <ele>684</ele>
        <time>2024-09-13T05:00:47+00:00</time>
      </trkpt>
      <trkpt lat="45.39352" lon="2.26056">
        <ele>686</ele>
        <time>2024-09-13T05:00:50+00:00</time>
      </trkpt>
      <trkpt lat="45.39331" lon="2.26018">
        <ele>686</ele>
        <time>2024-09-13T05:00:53+00:00</time>
      </trkpt>
      <trkpt lat="45.39317" lon="2.25997">
        <ele>684</ele>
        <time>2024-09-13T05:00:56+00:00</time>
      </trkpt>
      <trkpt lat="45.39293" lon="2.2597">
        <ele>683</ele>
        <time>2024-09-13T05:00:59+00:00</time>
      </trkpt>
      <trkpt lat="45.39246" lon="2.25917">
        <ele>676</ele>
        <time>2024-09-13T05:01:02+00:00</time>
      </trkpt>
      <trkpt lat="45.39226" lon="2.25885">
        <ele>675</ele>
        <time>2024-09-13T05:01:05+00:00</time>
      </trkpt>
      <trkpt lat="45.39207" lon="2.25847">
        <ele>672</ele>
        <time>2024-09-13T05:01:08+00:00</time>
      </trkpt>
      <trkpt lat="45.39193" lon="2.25807">
        <ele>671</ele>
        <time>2024-09-13T05:01:11+00:00</time>
      </trkpt>
      <trkpt lat="45.39178" lon="2.25777">
        <ele>671</ele>
        <time>2024-09-13T05:01:14+00:00</time>
      </trkpt>
      <trkpt lat="45.39162" lon="2.25742">
        <ele>668</ele>
        <time>2024-09-13T05:01:17+00:00</time>
      </trkpt>
      <trkpt lat="45.39155" lon="2.25701">
        <ele>668</ele>
        <time>2024-09-13T05:01:20+00:00</time>
      </trkpt>
      <trkpt lat="45.39142" lon="2.25671">
        <ele>668</ele>
        <time>2024-09-13T05:01:23+00:00</time>
      </trkpt>
      <trkpt lat="45.39125" lon="2.2564">
        <ele>662</ele>
        <time>2024-09-13T05:01:26+00:00</time>
      </trkpt>
      <trkpt lat="45.39097" lon="2.25623">
        <ele>654</ele>
        <time>2024-09-13T05:01:29+00:00</time>
      </trkpt>
      <trkpt lat="45.39082" lon="2.25603">
        <ele>654</ele>
        <time>2024-09-13T05:01:32+00:00</time>
      </trkpt>
      <trkpt lat="45.39098" lon="2.25555">
        <ele>650</ele>
        <time>2024-09-13T05:01:35+00:00</time>
      </trkpt>
      <trkpt lat="45.39114" lon="2.25531">
        <ele>647</ele>
        <time>2024-09-13T05:01:38+00:00</time>
      </trkpt>
      <trkpt lat="45.39148" lon="2.25512">
        <ele>647</ele>
        <time>2024-09-13T05:01:41+00:00</time>
      </trkpt>
      <trkpt lat="45.39168" lon="2.25499">
        <ele>646</ele>
        <time>2024-09-13T05:01:44+00:00</time>
      </trkpt>
      <trkpt lat="45.39182" lon="2.2548">
        <ele>647</ele>
        <time>2024-09-13T05:01:47+00:00</time>
      </trkpt>
      <trkpt lat="45.39222" lon="2.25398">
        <ele>648</ele>
        <time>2024-09-13T05:01:50+00:00</time>
      </trkpt>
      <trkpt lat="45.39205" lon="2.25381">
        <ele>648</ele>
        <time>2024-09-13T05:01:53+00:00</time>
      </trkpt>
      <trkpt lat="45.3918" lon="2.25352">
        <ele>647</ele>
        <time>2024-09-13T05:01:56+00:00</time>
      </trkpt>
      <trkpt lat="45.39147" lon="2.2531">
        <ele>644</ele>
        <time>2024-09-13T05:01:59+00:00</time>
      </trkpt>
      <trkpt lat="45.39125" lon="2.25299">
        <ele>642</ele>
        <time>2024-09-13T05:02:02+00:00</time>
      </trkpt>
      <trkpt lat="45.39102" lon="2.25288">
        <ele>642</ele>
        <time>2024-09-13T05:02:05+00:00</time>
      </trkpt>
      <trkpt lat="45.39059" lon="2.25275">
        <ele>646</ele>
        <time>2024-09-13T05:02:08+00:00</time>
      </trkpt>
      <trkpt lat="45.39039" lon="2.25263">
        <ele>646</ele>
        <time>2024-09-13T05:02:11+00:00</time>
      </trkpt>
      <trkpt lat="45.39022" lon="2.25229">
        <ele>646</ele>
        <time>2024-09-13T05:02:14+00:00</time>
      </trkpt>
      <trkpt lat="45.39005" lon="2.25212">
        <ele>646</ele>
        <time>2024-09-13T05:02:17+00:00</time>
      </trkpt>
      <trkpt lat="45.38984" lon="2.25199">
        <ele>645</ele>
        <time>2024-09-13T05:02:20+00:00</time>
      </trkpt>
      <trkpt lat="45.38958" lon="2.25196">
        <ele>645</ele>
        <time>2024-09-13T05:02:23+00:00</time>
      </trkpt>
      <trkpt lat="45.38932" lon="2.25214">
        <ele>642</ele>
        <time>2024-09-13T05:02:26+00:00</time>
      </trkpt>
      <trkpt lat="45.38907" lon="2.2524">
        <ele>640</ele>
        <time>2024-09-13T05:02:29+00:00</time>
      </trkpt>
      <trkpt lat="45.38887" lon="2.25265">
        <ele>640</ele>
        <time>2024-09-13T05:02:32+00:00</time>
      </trkpt>
      <trkpt lat="45.38863" lon="2.25288">
        <ele>638</ele>
        <time>2024-09-13T05:02:35+00:00</time>
      </trkpt>
      <trkpt lat="45.38827" lon="2.25322">
        <ele>637</ele>
        <time>2024-09-13T05:02:38+00:00</time>
      </trkpt>
      <trkpt lat="45.38829" lon="2.25284">
        <ele>637</ele>
        <time>2024-09-13T05:02:41+00:00</time>
      </trkpt>
      <trkpt lat="45.38831" lon="2.25236">
        <ele>641</ele>
        <time>2024-09-13T05:02:44+00:00</time>
      </trkpt>
      <trkpt lat="45.3883" lon="2.25195">
        <ele>641</ele>
        <time>2024-09-13T05:02:47+00:00</time>
      </trkpt>
      <trkpt lat="45.38828" lon="2.25131">
        <ele>641</ele>
        <time>2024-09-13T05:02:50+00:00</time>
      </trkpt>
      <trkpt lat="45.38826" lon="2.25101">
        <ele>641</ele>
        <time>2024-09-13T05:02:53+00:00</time>
      </trkpt>
      <trkpt lat="45.3882" lon="2.25069">
        <ele>639</ele>
        <time>2024-09-13T05:02:56+00:00</time>
      </trkpt>
      <trkpt lat="45.38811" lon="2.2502">
        <ele>638</ele>
        <time>2024-09-13T05:02:59+00:00</time>
      </trkpt>
      <trkpt lat="45.388" lon="2.24958">
        <ele>637</ele>
        <time>2024-09-13T05:03:02+00:00</time>
      </trkpt>
      <trkpt lat="45.38793" lon="2.24926">
        <ele>637</ele>
        <time>2024-09-13T05:03:05+00:00</time>
      </trkpt>
      <trkpt lat="45.38753" lon="2.24839">
        <ele>634</ele>
        <time>2024-09-13T05:03:08+00:00</time>
      </trkpt>
      <trkpt lat="45.38687" lon="2.24641">
        <ele>634</ele>
        <time>2024-09-13T05:03:11+00:00</time>
      </trkpt>
      <trkpt lat="45.38682" lon="2.24586">
        <ele>632</ele>
        <time>2024-09-13T05:03:14+00:00</time>
      </trkpt>
      <trkpt lat="45.38666" lon="2.24497">
        <ele>632</ele>
        <time>2024-09-13T05:03:17+00:00</time>
      </trkpt>
      <trkpt lat="45.38644" lon="2.2452">
        <ele>628</ele>
        <time>2024-09-13T05:03:20+00:00</time>
      </trkpt>
      <trkpt lat="45.38627" lon="2.24548">
        <ele>626</ele>
        <time>2024-09-13T05:03:23+00:00</time>
      </trkpt>
      <trkpt lat="45.38609" lon="2.24568">
        <ele>625</ele>
        <time>2024-09-13T05:03:26+00:00</time>
      </trkpt>
      <trkpt lat="45.38592" lon="2.246">
        <ele>625</ele>
        <time>2024-09-13T05:03:29+00:00</time>
      </trkpt>
      <trkpt lat="45.38584" lon="2.24634">
        <ele>625</ele>
        <time>2024-09-13T05:03:32+00:00</time>
      </trkpt>
      <trkpt lat="45.38546" lon="2.24649">
        <ele>623</ele>
        <time>2024-09-13T05:03:35+00:00</time>
      </trkpt>
      <trkpt lat="45.38514" lon="2.24641">
        <ele>625</ele>
        <time>2024-09-13T05:03:38+00:00</time>
      </trkpt>
      <trkpt lat="45.38479" lon="2.24619">
        <ele>627</ele>
        <time>2024-09-13T05:03:41+00:00</time>
      </trkpt>
      <trkpt lat="45.38458" lon="2.24616">
        <ele>626</ele>
        <time>2024-09-13T05:03:44+00:00</time>
      </trkpt>
      <trkpt lat="45.38435" lon="2.24605">
        <ele>626</ele>
        <time>2024-09-13T05:03:47+00:00</time>
      </trkpt>
      <trkpt lat="45.38407" lon="2.24621">
        <ele>626</ele>
        <time>2024-09-13T05:03:50+00:00</time>
      </trkpt>
      <trkpt lat="45.38374" lon="2.24602">
        <ele>626</ele>
        <time>2024-09-13T05:03:53+00:00</time>
      </trkpt>
      <trkpt lat="45.38354" lon="2.24654">
        <ele>626</ele>
        <time>2024-09-13T05:03:56+00:00</time>
      </trkpt>
      <trkpt lat="45.3834" lon="2.24689">
        <ele>626</ele>
        <time>2024-09-13T05:03:59+00:00</time>
      </trkpt>
      <trkpt lat="45.38293" lon="2.24713">
        <ele>621</ele>
        <time>2024-09-13T05:04:02+00:00</time>
      </trkpt>
      <trkpt lat="45.38264" lon="2.24715">
        <ele>621</ele>
        <time>2024-09-13T05:04:05+00:00</time>
      </trkpt>
      <trkpt lat="45.38241" lon="2.24723">
        <ele>621</ele>
        <time>2024-09-13T05:04:08+00:00</time>
      </trkpt>
      <trkpt lat="45.38227" lon="2.24749">
        <ele>626</ele>
        <time>2024-09-13T05:04:11+00:00</time>
      </trkpt>
      <trkpt lat="45.38202" lon="2.24777">
        <ele>635</ele>
        <time>2024-09-13T05:04:14+00:00</time>
      </trkpt>
      <trkpt lat="45.38178" lon="2.24778">
        <ele>637</ele>
        <time>2024-09-13T05:04:17+00:00</time>
      </trkpt>
      <trkpt lat="45.38148" lon="2.24795">
        <ele>641</ele>
        <time>2024-09-13T05:04:20+00:00</time>
      </trkpt>
      <trkpt lat="45.38134" lon="2.24828">
        <ele>647</ele>
        <time>2024-09-13T05:04:23+00:00</time>
      </trkpt>
      <trkpt lat="45.38127" lon="2.2489">
        <ele>650</ele>
        <time>2024-09-13T05:04:26+00:00</time>
      </trkpt>
      <trkpt lat="45.38118" lon="2.24943">
        <ele>652</ele>
        <time>2024-09-13T05:04:29+00:00</time>
      </trkpt>
      <trkpt lat="45.38107" lon="2.24987">
        <ele>652</ele>
        <time>2024-09-13T05:04:32+00:00</time>
      </trkpt>
      <trkpt lat="45.38102" lon="2.25024">
        <ele>654</ele>
        <time>2024-09-13T05:04:35+00:00</time>
      </trkpt>
      <trkpt lat="45.38096" lon="2.2505">
        <ele>661</ele>
        <time>2024-09-13T05:04:38+00:00</time>
      </trkpt>
      <trkpt lat="45.38095" lon="2.25083">
        <ele>659</ele>
        <time>2024-09-13T05:04:41+00:00</time>
      </trkpt>
      <trkpt lat="45.38097" lon="2.25138">
        <ele>662</ele>
        <time>2024-09-13T05:04:44+00:00</time>
      </trkpt>
      <trkpt lat="45.3806" lon="2.25118">
        <ele>666</ele>
        <time>2024-09-13T05:04:47+00:00</time>
      </trkpt>
      <trkpt lat="45.38023" lon="2.25099">
        <ele>675</ele>
        <time>2024-09-13T05:04:50+00:00</time>
      </trkpt>
      <trkpt lat="45.37986" lon="2.2508">
        <ele>674</ele>
        <time>2024-09-13T05:04:53+00:00</time>
      </trkpt>
      <trkpt lat="45.37949" lon="2.2506">
        <ele>673</ele>
        <time>2024-09-13T05:04:56+00:00</time>
      </trkpt>
      <trkpt lat="45.37882" lon="2.25025">
        <ele>674</ele>
        <time>2024-09-13T05:04:59+00:00</time>
      </trkpt>
      <trkpt lat="45.3788" lon="2.25054">
        <ele>675</ele>
        <time>2024-09-13T05:05:02+00:00</time>
      </trkpt>
      <trkpt lat="45.37897" lon="2.25086">
        <ele>674</ele>
        <time>2024-09-13T05:05:05+00:00</time>
      </trkpt>
      <trkpt lat="45.37919" lon="2.2513">
        <ele>678</ele>
        <time>2024-09-13T05:05:08+00:00</time>
      </trkpt>
      <trkpt lat="45.37864" lon="2.2513">
        <ele>676</ele>
        <time>2024-09-13T05:05:11+00:00</time>
      </trkpt>
      <trkpt lat="45.37836" lon="2.25118">
        <ele>676</ele>
        <time>2024-09-13T05:05:14+00:00</time>
      </trkpt>
      <trkpt lat="45.37793" lon="2.25099">
        <ele>676</ele>
        <time>2024-09-13T05:05:17+00:00</time>
      </trkpt>
      <trkpt lat="45.37761" lon="2.25082">
        <ele>663</ele>
        <time>2024-09-13T05:05:20+00:00</time>
      </trkpt>
      <trkpt lat="45.37727" lon="2.25053">
        <ele>658</ele>
        <time>2024-09-13T05:05:23+00:00</time>
      </trkpt>
      <trkpt lat="45.37707" lon="2.25028">
        <ele>661</ele>
        <time>2024-09-13T05:05:26+00:00</time>
      </trkpt>
      <trkpt lat="45.37685" lon="2.24999">
        <ele>665</ele>
        <time>2024-09-13T05:05:29+00:00</time>
      </trkpt>
      <trkpt lat="45.37666" lon="2.24983">
        <ele>669</ele>
        <time>2024-09-13T05:05:32+00:00</time>
      </trkpt>
      <trkpt lat="45.37639" lon="2.24974">
        <ele>669</ele>
        <time>2024-09-13T05:05:35+00:00</time>
      </trkpt>
      <trkpt lat="45.37614" lon="2.24968">
        <ele>658</ele>
        <time>2024-09-13T05:05:38+00:00</time>
      </trkpt>
      <trkpt lat="45.37584" lon="2.24961">
        <ele>651</ele>
        <time>2024-09-13T05:05:41+00:00</time>
      </trkpt>
      <trkpt lat="45.37555" lon="2.24948">
        <ele>647</ele>
        <time>2024-09-13T05:05:44+00:00</time>
      </trkpt>
      <trkpt lat="45.37542" lon="2.24979">
        <ele>644</ele>
        <time>2024-09-13T05:05:47+00:00</time>
      </trkpt>
      <trkpt lat="45.37534" lon="2.25009">
        <ele>644</ele>
        <time>2024-09-13T05:05:50+00:00</time>
      </trkpt>
      <trkpt lat="45.37533" lon="2.25044">
        <ele>645</ele>
        <time>2024-09-13T05:05:53+00:00</time>
      </trkpt>
      <trkpt lat="45.37519" lon="2.25077">
        <ele>651</ele>
        <time>2024-09-13T05:05:56+00:00</time>
      </trkpt>
      <trkpt lat="45.37501" lon="2.25122">
        <ele>651</ele>
        <time>2024-09-13T05:05:59+00:00</time>
      </trkpt>
      <trkpt lat="45.37497" lon="2.25158">
        <ele>651</ele>
        <time>2024-09-13T05:06:02+00:00</time>
      </trkpt>
      <trkpt lat="45.37492" lon="2.25198">
        <ele>649</ele>
        <time>2024-09-13T05:06:05+00:00</time>
      </trkpt>
      <trkpt lat="45.37493" lon="2.25241">
        <ele>647</ele>
        <time>2024-09-13T05:06:08+00:00</time>
      </trkpt>
      <trkpt lat="45.37494" lon="2.25313">
        <ele>643</ele>
        <time>2024-09-13T05:06:11+00:00</time>
      </trkpt>
      <trkpt lat="45.37485" lon="2.2528">
        <ele>643</ele>
        <time>2024-09-13T05:06:14+00:00</time>
      </trkpt>
      <trkpt lat="45.3747" lon="2.2525">
        <ele>643</ele>
        <time>2024-09-13T05:06:17+00:00</time>
      </trkpt>
      <trkpt lat="45.37445" lon="2.25219">
        <ele>643</ele>
        <time>2024-09-13T05:06:20+00:00</time>
      </trkpt>
      <trkpt lat="45.37401" lon="2.252">
        <ele>642</ele>
        <time>2024-09-13T05:06:23+00:00</time>
      </trkpt>
      <trkpt lat="45.37373" lon="2.25198">
        <ele>641</ele>
        <time>2024-09-13T05:06:26+00:00</time>
      </trkpt>
      <trkpt lat="45.37334" lon="2.25196">
        <ele>636</ele>
        <time>2024-09-13T05:06:29+00:00</time>
      </trkpt>
      <trkpt lat="45.37305" lon="2.25206">
        <ele>635</ele>
        <time>2024-09-13T05:06:32+00:00</time>
      </trkpt>
      <trkpt lat="45.37264" lon="2.25208">
        <ele>635</ele>
        <time>2024-09-13T05:06:35+00:00</time>
      </trkpt>
      <trkpt lat="45.37229" lon="2.25197">
        <ele>638</ele>
        <time>2024-09-13T05:06:38+00:00</time>
      </trkpt>
      <trkpt lat="45.37203" lon="2.25167">
        <ele>641</ele>
        <time>2024-09-13T05:06:41+00:00</time>
      </trkpt>
      <trkpt lat="45.3717" lon="2.25125">
        <ele>641</ele>
        <time>2024-09-13T05:06:44+00:00</time>
      </trkpt>
      <trkpt lat="45.37145" lon="2.25105">
        <ele>647</ele>
        <time>2024-09-13T05:06:47+00:00</time>
      </trkpt>
      <trkpt lat="45.37121" lon="2.25093">
        <ele>647</ele>
        <time>2024-09-13T05:06:50+00:00</time>
      </trkpt>
      <trkpt lat="45.37095" lon="2.25079">
        <ele>647</ele>
        <time>2024-09-13T05:06:53+00:00</time>
      </trkpt>
      <trkpt lat="45.37062" lon="2.25077">
        <ele>647</ele>
        <time>2024-09-13T05:06:56+00:00</time>
      </trkpt>
      <trkpt lat="45.37028" lon="2.25075">
        <ele>647</ele>
        <time>2024-09-13T05:06:59+00:00</time>
      </trkpt>
      <trkpt lat="45.36983" lon="2.25072">
        <ele>651</ele>
        <time>2024-09-13T05:07:02+00:00</time>
      </trkpt>
      <trkpt lat="45.36959" lon="2.25076">
        <ele>651</ele>
        <time>2024-09-13T05:07:05+00:00</time>
      </trkpt>
      <trkpt lat="45.36932" lon="2.25081">
        <ele>650</ele>
        <time>2024-09-13T05:07:08+00:00</time>
      </trkpt>
      <trkpt lat="45.36892" lon="2.25106">
        <ele>650</ele>
        <time>2024-09-13T05:07:11+00:00</time>
      </trkpt>
      <trkpt lat="45.36875" lon="2.25127">
        <ele>651</ele>
        <time>2024-09-13T05:07:14+00:00</time>
      </trkpt>
      <trkpt lat="45.36853" lon="2.2516">
        <ele>653</ele>
        <time>2024-09-13T05:07:17+00:00</time>
      </trkpt>
      <trkpt lat="45.3682" lon="2.25205">
        <ele>653</ele>
        <time>2024-09-13T05:07:20+00:00</time>
      </trkpt>
      <trkpt lat="45.36807" lon="2.25252">
        <ele>654</ele>
        <time>2024-09-13T05:07:23+00:00</time>
      </trkpt>
      <trkpt lat="45.36794" lon="2.25299">
        <ele>650</ele>
        <time>2024-09-13T05:07:26+00:00</time>
      </trkpt>
      <trkpt lat="45.36769" lon="2.25388">
        <ele>649</ele>
        <time>2024-09-13T05:07:29+00:00</time>
      </trkpt>
      <trkpt lat="45.36756" lon="2.25439">
        <ele>652</ele>
        <time>2024-09-13T05:07:32+00:00</time>
      </trkpt>
      <trkpt lat="45.36731" lon="2.25494">
        <ele>653</ele>
        <time>2024-09-13T05:07:35+00:00</time>
      </trkpt>
      <trkpt lat="45.36717" lon="2.2553">
        <ele>650</ele>
        <time>2024-09-13T05:07:38+00:00</time>
      </trkpt>
      <trkpt lat="45.36697" lon="2.25585">
        <ele>647</ele>
        <time>2024-09-13T05:07:41+00:00</time>
      </trkpt>
      <trkpt lat="45.36684" lon="2.25629">
        <ele>645</ele>
        <time>2024-09-13T05:07:44+00:00</time>
      </trkpt>
      <trkpt lat="45.36674" lon="2.25681">
        <ele>639</ele>
        <time>2024-09-13T05:07:47+00:00</time>
      </trkpt>
      <trkpt lat="45.36659" lon="2.25709">
        <ele>638</ele>
        <time>2024-09-13T05:07:50+00:00</time>
      </trkpt>
      <trkpt lat="45.36641" lon="2.2574">
        <ele>638</ele>
        <time>2024-09-13T05:07:53+00:00</time>
      </trkpt>
      <trkpt lat="45.36618" lon="2.25791">
        <ele>634</ele>
        <time>2024-09-13T05:07:56+00:00</time>
      </trkpt>
      <trkpt lat="45.36595" lon="2.25827">
        <ele>628</ele>
        <time>2024-09-13T05:07:59+00:00</time>
      </trkpt>
      <trkpt lat="45.36575" lon="2.25848">
        <ele>628</ele>
        <time>2024-09-13T05:08:02+00:00</time>
      </trkpt>
      <trkpt lat="45.36554" lon="2.2587">
        <ele>629</ele>
        <time>2024-09-13T05:08:05+00:00</time>
      </trkpt>
      <trkpt lat="45.36525" lon="2.25887">
        <ele>630</ele>
        <time>2024-09-13T05:08:08+00:00</time>
      </trkpt>
      <trkpt lat="45.36495" lon="2.25904">
        <ele>631</ele>
        <time>2024-09-13T05:08:11+00:00</time>
      </trkpt>
      <trkpt lat="45.36464" lon="2.25921">
        <ele>634</ele>
        <time>2024-09-13T05:08:14+00:00</time>
      </trkpt>
      <trkpt lat="45.36443" lon="2.25937">
        <ele>637</ele>
        <time>2024-09-13T05:08:17+00:00</time>
      </trkpt>
      <trkpt lat="45.3642" lon="2.25954">
        <ele>639</ele>
        <time>2024-09-13T05:08:20+00:00</time>
      </trkpt>
      <trkpt lat="45.36391" lon="2.25978">
        <ele>640</ele>
        <time>2024-09-13T05:08:23+00:00</time>
      </trkpt>
      <trkpt lat="45.36366" lon="2.26019">
        <ele>641</ele>
        <time>2024-09-13T05:08:26+00:00</time>
      </trkpt>
      <trkpt lat="45.36356" lon="2.26052">
        <ele>647</ele>
        <time>2024-09-13T05:08:29+00:00</time>
      </trkpt>
      <trkpt lat="45.36344" lon="2.2609">
        <ele>647</ele>
        <time>2024-09-13T05:08:32+00:00</time>
      </trkpt>
      <trkpt lat="45.36348" lon="2.26138">
        <ele>655</ele>
        <time>2024-09-13T05:08:35+00:00</time>
      </trkpt>
      <trkpt lat="45.36365" lon="2.26165">
        <ele>655</ele>
        <time>2024-09-13T05:08:38+00:00</time>
      </trkpt>
      <trkpt lat="45.36383" lon="2.26194">
        <ele>659</ele>
        <time>2024-09-13T05:08:41+00:00</time>
      </trkpt>
      <trkpt lat="45.36412" lon="2.26213">
        <ele>661</ele>
        <time>2024-09-13T05:08:44+00:00</time>
      </trkpt>
      <trkpt lat="45.36441" lon="2.26233">
        <ele>660</ele>
        <time>2024-09-13T05:08:47+00:00</time>
      </trkpt>
      <trkpt lat="45.36473" lon="2.26254">
        <ele>660</ele>
        <time>2024-09-13T05:08:50+00:00</time>
      </trkpt>
      <trkpt lat="45.36496" lon="2.26266">
        <ele>661</ele>
        <time>2024-09-13T05:08:53+00:00</time>
      </trkpt>
      <trkpt lat="45.3652" lon="2.26278">
        <ele>660</ele>
        <time>2024-09-13T05:08:56+00:00</time>
      </trkpt>
      <trkpt lat="45.36558" lon="2.26306">
        <ele>660</ele>
        <time>2024-09-13T05:08:59+00:00</time>
      </trkpt>
      <trkpt lat="45.36587" lon="2.26328">
        <ele>659</ele>
        <time>2024-09-13T05:09:02+00:00</time>
      </trkpt>
      <trkpt lat="45.36616" lon="2.26349">
        <ele>659</ele>
        <time>2024-09-13T05:09:05+00:00</time>
      </trkpt>
      <trkpt lat="45.36654" lon="2.26378">
        <ele>657</ele>
        <time>2024-09-13T05:09:08+00:00</time>
      </trkpt>
      <trkpt lat="45.36679" lon="2.26396">
        <ele>648</ele>
        <time>2024-09-13T05:09:11+00:00</time>
      </trkpt>
      <trkpt lat="45.36719" lon="2.26424">
        <ele>652</ele>
        <time>2024-09-13T05:09:14+00:00</time>
      </trkpt>
      <trkpt lat="45.3676" lon="2.26447">
        <ele>656</ele>
        <time>2024-09-13T05:09:17+00:00</time>
      </trkpt>
      <trkpt lat="45.36787" lon="2.2647">
        <ele>660</ele>
        <time>2024-09-13T05:09:20+00:00</time>
      </trkpt>
      <trkpt lat="45.36815" lon="2.26493">
        <ele>659</ele>
        <time>2024-09-13T05:09:23+00:00</time>
      </trkpt>
      <trkpt lat="45.36844" lon="2.26517">
        <ele>659</ele>
        <time>2024-09-13T05:09:26+00:00</time>
      </trkpt>
      <trkpt lat="45.36867" lon="2.26527">
        <ele>650</ele>
        <time>2024-09-13T05:09:29+00:00</time>
      </trkpt>
      <trkpt lat="45.3689" lon="2.26537">
        <ele>643</ele>
        <time>2024-09-13T05:09:32+00:00</time>
      </trkpt>
      <trkpt lat="45.36924" lon="2.26564">
        <ele>643</ele>
        <time>2024-09-13T05:09:35+00:00</time>
      </trkpt>
      <trkpt lat="45.36946" lon="2.26578">
        <ele>643</ele>
        <time>2024-09-13T05:09:38+00:00</time>
      </trkpt>
      <trkpt lat="45.36971" lon="2.26592">
        <ele>643</ele>
        <time>2024-09-13T05:09:41+00:00</time>
      </trkpt>
      <trkpt lat="45.36999" lon="2.26578">
        <ele>642</ele>
        <time>2024-09-13T05:09:44+00:00</time>
      </trkpt>
      <trkpt lat="45.37007" lon="2.26534">
        <ele>642</ele>
        <time>2024-09-13T05:09:47+00:00</time>
      </trkpt>
      <trkpt lat="45.37015" lon="2.2649">
        <ele>637</ele>
        <time>2024-09-13T05:09:50+00:00</time>
      </trkpt>
      <trkpt lat="45.37024" lon="2.26443">
        <ele>633</ele>
        <time>2024-09-13T05:09:53+00:00</time>
      </trkpt>
      <trkpt lat="45.37043" lon="2.26423">
        <ele>629</ele>
        <time>2024-09-13T05:09:56+00:00</time>
      </trkpt>
      <trkpt lat="45.37066" lon="2.26419">
        <ele>630</ele>
        <time>2024-09-13T05:09:59+00:00</time>
      </trkpt>
      <trkpt lat="45.3709" lon="2.26416">
        <ele>631</ele>
        <time>2024-09-13T05:10:02+00:00</time>
      </trkpt>
      <trkpt lat="45.37135" lon="2.26418">
        <ele>637</ele>
        <time>2024-09-13T05:10:05+00:00</time>
      </trkpt>
      <trkpt lat="45.37157" lon="2.26424">
        <ele>637</ele>
        <time>2024-09-13T05:10:08+00:00</time>
      </trkpt>
      <trkpt lat="45.37183" lon="2.26448">
        <ele>642</ele>
        <time>2024-09-13T05:10:11+00:00</time>
      </trkpt>
      <trkpt lat="45.37206" lon="2.2649">
        <ele>641</ele>
        <time>2024-09-13T05:10:14+00:00</time>
      </trkpt>
      <trkpt lat="45.37229" lon="2.26533">
        <ele>640</ele>
        <time>2024-09-13T05:10:17+00:00</time>
      </trkpt>
      <trkpt lat="45.37253" lon="2.26575">
        <ele>635</ele>
        <time>2024-09-13T05:10:20+00:00</time>
      </trkpt>
      <trkpt lat="45.37299" lon="2.26658">
        <ele>628</ele>
        <time>2024-09-13T05:10:23+00:00</time>
      </trkpt>
      <trkpt lat="45.373" lon="2.26708">
        <ele>618</ele>
        <time>2024-09-13T05:10:26+00:00</time>
      </trkpt>
      <trkpt lat="45.37286" lon="2.26748">
        <ele>613</ele>
        <time>2024-09-13T05:10:29+00:00</time>
      </trkpt>
      <trkpt lat="45.37257" lon="2.26827">
        <ele>612</ele>
        <time>2024-09-13T05:10:32+00:00</time>
      </trkpt>
      <trkpt lat="45.37257" lon="2.2688">
        <ele>611</ele>
        <time>2024-09-13T05:10:35+00:00</time>
      </trkpt>
      <trkpt lat="45.37282" lon="2.2691">
        <ele>608</ele>
        <time>2024-09-13T05:10:38+00:00</time>
      </trkpt>
      <trkpt lat="45.37306" lon="2.2694">
        <ele>605</ele>
        <time>2024-09-13T05:10:41+00:00</time>
      </trkpt>
      <trkpt lat="45.37334" lon="2.26974">
        <ele>603</ele>
        <time>2024-09-13T05:10:44+00:00</time>
      </trkpt>
      <trkpt lat="45.37355" lon="2.26993">
        <ele>602</ele>
        <time>2024-09-13T05:10:47+00:00</time>
      </trkpt>
      <trkpt lat="45.37376" lon="2.27012">
        <ele>602</ele>
        <time>2024-09-13T05:10:50+00:00</time>
      </trkpt>
      <trkpt lat="45.3739" lon="2.27041">
        <ele>602</ele>
        <time>2024-09-13T05:10:53+00:00</time>
      </trkpt>
      <trkpt lat="45.37407" lon="2.27073">
        <ele>604</ele>
        <time>2024-09-13T05:10:56+00:00</time>
      </trkpt>
      <trkpt lat="45.37427" lon="2.27124">
        <ele>602</ele>
        <time>2024-09-13T05:10:59+00:00</time>
      </trkpt>
      <trkpt lat="45.3745" lon="2.27107">
        <ele>600</ele>
        <time>2024-09-13T05:11:02+00:00</time>
      </trkpt>
      <trkpt lat="45.37492" lon="2.27087">
        <ele>597</ele>
        <time>2024-09-13T05:11:05+00:00</time>
      </trkpt>
      <trkpt lat="45.37515" lon="2.27098">
        <ele>597</ele>
        <time>2024-09-13T05:11:08+00:00</time>
      </trkpt>
      <trkpt lat="45.37501" lon="2.27129">
        <ele>599</ele>
        <time>2024-09-13T05:11:11+00:00</time>
      </trkpt>
      <trkpt lat="45.37502" lon="2.27173">
        <ele>603</ele>
        <time>2024-09-13T05:11:14+00:00</time>
      </trkpt>
      <trkpt lat="45.37523" lon="2.27228">
        <ele>611</ele>
        <time>2024-09-13T05:11:17+00:00</time>
      </trkpt>
      <trkpt lat="45.37527" lon="2.27254">
        <ele>608</ele>
        <time>2024-09-13T05:11:20+00:00</time>
      </trkpt>
      <trkpt lat="45.37517" lon="2.27308">
        <ele>608</ele>
        <time>2024-09-13T05:11:23+00:00</time>
      </trkpt>
      <trkpt lat="45.37514" lon="2.27336">
        <ele>608</ele>
        <time>2024-09-13T05:11:26+00:00</time>
      </trkpt>
      <trkpt lat="45.37519" lon="2.27363">
        <ele>610</ele>
        <time>2024-09-13T05:11:29+00:00</time>
      </trkpt>
      <trkpt lat="45.37542" lon="2.27393">
        <ele>616</ele>
        <time>2024-09-13T05:11:32+00:00</time>
      </trkpt>
      <trkpt lat="45.37571" lon="2.27399">
        <ele>616</ele>
        <time>2024-09-13T05:11:35+00:00</time>
      </trkpt>
      <trkpt lat="45.37602" lon="2.27391">
        <ele>614</ele>
        <time>2024-09-13T05:11:38+00:00</time>
      </trkpt>
      <trkpt lat="45.37631" lon="2.27376">
        <ele>613</ele>
        <time>2024-09-13T05:11:41+00:00</time>
      </trkpt>
      <trkpt lat="45.37631" lon="2.27427">
        <ele>613</ele>
        <time>2024-09-13T05:11:44+00:00</time>
      </trkpt>
      <trkpt lat="45.37631" lon="2.2747">
        <ele>609</ele>
        <time>2024-09-13T05:11:47+00:00</time>
      </trkpt>
      <trkpt lat="45.3763" lon="2.27546">
        <ele>608</ele>
        <time>2024-09-13T05:11:50+00:00</time>
      </trkpt>
      <trkpt lat="45.3764" lon="2.27605">
        <ele>608</ele>
        <time>2024-09-13T05:11:53+00:00</time>
      </trkpt>
      <trkpt lat="45.37661" lon="2.27685">
        <ele>606</ele>
        <time>2024-09-13T05:11:56+00:00</time>
      </trkpt>
      <trkpt lat="45.3767" lon="2.2773">
        <ele>605</ele>
        <time>2024-09-13T05:11:59+00:00</time>
      </trkpt>
      <trkpt lat="45.37678" lon="2.27775">
        <ele>606</ele>
        <time>2024-09-13T05:12:02+00:00</time>
      </trkpt>
      <trkpt lat="45.37688" lon="2.27828">
        <ele>604</ele>
        <time>2024-09-13T05:12:05+00:00</time>
      </trkpt>
      <trkpt lat="45.37712" lon="2.27847">
        <ele>604</ele>
        <time>2024-09-13T05:12:08+00:00</time>
      </trkpt>
      <trkpt lat="45.37733" lon="2.27853">
        <ele>604</ele>
        <time>2024-09-13T05:12:11+00:00</time>
      </trkpt>
      <trkpt lat="45.37772" lon="2.27827">
        <ele>600</ele>
        <time>2024-09-13T05:12:14+00:00</time>
      </trkpt>
      <trkpt lat="45.37789" lon="2.27889">
        <ele>599</ele>
        <time>2024-09-13T05:12:17+00:00</time>
      </trkpt>
      <trkpt lat="45.3781" lon="2.27903">
        <ele>599</ele>
        <time>2024-09-13T05:12:20+00:00</time>
      </trkpt>
      <trkpt lat="45.37846" lon="2.2789">
        <ele>596</ele>
        <time>2024-09-13T05:12:23+00:00</time>
      </trkpt>
      <trkpt lat="45.37889" lon="2.27976">
        <ele>595</ele>
        <time>2024-09-13T05:12:26+00:00</time>
      </trkpt>
      <trkpt lat="45.37905" lon="2.28012">
        <ele>595</ele>
        <time>2024-09-13T05:12:29+00:00</time>
      </trkpt>
      <trkpt lat="45.37934" lon="2.28078">
        <ele>603</ele>
        <time>2024-09-13T05:12:32+00:00</time>
      </trkpt>
      <trkpt lat="45.37955" lon="2.28122">
        <ele>608</ele>
        <time>2024-09-13T05:12:35+00:00</time>
      </trkpt>
      <trkpt lat="45.37963" lon="2.28149">
        <ele>612</ele>
        <time>2024-09-13T05:12:38+00:00</time>
      </trkpt>
      <trkpt lat="45.3797" lon="2.28193">
        <ele>621</ele>
        <time>2024-09-13T05:12:41+00:00</time>
      </trkpt>
      <trkpt lat="45.37978" lon="2.28238">
        <ele>624</ele>
        <time>2024-09-13T05:12:44+00:00</time>
      </trkpt>
      <trkpt lat="45.37986" lon="2.28288">
        <ele>626</ele>
        <time>2024-09-13T05:12:47+00:00</time>
      </trkpt>
      <trkpt lat="45.37995" lon="2.2833">
        <ele>628</ele>
        <time>2024-09-13T05:12:50+00:00</time>
      </trkpt>
      <trkpt lat="45.38005" lon="2.28362">
        <ele>632</ele>
        <time>2024-09-13T05:12:53+00:00</time>
      </trkpt>
      <trkpt lat="45.38028" lon="2.28413">
        <ele>633</ele>
        <time>2024-09-13T05:12:56+00:00</time>
      </trkpt>
      <trkpt lat="45.38051" lon="2.28462">
        <ele>632</ele>
        <time>2024-09-13T05:12:59+00:00</time>
      </trkpt>
      <trkpt lat="45.38065" lon="2.28497">
        <ele>632</ele>
        <time>2024-09-13T05:13:02+00:00</time>
      </trkpt>
      <trkpt lat="45.3808" lon="2.28546">
        <ele>633</ele>
        <time>2024-09-13T05:13:05+00:00</time>
      </trkpt>
      <trkpt lat="45.38096" lon="2.28587">
        <ele>638</ele>
        <time>2024-09-13T05:13:08+00:00</time>
      </trkpt>
      <trkpt lat="45.38116" lon="2.28628">
        <ele>643</ele>
        <time>2024-09-13T05:13:11+00:00</time>
      </trkpt>
      <trkpt lat="45.38141" lon="2.28669">
        <ele>643</ele>
        <time>2024-09-13T05:13:14+00:00</time>
      </trkpt>
      <trkpt lat="45.38165" lon="2.28692">
        <ele>638</ele>
        <time>2024-09-13T05:13:17+00:00</time>
      </trkpt>
      <trkpt lat="45.38203" lon="2.28727">
        <ele>638</ele>
        <time>2024-09-13T05:13:20+00:00</time>
      </trkpt>
      <trkpt lat="45.3819" lon="2.28765">
        <ele>636</ele>
        <time>2024-09-13T05:13:23+00:00</time>
      </trkpt>
      <trkpt lat="45.38166" lon="2.28829">
        <ele>636</ele>
        <time>2024-09-13T05:13:26+00:00</time>
      </trkpt>
      <trkpt lat="45.38178" lon="2.28857">
        <ele>636</ele>
        <time>2024-09-13T05:13:29+00:00</time>
      </trkpt>
      <trkpt lat="45.38197" lon="2.28911">
        <ele>637</ele>
        <time>2024-09-13T05:13:32+00:00</time>
      </trkpt>
      <trkpt lat="45.3819" lon="2.28947">
        <ele>638</ele>
        <time>2024-09-13T05:13:35+00:00</time>
      </trkpt>
      <trkpt lat="45.38176" lon="2.28978">
        <ele>638</ele>
        <time>2024-09-13T05:13:38+00:00</time>
      </trkpt>
      <trkpt lat="45.38161" lon="2.29013">
        <ele>638</ele>
        <time>2024-09-13T05:13:41+00:00</time>
      </trkpt>
      <trkpt lat="45.38164" lon="2.29065">
        <ele>635</ele>
        <time>2024-09-13T05:13:44+00:00</time>
      </trkpt>
      <trkpt lat="45.38191" lon="2.29115">
        <ele>632</ele>
        <time>2024-09-13T05:13:47+00:00</time>
      </trkpt>
      <trkpt lat="45.38193" lon="2.29153">
        <ele>626</ele>
        <time>2024-09-13T05:13:50+00:00</time>
      </trkpt>
      <trkpt lat="45.38185" lon="2.29189">
        <ele>625</ele>
        <time>2024-09-13T05:13:53+00:00</time>
      </trkpt>
      <trkpt lat="45.38192" lon="2.29226">
        <ele>622</ele>
        <time>2024-09-13T05:13:56+00:00</time>
      </trkpt>
      <trkpt lat="45.38203" lon="2.29196">
        <ele>621</ele>
        <time>2024-09-13T05:13:59+00:00</time>
      </trkpt>
      <trkpt lat="45.38247" lon="2.29167">
        <ele>621</ele>
        <time>2024-09-13T05:14:02+00:00</time>
      </trkpt>
      <trkpt lat="45.38268" lon="2.29148">
        <ele>620</ele>
        <time>2024-09-13T05:14:05+00:00</time>
      </trkpt>
      <trkpt lat="45.38291" lon="2.29126">
        <ele>613</ele>
        <time>2024-09-13T05:14:08+00:00</time>
      </trkpt>
      <trkpt lat="45.38312" lon="2.29113">
        <ele>608</ele>
        <time>2024-09-13T05:14:11+00:00</time>
      </trkpt>
      <trkpt lat="45.38335" lon="2.29107">
        <ele>606</ele>
        <time>2024-09-13T05:14:14+00:00</time>
      </trkpt>
      <trkpt lat="45.38361" lon="2.29108">
        <ele>606</ele>
        <time>2024-09-13T05:14:17+00:00</time>
      </trkpt>
      <trkpt lat="45.38396" lon="2.29116">
        <ele>605</ele>
        <time>2024-09-13T05:14:20+00:00</time>
      </trkpt>
      <trkpt lat="45.38432" lon="2.29124">
        <ele>605</ele>
        <time>2024-09-13T05:14:23+00:00</time>
      </trkpt>
      <trkpt lat="45.38467" lon="2.29132">
        <ele>609</ele>
        <time>2024-09-13T05:14:26+00:00</time>
      </trkpt>
      <trkpt lat="45.38508" lon="2.29141">
        <ele>612</ele>
        <time>2024-09-13T05:14:29+00:00</time>
      </trkpt>
      <trkpt lat="45.38504" lon="2.29172">
        <ele>613</ele>
        <time>2024-09-13T05:14:32+00:00</time>
      </trkpt>
    </trkseg>
  </trk>
</gpx>